<?xml version="1.0" encoding="UTF-8" standalone="no" ?>
<gpx xmlns="http://www.topografix.com/GPX/1/1" xmlns:xsi="http://www.w3.org/2001/XMLSchema-instance" xsi:schemaLocation="http://www.topografix.com/GPX/1/1 http://www.topografix.com/GPX/1/1/gpx.xsd" version="1.1" creator="VisuGPX - https://www.visugpx.com">
  <metadata>
    <name>ski rando col grand fond,couloire nova,col du bresson,col du coin ,la coire</name>
    <desc><![CDATA[
]]></desc>
  </metadata>
  <trk>
    <name><![CDATA[ski rando col grand fond,couloire nova,col du bresson,col du coin ,la coire]]></name>
    <trkseg>
      <trkpt lat="45.63225" lon="6.6694">
        <ele>2009</ele>
        <time>2012-02-23T07:56:30.000Z</time>
      </trkpt>
      <trkpt lat="45.63235" lon="6.66921">
        <ele>2007.1999511719</ele>
        <time>2012-02-23T07:57:23.000Z</time>
      </trkpt>
      <trkpt lat="45.63235" lon="6.66918">
        <ele>2007.5999755859</ele>
        <time>2012-02-23T07:57:29.000Z</time>
      </trkpt>
      <trkpt lat="45.63233" lon="6.6692">
        <ele>2007.4000244141</ele>
        <time>2012-02-23T07:57:43.000Z</time>
      </trkpt>
      <trkpt lat="45.63233" lon="6.66917">
        <ele>2007.1999511719</ele>
        <time>2012-02-23T07:57:45.000Z</time>
      </trkpt>
      <trkpt lat="45.63234" lon="6.6691">
        <ele>2007.8000488281</ele>
        <time>2012-02-23T07:57:50.000Z</time>
      </trkpt>
      <trkpt lat="45.63232" lon="6.66909">
        <ele>2007.4000244141</ele>
        <time>2012-02-23T07:57:58.000Z</time>
      </trkpt>
      <trkpt lat="45.63213" lon="6.66895">
        <ele>2004.5999755859</ele>
        <time>2012-02-23T07:59:17.000Z</time>
      </trkpt>
      <trkpt lat="45.63212" lon="6.66888">
        <ele>2004.8000488281</ele>
        <time>2012-02-23T07:59:23.000Z</time>
      </trkpt>
      <trkpt lat="45.63213" lon="6.66877">
        <ele>2005.4000244141</ele>
        <time>2012-02-23T07:59:33.000Z</time>
      </trkpt>
      <trkpt lat="45.63216" lon="6.66866">
        <ele>2005.1999511719</ele>
        <time>2012-02-23T07:59:44.000Z</time>
      </trkpt>
      <trkpt lat="45.63218" lon="6.66857">
        <ele>2006.1999511719</ele>
        <time>2012-02-23T07:59:53.000Z</time>
      </trkpt>
      <trkpt lat="45.63221" lon="6.66846">
        <ele>2007</ele>
        <time>2012-02-23T08:00:03.000Z</time>
      </trkpt>
      <trkpt lat="45.63222" lon="6.66838">
        <ele>2008</ele>
        <time>2012-02-23T08:00:10.000Z</time>
      </trkpt>
      <trkpt lat="45.63224" lon="6.66828">
        <ele>2007.1999511719</ele>
        <time>2012-02-23T08:00:19.000Z</time>
      </trkpt>
      <trkpt lat="45.63227" lon="6.66816">
        <ele>2007.5999755859</ele>
        <time>2012-02-23T08:00:29.000Z</time>
      </trkpt>
      <trkpt lat="45.63228" lon="6.66804">
        <ele>2008.8000488281</ele>
        <time>2012-02-23T08:00:38.000Z</time>
      </trkpt>
      <trkpt lat="45.63229" lon="6.66792">
        <ele>2009.4000244141</ele>
        <time>2012-02-23T08:00:48.000Z</time>
      </trkpt>
      <trkpt lat="45.63232" lon="6.66781">
        <ele>2009.4000244141</ele>
        <time>2012-02-23T08:00:58.000Z</time>
      </trkpt>
      <trkpt lat="45.63234" lon="6.66771">
        <ele>2009.8000488281</ele>
        <time>2012-02-23T08:01:07.000Z</time>
      </trkpt>
      <trkpt lat="45.63235" lon="6.66767">
        <ele>2010.8000488281</ele>
        <time>2012-02-23T08:01:11.000Z</time>
      </trkpt>
      <trkpt lat="45.63236" lon="6.66764">
        <ele>2011</ele>
        <time>2012-02-23T08:01:13.000Z</time>
      </trkpt>
      <trkpt lat="45.63237" lon="6.66762">
        <ele>2010.4000244141</ele>
        <time>2012-02-23T08:01:15.000Z</time>
      </trkpt>
      <trkpt lat="45.63239" lon="6.66751">
        <ele>2011</ele>
        <time>2012-02-23T08:01:24.000Z</time>
      </trkpt>
      <trkpt lat="45.6324" lon="6.66741">
        <ele>2011.4000244141</ele>
        <time>2012-02-23T08:01:33.000Z</time>
      </trkpt>
      <trkpt lat="45.63242" lon="6.66729">
        <ele>2011.5999755859</ele>
        <time>2012-02-23T08:01:43.000Z</time>
      </trkpt>
      <trkpt lat="45.63242" lon="6.66727">
        <ele>2011.1999511719</ele>
        <time>2012-02-23T08:01:45.000Z</time>
      </trkpt>
      <trkpt lat="45.63244" lon="6.66717">
        <ele>2012.4000244141</ele>
        <time>2012-02-23T08:01:53.000Z</time>
      </trkpt>
      <trkpt lat="45.63245" lon="6.66709">
        <ele>2011</ele>
        <time>2012-02-23T08:02:00.000Z</time>
      </trkpt>
      <trkpt lat="45.63244" lon="6.66699">
        <ele>2012.1999511719</ele>
        <time>2012-02-23T08:02:08.000Z</time>
      </trkpt>
      <trkpt lat="45.63244" lon="6.66689">
        <ele>2012</ele>
        <time>2012-02-23T08:02:17.000Z</time>
      </trkpt>
      <trkpt lat="45.63245" lon="6.66683">
        <ele>2013.4000244141</ele>
        <time>2012-02-23T08:02:24.000Z</time>
      </trkpt>
      <trkpt lat="45.63244" lon="6.66676">
        <ele>2013.4000244141</ele>
        <time>2012-02-23T08:02:33.000Z</time>
      </trkpt>
      <trkpt lat="45.63244" lon="6.66672">
        <ele>2014.5999755859</ele>
        <time>2012-02-23T08:02:39.000Z</time>
      </trkpt>
      <trkpt lat="45.63244" lon="6.66666">
        <ele>2013.8000488281</ele>
        <time>2012-02-23T08:02:45.000Z</time>
      </trkpt>
      <trkpt lat="45.63244" lon="6.66655">
        <ele>2016.4000244141</ele>
        <time>2012-02-23T08:02:55.000Z</time>
      </trkpt>
      <trkpt lat="45.63246" lon="6.66648">
        <ele>2015.5999755859</ele>
        <time>2012-02-23T08:03:01.000Z</time>
      </trkpt>
      <trkpt lat="45.63249" lon="6.66637">
        <ele>2014.5999755859</ele>
        <time>2012-02-23T08:03:09.000Z</time>
      </trkpt>
      <trkpt lat="45.63251" lon="6.66625">
        <ele>2014.4000244141</ele>
        <time>2012-02-23T08:03:20.000Z</time>
      </trkpt>
      <trkpt lat="45.6325" lon="6.66622">
        <ele>2012</ele>
        <time>2012-02-23T08:03:31.000Z</time>
      </trkpt>
      <trkpt lat="45.63249" lon="6.66618">
        <ele>2014</ele>
        <time>2012-02-23T08:03:36.000Z</time>
      </trkpt>
      <trkpt lat="45.63249" lon="6.66616">
        <ele>2013.4000244141</ele>
        <time>2012-02-23T08:03:38.000Z</time>
      </trkpt>
      <trkpt lat="45.63249" lon="6.6661">
        <ele>2014.1999511719</ele>
        <time>2012-02-23T08:03:43.000Z</time>
      </trkpt>
      <trkpt lat="45.63248" lon="6.66604">
        <ele>2014.8000488281</ele>
        <time>2012-02-23T08:03:49.000Z</time>
      </trkpt>
      <trkpt lat="45.63248" lon="6.66596">
        <ele>2014.4000244141</ele>
        <time>2012-02-23T08:03:57.000Z</time>
      </trkpt>
      <trkpt lat="45.63248" lon="6.66595">
        <ele>2014.5999755859</ele>
        <time>2012-02-23T08:04:07.000Z</time>
      </trkpt>
      <trkpt lat="45.63249" lon="6.66593">
        <ele>2014.1999511719</ele>
        <time>2012-02-23T08:04:13.000Z</time>
      </trkpt>
      <trkpt lat="45.6325" lon="6.66584">
        <ele>2013.8000488281</ele>
        <time>2012-02-23T08:04:30.000Z</time>
      </trkpt>
      <trkpt lat="45.63251" lon="6.66574">
        <ele>2014.1999511719</ele>
        <time>2012-02-23T08:04:37.000Z</time>
      </trkpt>
      <trkpt lat="45.63251" lon="6.66571">
        <ele>2015</ele>
        <time>2012-02-23T08:04:40.000Z</time>
      </trkpt>
      <trkpt lat="45.63247" lon="6.66564">
        <ele>2015.8000488281</ele>
        <time>2012-02-23T08:04:47.000Z</time>
      </trkpt>
      <trkpt lat="45.63247" lon="6.66561">
        <ele>2016.4000244141</ele>
        <time>2012-02-23T08:04:50.000Z</time>
      </trkpt>
      <trkpt lat="45.63244" lon="6.66552">
        <ele>2017.1999511719</ele>
        <time>2012-02-23T08:04:58.000Z</time>
      </trkpt>
      <trkpt lat="45.6324" lon="6.66542">
        <ele>2017.1999511719</ele>
        <time>2012-02-23T08:05:07.000Z</time>
      </trkpt>
      <trkpt lat="45.63238" lon="6.66533">
        <ele>2018</ele>
        <time>2012-02-23T08:05:16.000Z</time>
      </trkpt>
      <trkpt lat="45.63238" lon="6.66532">
        <ele>2017.8000488281</ele>
        <time>2012-02-23T08:05:17.000Z</time>
      </trkpt>
      <trkpt lat="45.63238" lon="6.66528">
        <ele>2019</ele>
        <time>2012-02-23T08:05:20.000Z</time>
      </trkpt>
      <trkpt lat="45.63242" lon="6.66525">
        <ele>2018.8000488281</ele>
        <time>2012-02-23T08:05:27.000Z</time>
      </trkpt>
      <trkpt lat="45.63247" lon="6.66522">
        <ele>2020.4000244141</ele>
        <time>2012-02-23T08:05:33.000Z</time>
      </trkpt>
      <trkpt lat="45.63254" lon="6.66519">
        <ele>2019.5999755859</ele>
        <time>2012-02-23T08:05:41.000Z</time>
      </trkpt>
      <trkpt lat="45.63258" lon="6.66516">
        <ele>2020.5999755859</ele>
        <time>2012-02-23T08:05:46.000Z</time>
      </trkpt>
      <trkpt lat="45.63263" lon="6.6651">
        <ele>2021.8000488281</ele>
        <time>2012-02-23T08:05:52.000Z</time>
      </trkpt>
      <trkpt lat="45.63264" lon="6.66506">
        <ele>2021.8000488281</ele>
        <time>2012-02-23T08:06:01.000Z</time>
      </trkpt>
      <trkpt lat="45.63264" lon="6.66505">
        <ele>2022.1999511719</ele>
        <time>2012-02-23T08:06:02.000Z</time>
      </trkpt>
      <trkpt lat="45.63266" lon="6.66497">
        <ele>2023.4000244141</ele>
        <time>2012-02-23T08:06:11.000Z</time>
      </trkpt>
      <trkpt lat="45.63268" lon="6.66492">
        <ele>2023.5999755859</ele>
        <time>2012-02-23T08:06:18.000Z</time>
      </trkpt>
      <trkpt lat="45.6327" lon="6.66488">
        <ele>2026</ele>
        <time>2012-02-23T08:06:23.000Z</time>
      </trkpt>
      <trkpt lat="45.63273" lon="6.6648">
        <ele>2026.8000488281</ele>
        <time>2012-02-23T08:06:31.000Z</time>
      </trkpt>
      <trkpt lat="45.63274" lon="6.66473">
        <ele>2026.8000488281</ele>
        <time>2012-02-23T08:06:38.000Z</time>
      </trkpt>
      <trkpt lat="45.63275" lon="6.6647">
        <ele>2027.1999511719</ele>
        <time>2012-02-23T08:06:42.000Z</time>
      </trkpt>
      <trkpt lat="45.63276" lon="6.66462">
        <ele>2029.4000244141</ele>
        <time>2012-02-23T08:06:51.000Z</time>
      </trkpt>
      <trkpt lat="45.63278" lon="6.66456">
        <ele>2032</ele>
        <time>2012-02-23T08:06:59.000Z</time>
      </trkpt>
      <trkpt lat="45.63278" lon="6.66452">
        <ele>2031.1999511719</ele>
        <time>2012-02-23T08:07:05.000Z</time>
      </trkpt>
      <trkpt lat="45.63279" lon="6.66446">
        <ele>2032.8000488281</ele>
        <time>2012-02-23T08:07:12.000Z</time>
      </trkpt>
      <trkpt lat="45.6328" lon="6.66443">
        <ele>2034.8000488281</ele>
        <time>2012-02-23T08:07:18.000Z</time>
      </trkpt>
      <trkpt lat="45.63285" lon="6.66437">
        <ele>2034.5999755859</ele>
        <time>2012-02-23T08:07:26.000Z</time>
      </trkpt>
      <trkpt lat="45.63289" lon="6.66432">
        <ele>2036.5999755859</ele>
        <time>2012-02-23T08:07:35.000Z</time>
      </trkpt>
      <trkpt lat="45.63291" lon="6.66431">
        <ele>2037.5999755859</ele>
        <time>2012-02-23T08:07:40.000Z</time>
      </trkpt>
      <trkpt lat="45.63293" lon="6.66429">
        <ele>2036.5999755859</ele>
        <time>2012-02-23T08:07:45.000Z</time>
      </trkpt>
      <trkpt lat="45.63295" lon="6.66426">
        <ele>2038.5999755859</ele>
        <time>2012-02-23T08:07:51.000Z</time>
      </trkpt>
      <trkpt lat="45.63297" lon="6.66423">
        <ele>2038.5999755859</ele>
        <time>2012-02-23T08:07:59.000Z</time>
      </trkpt>
      <trkpt lat="45.63301" lon="6.66421">
        <ele>2040.5999755859</ele>
        <time>2012-02-23T08:08:05.000Z</time>
      </trkpt>
      <trkpt lat="45.63304" lon="6.66419">
        <ele>2041.8000488281</ele>
        <time>2012-02-23T08:08:10.000Z</time>
      </trkpt>
      <trkpt lat="45.63307" lon="6.66415">
        <ele>2040.5999755859</ele>
        <time>2012-02-23T08:08:21.000Z</time>
      </trkpt>
      <trkpt lat="45.6331" lon="6.66414">
        <ele>2040.5999755859</ele>
        <time>2012-02-23T08:08:28.000Z</time>
      </trkpt>
      <trkpt lat="45.6331" lon="6.66414">
        <ele>2040.5999755859</ele>
        <time>2012-02-23T08:08:29.000Z</time>
      </trkpt>
      <trkpt lat="45.63315" lon="6.66408">
        <ele>2042.1999511719</ele>
        <time>2012-02-23T08:08:39.000Z</time>
      </trkpt>
      <trkpt lat="45.63321" lon="6.66404">
        <ele>2042.4000244141</ele>
        <time>2012-02-23T08:08:46.000Z</time>
      </trkpt>
      <trkpt lat="45.63322" lon="6.66402">
        <ele>2043.8000488281</ele>
        <time>2012-02-23T08:08:49.000Z</time>
      </trkpt>
      <trkpt lat="45.63324" lon="6.66397">
        <ele>2043</ele>
        <time>2012-02-23T08:08:56.000Z</time>
      </trkpt>
      <trkpt lat="45.63328" lon="6.66391">
        <ele>2043.4000244141</ele>
        <time>2012-02-23T08:09:04.000Z</time>
      </trkpt>
      <trkpt lat="45.6333" lon="6.66385">
        <ele>2044.1999511719</ele>
        <time>2012-02-23T08:09:12.000Z</time>
      </trkpt>
      <trkpt lat="45.63334" lon="6.66375">
        <ele>2044.5999755859</ele>
        <time>2012-02-23T08:09:20.000Z</time>
      </trkpt>
      <trkpt lat="45.63337" lon="6.66371">
        <ele>2046.8000488281</ele>
        <time>2012-02-23T08:09:25.000Z</time>
      </trkpt>
      <trkpt lat="45.6334" lon="6.66367">
        <ele>2047</ele>
        <time>2012-02-23T08:09:32.000Z</time>
      </trkpt>
      <trkpt lat="45.63342" lon="6.66364">
        <ele>2047.1999511719</ele>
        <time>2012-02-23T08:09:36.000Z</time>
      </trkpt>
      <trkpt lat="45.63345" lon="6.6636">
        <ele>2047.5999755859</ele>
        <time>2012-02-23T08:09:42.000Z</time>
      </trkpt>
      <trkpt lat="45.63347" lon="6.66356">
        <ele>2049.1999511719</ele>
        <time>2012-02-23T08:09:49.000Z</time>
      </trkpt>
      <trkpt lat="45.63349" lon="6.66351">
        <ele>2050.1999511719</ele>
        <time>2012-02-23T08:09:56.000Z</time>
      </trkpt>
      <trkpt lat="45.63352" lon="6.66345">
        <ele>2050</ele>
        <time>2012-02-23T08:10:03.000Z</time>
      </trkpt>
      <trkpt lat="45.63356" lon="6.66338">
        <ele>2051.1999511719</ele>
        <time>2012-02-23T08:10:11.000Z</time>
      </trkpt>
      <trkpt lat="45.63358" lon="6.66336">
        <ele>2051.8000488281</ele>
        <time>2012-02-23T08:10:16.000Z</time>
      </trkpt>
      <trkpt lat="45.6336" lon="6.66333">
        <ele>2052.1999511719</ele>
        <time>2012-02-23T08:10:22.000Z</time>
      </trkpt>
      <trkpt lat="45.63361" lon="6.66327">
        <ele>2052.3999023438</ele>
        <time>2012-02-23T08:10:31.000Z</time>
      </trkpt>
      <trkpt lat="45.63363" lon="6.66323">
        <ele>2052.6000976562</ele>
        <time>2012-02-23T08:10:37.000Z</time>
      </trkpt>
      <trkpt lat="45.63367" lon="6.66317">
        <ele>2054.6000976562</ele>
        <time>2012-02-23T08:10:44.000Z</time>
      </trkpt>
      <trkpt lat="45.6337" lon="6.6631">
        <ele>2055.3999023438</ele>
        <time>2012-02-23T08:10:52.000Z</time>
      </trkpt>
      <trkpt lat="45.63373" lon="6.66303">
        <ele>2055.8000488281</ele>
        <time>2012-02-23T08:11:00.000Z</time>
      </trkpt>
      <trkpt lat="45.63376" lon="6.66298">
        <ele>2057.1999511719</ele>
        <time>2012-02-23T08:11:08.000Z</time>
      </trkpt>
      <trkpt lat="45.63378" lon="6.66294">
        <ele>2056.8000488281</ele>
        <time>2012-02-23T08:11:13.000Z</time>
      </trkpt>
      <trkpt lat="45.63382" lon="6.6629">
        <ele>2058</ele>
        <time>2012-02-23T08:11:19.000Z</time>
      </trkpt>
      <trkpt lat="45.63384" lon="6.66288">
        <ele>2057.6000976562</ele>
        <time>2012-02-23T08:11:26.000Z</time>
      </trkpt>
      <trkpt lat="45.63385" lon="6.66287">
        <ele>2058.8000488281</ele>
        <time>2012-02-23T08:11:28.000Z</time>
      </trkpt>
      <trkpt lat="45.63387" lon="6.66281">
        <ele>2060.8000488281</ele>
        <time>2012-02-23T08:11:37.000Z</time>
      </trkpt>
      <trkpt lat="45.63389" lon="6.66277">
        <ele>2060</ele>
        <time>2012-02-23T08:11:43.000Z</time>
      </trkpt>
      <trkpt lat="45.63393" lon="6.6627">
        <ele>2061.6000976562</ele>
        <time>2012-02-23T08:11:54.000Z</time>
      </trkpt>
      <trkpt lat="45.63396" lon="6.66266">
        <ele>2061.1999511719</ele>
        <time>2012-02-23T08:12:01.000Z</time>
      </trkpt>
      <trkpt lat="45.63399" lon="6.66262">
        <ele>2062.8000488281</ele>
        <time>2012-02-23T08:12:07.000Z</time>
      </trkpt>
      <trkpt lat="45.63401" lon="6.66261">
        <ele>2063.6000976562</ele>
        <time>2012-02-23T08:12:14.000Z</time>
      </trkpt>
      <trkpt lat="45.63405" lon="6.66254">
        <ele>2064</ele>
        <time>2012-02-23T08:12:23.000Z</time>
      </trkpt>
      <trkpt lat="45.63408" lon="6.66248">
        <ele>2066.6000976562</ele>
        <time>2012-02-23T08:12:29.000Z</time>
      </trkpt>
      <trkpt lat="45.63413" lon="6.6624">
        <ele>2066.3999023438</ele>
        <time>2012-02-23T08:12:37.000Z</time>
      </trkpt>
      <trkpt lat="45.63417" lon="6.66235">
        <ele>2067.6000976562</ele>
        <time>2012-02-23T08:12:43.000Z</time>
      </trkpt>
      <trkpt lat="45.63417" lon="6.66227">
        <ele>2067.3999023438</ele>
        <time>2012-02-23T08:12:51.000Z</time>
      </trkpt>
      <trkpt lat="45.63419" lon="6.66215">
        <ele>2068.8000488281</ele>
        <time>2012-02-23T08:13:00.000Z</time>
      </trkpt>
      <trkpt lat="45.6342" lon="6.66209">
        <ele>2069.8000488281</ele>
        <time>2012-02-23T08:13:06.000Z</time>
      </trkpt>
      <trkpt lat="45.6342" lon="6.66207">
        <ele>2070.6000976562</ele>
        <time>2012-02-23T08:13:10.000Z</time>
      </trkpt>
      <trkpt lat="45.63422" lon="6.66206">
        <ele>2070.8000488281</ele>
        <time>2012-02-23T08:13:17.000Z</time>
      </trkpt>
      <trkpt lat="45.63425" lon="6.66201">
        <ele>2071.8000488281</ele>
        <time>2012-02-23T08:13:29.000Z</time>
      </trkpt>
      <trkpt lat="45.63423" lon="6.66202">
        <ele>2067</ele>
        <time>2012-02-23T08:17:09.000Z</time>
      </trkpt>
      <trkpt lat="45.6343" lon="6.66198">
        <ele>2066.8000488281</ele>
        <time>2012-02-23T08:17:24.000Z</time>
      </trkpt>
      <trkpt lat="45.63436" lon="6.66195">
        <ele>2066.1999511719</ele>
        <time>2012-02-23T08:17:37.000Z</time>
      </trkpt>
      <trkpt lat="45.63443" lon="6.66191">
        <ele>2066.3999023438</ele>
        <time>2012-02-23T08:17:45.000Z</time>
      </trkpt>
      <trkpt lat="45.63451" lon="6.66182">
        <ele>2066.3999023438</ele>
        <time>2012-02-23T08:17:53.000Z</time>
      </trkpt>
      <trkpt lat="45.63458" lon="6.66174">
        <ele>2066.8000488281</ele>
        <time>2012-02-23T08:18:02.000Z</time>
      </trkpt>
      <trkpt lat="45.63461" lon="6.66169">
        <ele>2066.8000488281</ele>
        <time>2012-02-23T08:18:06.000Z</time>
      </trkpt>
      <trkpt lat="45.63474" lon="6.66164">
        <ele>2067.3999023438</ele>
        <time>2012-02-23T08:18:15.000Z</time>
      </trkpt>
      <trkpt lat="45.63479" lon="6.66159">
        <ele>2067.6000976562</ele>
        <time>2012-02-23T08:18:22.000Z</time>
      </trkpt>
      <trkpt lat="45.63482" lon="6.66156">
        <ele>2067.6000976562</ele>
        <time>2012-02-23T08:18:29.000Z</time>
      </trkpt>
      <trkpt lat="45.63484" lon="6.66156">
        <ele>2068.1999511719</ele>
        <time>2012-02-23T08:18:30.000Z</time>
      </trkpt>
      <trkpt lat="45.63488" lon="6.66159">
        <ele>2069.6000976562</ele>
        <time>2012-02-23T08:18:37.000Z</time>
      </trkpt>
      <trkpt lat="45.6349" lon="6.66169">
        <ele>2070.6000976562</ele>
        <time>2012-02-23T08:18:51.000Z</time>
      </trkpt>
      <trkpt lat="45.635" lon="6.6617">
        <ele>2074</ele>
        <time>2012-02-23T08:19:07.000Z</time>
      </trkpt>
      <trkpt lat="45.63502" lon="6.66173">
        <ele>2074</ele>
        <time>2012-02-23T08:19:14.000Z</time>
      </trkpt>
      <trkpt lat="45.63504" lon="6.66173">
        <ele>2076</ele>
        <time>2012-02-23T08:19:18.000Z</time>
      </trkpt>
      <trkpt lat="45.63508" lon="6.66171">
        <ele>2076.1999511719</ele>
        <time>2012-02-23T08:19:22.000Z</time>
      </trkpt>
      <trkpt lat="45.63511" lon="6.66171">
        <ele>2076</ele>
        <time>2012-02-23T08:19:27.000Z</time>
      </trkpt>
      <trkpt lat="45.63515" lon="6.66172">
        <ele>2078</ele>
        <time>2012-02-23T08:19:33.000Z</time>
      </trkpt>
      <trkpt lat="45.6352" lon="6.66171">
        <ele>2077.8000488281</ele>
        <time>2012-02-23T08:19:39.000Z</time>
      </trkpt>
      <trkpt lat="45.63522" lon="6.66171">
        <ele>2080.1999511719</ele>
        <time>2012-02-23T08:19:44.000Z</time>
      </trkpt>
      <trkpt lat="45.63525" lon="6.66172">
        <ele>2079.1999511719</ele>
        <time>2012-02-23T08:19:50.000Z</time>
      </trkpt>
      <trkpt lat="45.63525" lon="6.66177">
        <ele>2080.8000488281</ele>
        <time>2012-02-23T08:19:55.000Z</time>
      </trkpt>
      <trkpt lat="45.63529" lon="6.66177">
        <ele>2081.1999511719</ele>
        <time>2012-02-23T08:20:02.000Z</time>
      </trkpt>
      <trkpt lat="45.63529" lon="6.66184">
        <ele>2082.1999511719</ele>
        <time>2012-02-23T08:20:09.000Z</time>
      </trkpt>
      <trkpt lat="45.63532" lon="6.66186">
        <ele>2083.8000488281</ele>
        <time>2012-02-23T08:20:14.000Z</time>
      </trkpt>
      <trkpt lat="45.63534" lon="6.66186">
        <ele>2084.3999023438</ele>
        <time>2012-02-23T08:20:16.000Z</time>
      </trkpt>
      <trkpt lat="45.63537" lon="6.66188">
        <ele>2084.1999511719</ele>
        <time>2012-02-23T08:20:21.000Z</time>
      </trkpt>
      <trkpt lat="45.63538" lon="6.66193">
        <ele>2084.6000976562</ele>
        <time>2012-02-23T08:20:26.000Z</time>
      </trkpt>
      <trkpt lat="45.63539" lon="6.66195">
        <ele>2085.3999023438</ele>
        <time>2012-02-23T08:20:28.000Z</time>
      </trkpt>
      <trkpt lat="45.63541" lon="6.66199">
        <ele>2085.3999023438</ele>
        <time>2012-02-23T08:20:33.000Z</time>
      </trkpt>
      <trkpt lat="45.63541" lon="6.66203">
        <ele>2086.6000976562</ele>
        <time>2012-02-23T08:20:37.000Z</time>
      </trkpt>
      <trkpt lat="45.63542" lon="6.66205">
        <ele>2086.1999511719</ele>
        <time>2012-02-23T08:20:41.000Z</time>
      </trkpt>
      <trkpt lat="45.63549" lon="6.6621">
        <ele>2086.8000488281</ele>
        <time>2012-02-23T08:20:53.000Z</time>
      </trkpt>
      <trkpt lat="45.63554" lon="6.6621">
        <ele>2088</ele>
        <time>2012-02-23T08:20:59.000Z</time>
      </trkpt>
      <trkpt lat="45.63566" lon="6.66206">
        <ele>2087.8000488281</ele>
        <time>2012-02-23T08:21:09.000Z</time>
      </trkpt>
      <trkpt lat="45.63577" lon="6.66201">
        <ele>2087.6000976562</ele>
        <time>2012-02-23T08:21:17.000Z</time>
      </trkpt>
      <trkpt lat="45.63581" lon="6.66201">
        <ele>2087.3999023438</ele>
        <time>2012-02-23T08:21:22.000Z</time>
      </trkpt>
      <trkpt lat="45.63587" lon="6.66203">
        <ele>2089.3999023438</ele>
        <time>2012-02-23T08:21:30.000Z</time>
      </trkpt>
      <trkpt lat="45.63591" lon="6.66206">
        <ele>2089.1999511719</ele>
        <time>2012-02-23T08:21:36.000Z</time>
      </trkpt>
      <trkpt lat="45.63596" lon="6.66207">
        <ele>2090.1999511719</ele>
        <time>2012-02-23T08:21:42.000Z</time>
      </trkpt>
      <trkpt lat="45.636" lon="6.66208">
        <ele>2089.8000488281</ele>
        <time>2012-02-23T08:21:48.000Z</time>
      </trkpt>
      <trkpt lat="45.63605" lon="6.66212">
        <ele>2091.8000488281</ele>
        <time>2012-02-23T08:21:56.000Z</time>
      </trkpt>
      <trkpt lat="45.63607" lon="6.66215">
        <ele>2092.1999511719</ele>
        <time>2012-02-23T08:22:02.000Z</time>
      </trkpt>
      <trkpt lat="45.63608" lon="6.66215">
        <ele>2092.6000976562</ele>
        <time>2012-02-23T08:22:03.000Z</time>
      </trkpt>
      <trkpt lat="45.63611" lon="6.66217">
        <ele>2091.1999511719</ele>
        <time>2012-02-23T08:22:08.000Z</time>
      </trkpt>
      <trkpt lat="45.63615" lon="6.66222">
        <ele>2093.3999023438</ele>
        <time>2012-02-23T08:22:15.000Z</time>
      </trkpt>
      <trkpt lat="45.6362" lon="6.66222">
        <ele>2094.3999023438</ele>
        <time>2012-02-23T08:22:24.000Z</time>
      </trkpt>
      <trkpt lat="45.63624" lon="6.66221">
        <ele>2096.1999511719</ele>
        <time>2012-02-23T08:22:29.000Z</time>
      </trkpt>
      <trkpt lat="45.63627" lon="6.66221">
        <ele>2094.3999023438</ele>
        <time>2012-02-23T08:22:35.000Z</time>
      </trkpt>
      <trkpt lat="45.63628" lon="6.66223">
        <ele>2096</ele>
        <time>2012-02-23T08:22:38.000Z</time>
      </trkpt>
      <trkpt lat="45.63635" lon="6.66221">
        <ele>2097.3999023438</ele>
        <time>2012-02-23T08:22:44.000Z</time>
      </trkpt>
      <trkpt lat="45.63639" lon="6.66221">
        <ele>2099.1999511719</ele>
        <time>2012-02-23T08:22:49.000Z</time>
      </trkpt>
      <trkpt lat="45.63643" lon="6.66221">
        <ele>2098.8000488281</ele>
        <time>2012-02-23T08:22:54.000Z</time>
      </trkpt>
      <trkpt lat="45.63646" lon="6.66219">
        <ele>2099.6000976562</ele>
        <time>2012-02-23T08:23:00.000Z</time>
      </trkpt>
      <trkpt lat="45.63647" lon="6.6622">
        <ele>2100.3999023438</ele>
        <time>2012-02-23T08:23:05.000Z</time>
      </trkpt>
      <trkpt lat="45.63651" lon="6.66222">
        <ele>2100.6000976562</ele>
        <time>2012-02-23T08:23:13.000Z</time>
      </trkpt>
      <trkpt lat="45.63651" lon="6.66224">
        <ele>2101.3999023438</ele>
        <time>2012-02-23T08:23:18.000Z</time>
      </trkpt>
      <trkpt lat="45.63655" lon="6.66224">
        <ele>2101.8000488281</ele>
        <time>2012-02-23T08:23:24.000Z</time>
      </trkpt>
      <trkpt lat="45.63659" lon="6.66226">
        <ele>2102</ele>
        <time>2012-02-23T08:23:30.000Z</time>
      </trkpt>
      <trkpt lat="45.63661" lon="6.6623">
        <ele>2102.6000976562</ele>
        <time>2012-02-23T08:23:46.000Z</time>
      </trkpt>
      <trkpt lat="45.63665" lon="6.6623">
        <ele>2101.3999023438</ele>
        <time>2012-02-23T08:23:51.000Z</time>
      </trkpt>
      <trkpt lat="45.6367" lon="6.6623">
        <ele>2102.8000488281</ele>
        <time>2012-02-23T08:23:57.000Z</time>
      </trkpt>
      <trkpt lat="45.63673" lon="6.66231">
        <ele>2102.8000488281</ele>
        <time>2012-02-23T08:24:02.000Z</time>
      </trkpt>
      <trkpt lat="45.63678" lon="6.66234">
        <ele>2102.1999511719</ele>
        <time>2012-02-23T08:24:08.000Z</time>
      </trkpt>
      <trkpt lat="45.63681" lon="6.66235">
        <ele>2103.6000976562</ele>
        <time>2012-02-23T08:24:13.000Z</time>
      </trkpt>
      <trkpt lat="45.63686" lon="6.66235">
        <ele>2105</ele>
        <time>2012-02-23T08:24:20.000Z</time>
      </trkpt>
      <trkpt lat="45.63689" lon="6.66236">
        <ele>2104</ele>
        <time>2012-02-23T08:24:24.000Z</time>
      </trkpt>
      <trkpt lat="45.63694" lon="6.66236">
        <ele>2104.1999511719</ele>
        <time>2012-02-23T08:24:29.000Z</time>
      </trkpt>
      <trkpt lat="45.63697" lon="6.66236">
        <ele>2105.6000976562</ele>
        <time>2012-02-23T08:24:34.000Z</time>
      </trkpt>
      <trkpt lat="45.637" lon="6.6624">
        <ele>2106.6000976562</ele>
        <time>2012-02-23T08:24:40.000Z</time>
      </trkpt>
      <trkpt lat="45.63706" lon="6.66237">
        <ele>2105</ele>
        <time>2012-02-23T08:24:44.000Z</time>
      </trkpt>
      <trkpt lat="45.63709" lon="6.66239">
        <ele>2105.8000488281</ele>
        <time>2012-02-23T08:24:50.000Z</time>
      </trkpt>
      <trkpt lat="45.63714" lon="6.66239">
        <ele>2107.3999023438</ele>
        <time>2012-02-23T08:24:55.000Z</time>
      </trkpt>
      <trkpt lat="45.63714" lon="6.6624">
        <ele>2108</ele>
        <time>2012-02-23T08:24:57.000Z</time>
      </trkpt>
      <trkpt lat="45.63717" lon="6.66242">
        <ele>2106.8000488281</ele>
        <time>2012-02-23T08:25:03.000Z</time>
      </trkpt>
      <trkpt lat="45.6372" lon="6.66248">
        <ele>2108.3999023438</ele>
        <time>2012-02-23T08:25:11.000Z</time>
      </trkpt>
      <trkpt lat="45.6372" lon="6.66251">
        <ele>2108.3999023438</ele>
        <time>2012-02-23T08:25:15.000Z</time>
      </trkpt>
      <trkpt lat="45.63724" lon="6.66254">
        <ele>2109.8000488281</ele>
        <time>2012-02-23T08:25:21.000Z</time>
      </trkpt>
      <trkpt lat="45.63727" lon="6.66255">
        <ele>2109.6000976562</ele>
        <time>2012-02-23T08:25:25.000Z</time>
      </trkpt>
      <trkpt lat="45.63731" lon="6.66257">
        <ele>2110.6000976562</ele>
        <time>2012-02-23T08:25:31.000Z</time>
      </trkpt>
      <trkpt lat="45.63736" lon="6.66257">
        <ele>2111.1999511719</ele>
        <time>2012-02-23T08:25:36.000Z</time>
      </trkpt>
      <trkpt lat="45.63739" lon="6.66262">
        <ele>2111</ele>
        <time>2012-02-23T08:25:43.000Z</time>
      </trkpt>
      <trkpt lat="45.63742" lon="6.66263">
        <ele>2112.3999023438</ele>
        <time>2012-02-23T08:25:46.000Z</time>
      </trkpt>
      <trkpt lat="45.63744" lon="6.66262">
        <ele>2112.3999023438</ele>
        <time>2012-02-23T08:25:49.000Z</time>
      </trkpt>
      <trkpt lat="45.63749" lon="6.66263">
        <ele>2113.3999023438</ele>
        <time>2012-02-23T08:25:54.000Z</time>
      </trkpt>
      <trkpt lat="45.63753" lon="6.66263">
        <ele>2113.8000488281</ele>
        <time>2012-02-23T08:26:01.000Z</time>
      </trkpt>
      <trkpt lat="45.63754" lon="6.66263">
        <ele>2114</ele>
        <time>2012-02-23T08:26:02.000Z</time>
      </trkpt>
      <trkpt lat="45.63755" lon="6.66265">
        <ele>2115.8000488281</ele>
        <time>2012-02-23T08:26:06.000Z</time>
      </trkpt>
      <trkpt lat="45.6376" lon="6.66264">
        <ele>2115.3999023438</ele>
        <time>2012-02-23T08:26:12.000Z</time>
      </trkpt>
      <trkpt lat="45.63763" lon="6.66265">
        <ele>2116.3999023438</ele>
        <time>2012-02-23T08:26:17.000Z</time>
      </trkpt>
      <trkpt lat="45.63765" lon="6.66266">
        <ele>2115.8000488281</ele>
        <time>2012-02-23T08:26:21.000Z</time>
      </trkpt>
      <trkpt lat="45.63767" lon="6.66265">
        <ele>2117.8000488281</ele>
        <time>2012-02-23T08:26:26.000Z</time>
      </trkpt>
      <trkpt lat="45.63769" lon="6.66267">
        <ele>2116.8000488281</ele>
        <time>2012-02-23T08:26:31.000Z</time>
      </trkpt>
      <trkpt lat="45.63773" lon="6.66267">
        <ele>2118.1999511719</ele>
        <time>2012-02-23T08:26:36.000Z</time>
      </trkpt>
      <trkpt lat="45.63777" lon="6.66267">
        <ele>2118.3999023438</ele>
        <time>2012-02-23T08:26:40.000Z</time>
      </trkpt>
      <trkpt lat="45.63779" lon="6.66269">
        <ele>2118.8000488281</ele>
        <time>2012-02-23T08:26:45.000Z</time>
      </trkpt>
      <trkpt lat="45.63783" lon="6.66269">
        <ele>2120.3999023438</ele>
        <time>2012-02-23T08:26:50.000Z</time>
      </trkpt>
      <trkpt lat="45.63784" lon="6.66272">
        <ele>2120</ele>
        <time>2012-02-23T08:26:54.000Z</time>
      </trkpt>
      <trkpt lat="45.63789" lon="6.66272">
        <ele>2120.6000976562</ele>
        <time>2012-02-23T08:26:59.000Z</time>
      </trkpt>
      <trkpt lat="45.6379" lon="6.66273">
        <ele>2121.3999023438</ele>
        <time>2012-02-23T08:27:01.000Z</time>
      </trkpt>
      <trkpt lat="45.63793" lon="6.6628">
        <ele>2121.6000976562</ele>
        <time>2012-02-23T08:27:11.000Z</time>
      </trkpt>
      <trkpt lat="45.63795" lon="6.66282">
        <ele>2123.3999023438</ele>
        <time>2012-02-23T08:27:16.000Z</time>
      </trkpt>
      <trkpt lat="45.63796" lon="6.66285">
        <ele>2122.6000976562</ele>
        <time>2012-02-23T08:27:22.000Z</time>
      </trkpt>
      <trkpt lat="45.638" lon="6.66285">
        <ele>2124.1999511719</ele>
        <time>2012-02-23T08:27:27.000Z</time>
      </trkpt>
      <trkpt lat="45.63804" lon="6.66291">
        <ele>2123.6000976562</ele>
        <time>2012-02-23T08:27:33.000Z</time>
      </trkpt>
      <trkpt lat="45.63807" lon="6.6629">
        <ele>2124.3999023438</ele>
        <time>2012-02-23T08:27:37.000Z</time>
      </trkpt>
      <trkpt lat="45.63812" lon="6.6629">
        <ele>2126.1999511719</ele>
        <time>2012-02-23T08:27:41.000Z</time>
      </trkpt>
      <trkpt lat="45.63816" lon="6.6629">
        <ele>2125.1999511719</ele>
        <time>2012-02-23T08:27:46.000Z</time>
      </trkpt>
      <trkpt lat="45.63822" lon="6.6629">
        <ele>2127.3999023438</ele>
        <time>2012-02-23T08:27:52.000Z</time>
      </trkpt>
      <trkpt lat="45.63827" lon="6.66289">
        <ele>2126.6000976562</ele>
        <time>2012-02-23T08:27:59.000Z</time>
      </trkpt>
      <trkpt lat="45.63832" lon="6.6629">
        <ele>2126.3999023438</ele>
        <time>2012-02-23T08:28:04.000Z</time>
      </trkpt>
      <trkpt lat="45.63832" lon="6.6629">
        <ele>2127</ele>
        <time>2012-02-23T08:28:05.000Z</time>
      </trkpt>
      <trkpt lat="45.63839" lon="6.66292">
        <ele>2129.1999511719</ele>
        <time>2012-02-23T08:28:12.000Z</time>
      </trkpt>
      <trkpt lat="45.63843" lon="6.66295">
        <ele>2129.3999023438</ele>
        <time>2012-02-23T08:28:18.000Z</time>
      </trkpt>
      <trkpt lat="45.63845" lon="6.66297">
        <ele>2128.1999511719</ele>
        <time>2012-02-23T08:28:20.000Z</time>
      </trkpt>
      <trkpt lat="45.63846" lon="6.66297">
        <ele>2127.8000488281</ele>
        <time>2012-02-23T08:28:21.000Z</time>
      </trkpt>
      <trkpt lat="45.6385" lon="6.66298">
        <ele>2129.1999511719</ele>
        <time>2012-02-23T08:28:25.000Z</time>
      </trkpt>
      <trkpt lat="45.63857" lon="6.66305">
        <ele>2129.1999511719</ele>
        <time>2012-02-23T08:28:39.000Z</time>
      </trkpt>
      <trkpt lat="45.63864" lon="6.66303">
        <ele>2129.1999511719</ele>
        <time>2012-02-23T08:28:49.000Z</time>
      </trkpt>
      <trkpt lat="45.6387" lon="6.66304">
        <ele>2131.1999511719</ele>
        <time>2012-02-23T08:28:57.000Z</time>
      </trkpt>
      <trkpt lat="45.63877" lon="6.66302">
        <ele>2131</ele>
        <time>2012-02-23T08:29:05.000Z</time>
      </trkpt>
      <trkpt lat="45.63879" lon="6.66302">
        <ele>2132</ele>
        <time>2012-02-23T08:29:07.000Z</time>
      </trkpt>
      <trkpt lat="45.63883" lon="6.66307">
        <ele>2132</ele>
        <time>2012-02-23T08:29:13.000Z</time>
      </trkpt>
      <trkpt lat="45.63885" lon="6.66307">
        <ele>2133.6000976562</ele>
        <time>2012-02-23T08:29:16.000Z</time>
      </trkpt>
      <trkpt lat="45.63884" lon="6.66309">
        <ele>2133.8000488281</ele>
        <time>2012-02-23T08:29:23.000Z</time>
      </trkpt>
      <trkpt lat="45.6388" lon="6.66319">
        <ele>2130.8000488281</ele>
        <time>2012-02-23T08:31:11.000Z</time>
      </trkpt>
      <trkpt lat="45.63881" lon="6.66316">
        <ele>2130.6000976562</ele>
        <time>2012-02-23T08:31:19.000Z</time>
      </trkpt>
      <trkpt lat="45.63887" lon="6.66323">
        <ele>2129.1999511719</ele>
        <time>2012-02-23T08:32:14.000Z</time>
      </trkpt>
      <trkpt lat="45.63886" lon="6.66325">
        <ele>2129</ele>
        <time>2012-02-23T08:32:19.000Z</time>
      </trkpt>
      <trkpt lat="45.63879" lon="6.66318">
        <ele>2128.8000488281</ele>
        <time>2012-02-23T08:32:37.000Z</time>
      </trkpt>
      <trkpt lat="45.63891" lon="6.66312">
        <ele>2129</ele>
        <time>2012-02-23T08:33:18.000Z</time>
      </trkpt>
      <trkpt lat="45.63892" lon="6.66312">
        <ele>2128.6000976562</ele>
        <time>2012-02-23T08:33:19.000Z</time>
      </trkpt>
      <trkpt lat="45.63895" lon="6.66315">
        <ele>2129.3999023438</ele>
        <time>2012-02-23T08:33:26.000Z</time>
      </trkpt>
      <trkpt lat="45.63901" lon="6.66317">
        <ele>2131.8000488281</ele>
        <time>2012-02-23T08:33:32.000Z</time>
      </trkpt>
      <trkpt lat="45.63904" lon="6.66321">
        <ele>2132.3999023438</ele>
        <time>2012-02-23T08:33:35.000Z</time>
      </trkpt>
      <trkpt lat="45.63907" lon="6.6632">
        <ele>2132.3999023438</ele>
        <time>2012-02-23T08:33:40.000Z</time>
      </trkpt>
      <trkpt lat="45.63911" lon="6.6632">
        <ele>2132.6000976562</ele>
        <time>2012-02-23T08:33:45.000Z</time>
      </trkpt>
      <trkpt lat="45.63913" lon="6.66318">
        <ele>2132.6000976562</ele>
        <time>2012-02-23T08:33:50.000Z</time>
      </trkpt>
      <trkpt lat="45.6392" lon="6.6632">
        <ele>2132.1999511719</ele>
        <time>2012-02-23T08:33:56.000Z</time>
      </trkpt>
      <trkpt lat="45.63925" lon="6.66323">
        <ele>2132.3999023438</ele>
        <time>2012-02-23T08:34:01.000Z</time>
      </trkpt>
      <trkpt lat="45.63929" lon="6.66325">
        <ele>2133.1999511719</ele>
        <time>2012-02-23T08:34:06.000Z</time>
      </trkpt>
      <trkpt lat="45.63934" lon="6.66326">
        <ele>2135.3999023438</ele>
        <time>2012-02-23T08:34:14.000Z</time>
      </trkpt>
      <trkpt lat="45.6394" lon="6.66325">
        <ele>2137</ele>
        <time>2012-02-23T08:34:22.000Z</time>
      </trkpt>
      <trkpt lat="45.63944" lon="6.66327">
        <ele>2137.3999023438</ele>
        <time>2012-02-23T08:34:29.000Z</time>
      </trkpt>
      <trkpt lat="45.63947" lon="6.66326">
        <ele>2138.8000488281</ele>
        <time>2012-02-23T08:34:34.000Z</time>
      </trkpt>
      <trkpt lat="45.6396" lon="6.6633">
        <ele>2140.8000488281</ele>
        <time>2012-02-23T08:34:50.000Z</time>
      </trkpt>
      <trkpt lat="45.63964" lon="6.6633">
        <ele>2139.8000488281</ele>
        <time>2012-02-23T08:34:57.000Z</time>
      </trkpt>
      <trkpt lat="45.63969" lon="6.66328">
        <ele>2142.3999023438</ele>
        <time>2012-02-23T08:35:05.000Z</time>
      </trkpt>
      <trkpt lat="45.63977" lon="6.66327">
        <ele>2142.3999023438</ele>
        <time>2012-02-23T08:35:14.000Z</time>
      </trkpt>
      <trkpt lat="45.6398" lon="6.66326">
        <ele>2144.6000976562</ele>
        <time>2012-02-23T08:35:19.000Z</time>
      </trkpt>
      <trkpt lat="45.63985" lon="6.66324">
        <ele>2144.1999511719</ele>
        <time>2012-02-23T08:35:26.000Z</time>
      </trkpt>
      <trkpt lat="45.63992" lon="6.66325">
        <ele>2144.3999023438</ele>
        <time>2012-02-23T08:35:36.000Z</time>
      </trkpt>
      <trkpt lat="45.64007" lon="6.66334">
        <ele>2149</ele>
        <time>2012-02-23T08:36:04.000Z</time>
      </trkpt>
      <trkpt lat="45.64011" lon="6.66337">
        <ele>2150.8000488281</ele>
        <time>2012-02-23T08:36:09.000Z</time>
      </trkpt>
      <trkpt lat="45.64015" lon="6.66342">
        <ele>2149.8000488281</ele>
        <time>2012-02-23T08:36:13.000Z</time>
      </trkpt>
      <trkpt lat="45.64017" lon="6.66337">
        <ele>2151.8000488281</ele>
        <time>2012-02-23T08:36:19.000Z</time>
      </trkpt>
      <trkpt lat="45.64017" lon="6.66332">
        <ele>2151.3999023438</ele>
        <time>2012-02-23T08:36:24.000Z</time>
      </trkpt>
      <trkpt lat="45.64024" lon="6.66332">
        <ele>2152.3999023438</ele>
        <time>2012-02-23T08:36:31.000Z</time>
      </trkpt>
      <trkpt lat="45.64031" lon="6.66334">
        <ele>2154.3999023438</ele>
        <time>2012-02-23T08:36:43.000Z</time>
      </trkpt>
      <trkpt lat="45.64033" lon="6.66328">
        <ele>2155.3999023438</ele>
        <time>2012-02-23T08:36:50.000Z</time>
      </trkpt>
      <trkpt lat="45.64035" lon="6.66325">
        <ele>2156.3999023438</ele>
        <time>2012-02-23T08:36:56.000Z</time>
      </trkpt>
      <trkpt lat="45.64041" lon="6.66329">
        <ele>2156.1999511719</ele>
        <time>2012-02-23T08:37:16.000Z</time>
      </trkpt>
      <trkpt lat="45.64047" lon="6.66327">
        <ele>2158.1999511719</ele>
        <time>2012-02-23T08:37:23.000Z</time>
      </trkpt>
      <trkpt lat="45.64049" lon="6.66326">
        <ele>2158.6000976562</ele>
        <time>2012-02-23T08:37:28.000Z</time>
      </trkpt>
      <trkpt lat="45.64055" lon="6.66326">
        <ele>2160.3999023438</ele>
        <time>2012-02-23T08:37:34.000Z</time>
      </trkpt>
      <trkpt lat="45.64056" lon="6.66332">
        <ele>2158.6000976562</ele>
        <time>2012-02-23T08:37:40.000Z</time>
      </trkpt>
      <trkpt lat="45.64059" lon="6.66335">
        <ele>2161.1999511719</ele>
        <time>2012-02-23T08:37:46.000Z</time>
      </trkpt>
      <trkpt lat="45.6406" lon="6.66337">
        <ele>2161.3999023438</ele>
        <time>2012-02-23T08:37:47.000Z</time>
      </trkpt>
      <trkpt lat="45.64064" lon="6.66334">
        <ele>2160.8000488281</ele>
        <time>2012-02-23T08:37:54.000Z</time>
      </trkpt>
      <trkpt lat="45.64076" lon="6.66333">
        <ele>2164.8000488281</ele>
        <time>2012-02-23T08:38:14.000Z</time>
      </trkpt>
      <trkpt lat="45.64079" lon="6.66335">
        <ele>2164.1999511719</ele>
        <time>2012-02-23T08:38:21.000Z</time>
      </trkpt>
      <trkpt lat="45.6408" lon="6.66333">
        <ele>2164</ele>
        <time>2012-02-23T08:38:24.000Z</time>
      </trkpt>
      <trkpt lat="45.64081" lon="6.6633">
        <ele>2164.1999511719</ele>
        <time>2012-02-23T08:38:26.000Z</time>
      </trkpt>
      <trkpt lat="45.64084" lon="6.66327">
        <ele>2166.8000488281</ele>
        <time>2012-02-23T08:38:33.000Z</time>
      </trkpt>
      <trkpt lat="45.64088" lon="6.66329">
        <ele>2166</ele>
        <time>2012-02-23T08:38:38.000Z</time>
      </trkpt>
      <trkpt lat="45.64092" lon="6.66331">
        <ele>2166.8000488281</ele>
        <time>2012-02-23T08:38:44.000Z</time>
      </trkpt>
      <trkpt lat="45.64093" lon="6.6633">
        <ele>2167.3999023438</ele>
        <time>2012-02-23T08:38:45.000Z</time>
      </trkpt>
      <trkpt lat="45.64097" lon="6.66331">
        <ele>2168.1999511719</ele>
        <time>2012-02-23T08:38:52.000Z</time>
      </trkpt>
      <trkpt lat="45.64098" lon="6.66328">
        <ele>2169.1999511719</ele>
        <time>2012-02-23T08:38:55.000Z</time>
      </trkpt>
      <trkpt lat="45.64102" lon="6.66334">
        <ele>2170</ele>
        <time>2012-02-23T08:39:01.000Z</time>
      </trkpt>
      <trkpt lat="45.64112" lon="6.66336">
        <ele>2170.8000488281</ele>
        <time>2012-02-23T08:39:12.000Z</time>
      </trkpt>
      <trkpt lat="45.64115" lon="6.66333">
        <ele>2172.3999023438</ele>
        <time>2012-02-23T08:39:18.000Z</time>
      </trkpt>
      <trkpt lat="45.64118" lon="6.66327">
        <ele>2172.8000488281</ele>
        <time>2012-02-23T08:39:24.000Z</time>
      </trkpt>
      <trkpt lat="45.6412" lon="6.66326">
        <ele>2174.3999023438</ele>
        <time>2012-02-23T08:39:27.000Z</time>
      </trkpt>
      <trkpt lat="45.64125" lon="6.66323">
        <ele>2174.3999023438</ele>
        <time>2012-02-23T08:39:38.000Z</time>
      </trkpt>
      <trkpt lat="45.64127" lon="6.66319">
        <ele>2176.6000976562</ele>
        <time>2012-02-23T08:39:43.000Z</time>
      </trkpt>
      <trkpt lat="45.64134" lon="6.66317">
        <ele>2178.8000488281</ele>
        <time>2012-02-23T08:39:58.000Z</time>
      </trkpt>
      <trkpt lat="45.64137" lon="6.66318">
        <ele>2180.1999511719</ele>
        <time>2012-02-23T08:40:04.000Z</time>
      </trkpt>
      <trkpt lat="45.6414" lon="6.66319">
        <ele>2180.8000488281</ele>
        <time>2012-02-23T08:40:08.000Z</time>
      </trkpt>
      <trkpt lat="45.64144" lon="6.66318">
        <ele>2181.3999023438</ele>
        <time>2012-02-23T08:40:16.000Z</time>
      </trkpt>
      <trkpt lat="45.64151" lon="6.66317">
        <ele>2183.8000488281</ele>
        <time>2012-02-23T08:40:26.000Z</time>
      </trkpt>
      <trkpt lat="45.64161" lon="6.6632">
        <ele>2188.8000488281</ele>
        <time>2012-02-23T08:40:51.000Z</time>
      </trkpt>
      <trkpt lat="45.64162" lon="6.66317">
        <ele>2187.6000976562</ele>
        <time>2012-02-23T08:40:55.000Z</time>
      </trkpt>
      <trkpt lat="45.64164" lon="6.66316">
        <ele>2188.3999023438</ele>
        <time>2012-02-23T08:41:01.000Z</time>
      </trkpt>
      <trkpt lat="45.64168" lon="6.66313">
        <ele>2191</ele>
        <time>2012-02-23T08:41:07.000Z</time>
      </trkpt>
      <trkpt lat="45.6417" lon="6.66307">
        <ele>2192.6000976562</ele>
        <time>2012-02-23T08:41:12.000Z</time>
      </trkpt>
      <trkpt lat="45.64172" lon="6.66303">
        <ele>2192</ele>
        <time>2012-02-23T08:41:18.000Z</time>
      </trkpt>
      <trkpt lat="45.64175" lon="6.66298">
        <ele>2193.3999023438</ele>
        <time>2012-02-23T08:41:25.000Z</time>
      </trkpt>
      <trkpt lat="45.64181" lon="6.66304">
        <ele>2195.3999023438</ele>
        <time>2012-02-23T08:41:37.000Z</time>
      </trkpt>
      <trkpt lat="45.64183" lon="6.66308">
        <ele>2195</ele>
        <time>2012-02-23T08:41:42.000Z</time>
      </trkpt>
      <trkpt lat="45.64184" lon="6.66311">
        <ele>2197</ele>
        <time>2012-02-23T08:41:47.000Z</time>
      </trkpt>
      <trkpt lat="45.64187" lon="6.66318">
        <ele>2197.8000488281</ele>
        <time>2012-02-23T08:41:56.000Z</time>
      </trkpt>
      <trkpt lat="45.64189" lon="6.66324">
        <ele>2198.3999023438</ele>
        <time>2012-02-23T08:42:02.000Z</time>
      </trkpt>
      <trkpt lat="45.6419" lon="6.66327">
        <ele>2199</ele>
        <time>2012-02-23T08:42:07.000Z</time>
      </trkpt>
      <trkpt lat="45.6419" lon="6.66331">
        <ele>2201</ele>
        <time>2012-02-23T08:42:13.000Z</time>
      </trkpt>
      <trkpt lat="45.64193" lon="6.66336">
        <ele>2201.6000976562</ele>
        <time>2012-02-23T08:42:20.000Z</time>
      </trkpt>
      <trkpt lat="45.64194" lon="6.66336">
        <ele>2202.3999023438</ele>
        <time>2012-02-23T08:42:21.000Z</time>
      </trkpt>
      <trkpt lat="45.64201" lon="6.66333">
        <ele>2202.1999511719</ele>
        <time>2012-02-23T08:42:27.000Z</time>
      </trkpt>
      <trkpt lat="45.64205" lon="6.66331">
        <ele>2203.3999023438</ele>
        <time>2012-02-23T08:42:32.000Z</time>
      </trkpt>
      <trkpt lat="45.64207" lon="6.6633">
        <ele>2204.1999511719</ele>
        <time>2012-02-23T08:42:34.000Z</time>
      </trkpt>
      <trkpt lat="45.64208" lon="6.6633">
        <ele>2205.1999511719</ele>
        <time>2012-02-23T08:42:36.000Z</time>
      </trkpt>
      <trkpt lat="45.64214" lon="6.6633">
        <ele>2205.6000976562</ele>
        <time>2012-02-23T08:42:46.000Z</time>
      </trkpt>
      <trkpt lat="45.64216" lon="6.66333">
        <ele>2205.6000976562</ele>
        <time>2012-02-23T08:42:52.000Z</time>
      </trkpt>
      <trkpt lat="45.64218" lon="6.66336">
        <ele>2206.8000488281</ele>
        <time>2012-02-23T08:42:57.000Z</time>
      </trkpt>
      <trkpt lat="45.64222" lon="6.66338">
        <ele>2208.8000488281</ele>
        <time>2012-02-23T08:43:03.000Z</time>
      </trkpt>
      <trkpt lat="45.64224" lon="6.6634">
        <ele>2207.8000488281</ele>
        <time>2012-02-23T08:43:07.000Z</time>
      </trkpt>
      <trkpt lat="45.64228" lon="6.6634">
        <ele>2209.1999511719</ele>
        <time>2012-02-23T08:43:13.000Z</time>
      </trkpt>
      <trkpt lat="45.64231" lon="6.66343">
        <ele>2210.1999511719</ele>
        <time>2012-02-23T08:43:18.000Z</time>
      </trkpt>
      <trkpt lat="45.64234" lon="6.66344">
        <ele>2211.3999023438</ele>
        <time>2012-02-23T08:43:25.000Z</time>
      </trkpt>
      <trkpt lat="45.64238" lon="6.66346">
        <ele>2214.3999023438</ele>
        <time>2012-02-23T08:43:36.000Z</time>
      </trkpt>
      <trkpt lat="45.64238" lon="6.66345">
        <ele>2214.8000488281</ele>
        <time>2012-02-23T08:43:37.000Z</time>
      </trkpt>
      <trkpt lat="45.6424" lon="6.6634">
        <ele>2215.1999511719</ele>
        <time>2012-02-23T08:43:46.000Z</time>
      </trkpt>
      <trkpt lat="45.64243" lon="6.66339">
        <ele>2216.8000488281</ele>
        <time>2012-02-23T08:43:51.000Z</time>
      </trkpt>
      <trkpt lat="45.64241" lon="6.66347">
        <ele>2215.8000488281</ele>
        <time>2012-02-23T08:44:03.000Z</time>
      </trkpt>
      <trkpt lat="45.64239" lon="6.6635">
        <ele>2215.6000976562</ele>
        <time>2012-02-23T08:44:19.000Z</time>
      </trkpt>
      <trkpt lat="45.64243" lon="6.66351">
        <ele>2215.8000488281</ele>
        <time>2012-02-23T08:45:26.000Z</time>
      </trkpt>
      <trkpt lat="45.64244" lon="6.66351">
        <ele>2215.8000488281</ele>
        <time>2012-02-23T08:45:33.000Z</time>
      </trkpt>
      <trkpt lat="45.6424" lon="6.66349">
        <ele>2216</ele>
        <time>2012-02-23T08:46:28.000Z</time>
      </trkpt>
      <trkpt lat="45.64242" lon="6.66346">
        <ele>2215.6000976562</ele>
        <time>2012-02-23T08:46:38.000Z</time>
      </trkpt>
      <trkpt lat="45.64245" lon="6.66332">
        <ele>2215.3999023438</ele>
        <time>2012-02-23T08:47:01.000Z</time>
      </trkpt>
      <trkpt lat="45.64239" lon="6.66324">
        <ele>2215</ele>
        <time>2012-02-23T08:47:21.000Z</time>
      </trkpt>
      <trkpt lat="45.64237" lon="6.66321">
        <ele>2215</ele>
        <time>2012-02-23T08:47:29.000Z</time>
      </trkpt>
      <trkpt lat="45.64239" lon="6.66323">
        <ele>2215</ele>
        <time>2012-02-23T08:47:37.000Z</time>
      </trkpt>
      <trkpt lat="45.64245" lon="6.66326">
        <ele>2216.3999023438</ele>
        <time>2012-02-23T08:48:24.000Z</time>
      </trkpt>
      <trkpt lat="45.64248" lon="6.66327">
        <ele>2218.3999023438</ele>
        <time>2012-02-23T08:48:35.000Z</time>
      </trkpt>
      <trkpt lat="45.64253" lon="6.66328">
        <ele>2219.3999023438</ele>
        <time>2012-02-23T08:48:41.000Z</time>
      </trkpt>
      <trkpt lat="45.64256" lon="6.66326">
        <ele>2219.6000976562</ele>
        <time>2012-02-23T08:48:47.000Z</time>
      </trkpt>
      <trkpt lat="45.64261" lon="6.66325">
        <ele>2220.3999023438</ele>
        <time>2012-02-23T08:48:54.000Z</time>
      </trkpt>
      <trkpt lat="45.64263" lon="6.66326">
        <ele>2219.8000488281</ele>
        <time>2012-02-23T08:49:00.000Z</time>
      </trkpt>
      <trkpt lat="45.64269" lon="6.66319">
        <ele>2221.8000488281</ele>
        <time>2012-02-23T08:49:15.000Z</time>
      </trkpt>
      <trkpt lat="45.64273" lon="6.66319">
        <ele>2221.8000488281</ele>
        <time>2012-02-23T08:49:21.000Z</time>
      </trkpt>
      <trkpt lat="45.64277" lon="6.66321">
        <ele>2223.8000488281</ele>
        <time>2012-02-23T08:49:29.000Z</time>
      </trkpt>
      <trkpt lat="45.64282" lon="6.66322">
        <ele>2225.8000488281</ele>
        <time>2012-02-23T08:49:40.000Z</time>
      </trkpt>
      <trkpt lat="45.64283" lon="6.6632">
        <ele>2227.6000976562</ele>
        <time>2012-02-23T08:49:44.000Z</time>
      </trkpt>
      <trkpt lat="45.64287" lon="6.66321">
        <ele>2227.6000976562</ele>
        <time>2012-02-23T08:49:50.000Z</time>
      </trkpt>
      <trkpt lat="45.64293" lon="6.66322">
        <ele>2228.3999023438</ele>
        <time>2012-02-23T08:49:57.000Z</time>
      </trkpt>
      <trkpt lat="45.643" lon="6.66322">
        <ele>2228.6000976562</ele>
        <time>2012-02-23T08:50:07.000Z</time>
      </trkpt>
      <trkpt lat="45.64303" lon="6.66323">
        <ele>2230.8000488281</ele>
        <time>2012-02-23T08:50:15.000Z</time>
      </trkpt>
      <trkpt lat="45.64308" lon="6.66322">
        <ele>2232.6000976562</ele>
        <time>2012-02-23T08:50:22.000Z</time>
      </trkpt>
      <trkpt lat="45.64314" lon="6.66319">
        <ele>2233</ele>
        <time>2012-02-23T08:50:31.000Z</time>
      </trkpt>
      <trkpt lat="45.64315" lon="6.66319">
        <ele>2233</ele>
        <time>2012-02-23T08:50:38.000Z</time>
      </trkpt>
      <trkpt lat="45.64317" lon="6.66317">
        <ele>2234.1999511719</ele>
        <time>2012-02-23T08:50:41.000Z</time>
      </trkpt>
      <trkpt lat="45.64319" lon="6.66317">
        <ele>2235.3999023438</ele>
        <time>2012-02-23T08:50:43.000Z</time>
      </trkpt>
      <trkpt lat="45.64324" lon="6.66315">
        <ele>2236</ele>
        <time>2012-02-23T08:50:53.000Z</time>
      </trkpt>
      <trkpt lat="45.64332" lon="6.66312">
        <ele>2237</ele>
        <time>2012-02-23T08:51:02.000Z</time>
      </trkpt>
      <trkpt lat="45.64338" lon="6.66309">
        <ele>2236</ele>
        <time>2012-02-23T08:51:12.000Z</time>
      </trkpt>
      <trkpt lat="45.64345" lon="6.66306">
        <ele>2236.8000488281</ele>
        <time>2012-02-23T08:51:21.000Z</time>
      </trkpt>
      <trkpt lat="45.64351" lon="6.66304">
        <ele>2237.1999511719</ele>
        <time>2012-02-23T08:51:30.000Z</time>
      </trkpt>
      <trkpt lat="45.64355" lon="6.66303">
        <ele>2239</ele>
        <time>2012-02-23T08:51:35.000Z</time>
      </trkpt>
      <trkpt lat="45.6436" lon="6.66301">
        <ele>2238.1999511719</ele>
        <time>2012-02-23T08:51:43.000Z</time>
      </trkpt>
      <trkpt lat="45.64367" lon="6.66299">
        <ele>2242</ele>
        <time>2012-02-23T08:51:53.000Z</time>
      </trkpt>
      <trkpt lat="45.64374" lon="6.66298">
        <ele>2240.8000488281</ele>
        <time>2012-02-23T08:52:02.000Z</time>
      </trkpt>
      <trkpt lat="45.64381" lon="6.66296">
        <ele>2243</ele>
        <time>2012-02-23T08:52:12.000Z</time>
      </trkpt>
      <trkpt lat="45.64388" lon="6.66294">
        <ele>2242.3999023438</ele>
        <time>2012-02-23T08:52:23.000Z</time>
      </trkpt>
      <trkpt lat="45.64394" lon="6.66293">
        <ele>2244.1999511719</ele>
        <time>2012-02-23T08:52:31.000Z</time>
      </trkpt>
      <trkpt lat="45.64402" lon="6.66292">
        <ele>2244.6000976562</ele>
        <time>2012-02-23T08:52:41.000Z</time>
      </trkpt>
      <trkpt lat="45.64408" lon="6.66291">
        <ele>2244.6000976562</ele>
        <time>2012-02-23T08:52:50.000Z</time>
      </trkpt>
      <trkpt lat="45.64413" lon="6.6629">
        <ele>2245.1999511719</ele>
        <time>2012-02-23T08:52:59.000Z</time>
      </trkpt>
      <trkpt lat="45.6442" lon="6.66288">
        <ele>2245.6000976562</ele>
        <time>2012-02-23T08:53:09.000Z</time>
      </trkpt>
      <trkpt lat="45.64427" lon="6.66285">
        <ele>2247.3999023438</ele>
        <time>2012-02-23T08:53:18.000Z</time>
      </trkpt>
      <trkpt lat="45.64434" lon="6.66285">
        <ele>2249.1999511719</ele>
        <time>2012-02-23T08:53:28.000Z</time>
      </trkpt>
      <trkpt lat="45.64441" lon="6.66284">
        <ele>2250.1999511719</ele>
        <time>2012-02-23T08:53:39.000Z</time>
      </trkpt>
      <trkpt lat="45.64447" lon="6.66281">
        <ele>2252.3999023438</ele>
        <time>2012-02-23T08:53:49.000Z</time>
      </trkpt>
      <trkpt lat="45.64452" lon="6.66279">
        <ele>2252.8000488281</ele>
        <time>2012-02-23T08:53:59.000Z</time>
      </trkpt>
      <trkpt lat="45.64458" lon="6.66277">
        <ele>2254.6000976562</ele>
        <time>2012-02-23T08:54:08.000Z</time>
      </trkpt>
      <trkpt lat="45.64463" lon="6.66276">
        <ele>2254.1999511719</ele>
        <time>2012-02-23T08:54:16.000Z</time>
      </trkpt>
      <trkpt lat="45.64467" lon="6.66276">
        <ele>2255.3999023438</ele>
        <time>2012-02-23T08:54:22.000Z</time>
      </trkpt>
      <trkpt lat="45.64471" lon="6.66275">
        <ele>2256.1999511719</ele>
        <time>2012-02-23T08:54:28.000Z</time>
      </trkpt>
      <trkpt lat="45.64477" lon="6.66274">
        <ele>2258.8000488281</ele>
        <time>2012-02-23T08:54:37.000Z</time>
      </trkpt>
      <trkpt lat="45.64479" lon="6.66274">
        <ele>2258.1999511719</ele>
        <time>2012-02-23T08:54:42.000Z</time>
      </trkpt>
      <trkpt lat="45.64483" lon="6.66272">
        <ele>2258</ele>
        <time>2012-02-23T08:54:46.000Z</time>
      </trkpt>
      <trkpt lat="45.64488" lon="6.66272">
        <ele>2261.3999023438</ele>
        <time>2012-02-23T08:54:53.000Z</time>
      </trkpt>
      <trkpt lat="45.64491" lon="6.66272">
        <ele>2261.1999511719</ele>
        <time>2012-02-23T08:54:58.000Z</time>
      </trkpt>
      <trkpt lat="45.64496" lon="6.6627">
        <ele>2260.1999511719</ele>
        <time>2012-02-23T08:55:06.000Z</time>
      </trkpt>
      <trkpt lat="45.64502" lon="6.6627">
        <ele>2260.6000976562</ele>
        <time>2012-02-23T08:55:15.000Z</time>
      </trkpt>
      <trkpt lat="45.64508" lon="6.66268">
        <ele>2263.6000976562</ele>
        <time>2012-02-23T08:55:24.000Z</time>
      </trkpt>
      <trkpt lat="45.6451" lon="6.66268">
        <ele>2264.1999511719</ele>
        <time>2012-02-23T08:55:26.000Z</time>
      </trkpt>
      <trkpt lat="45.64516" lon="6.66264">
        <ele>2265.6000976562</ele>
        <time>2012-02-23T08:55:32.000Z</time>
      </trkpt>
      <trkpt lat="45.6452" lon="6.66267">
        <ele>2267</ele>
        <time>2012-02-23T08:55:39.000Z</time>
      </trkpt>
      <trkpt lat="45.64526" lon="6.66266">
        <ele>2267.1999511719</ele>
        <time>2012-02-23T08:55:48.000Z</time>
      </trkpt>
      <trkpt lat="45.64532" lon="6.66267">
        <ele>2266.6000976562</ele>
        <time>2012-02-23T08:55:57.000Z</time>
      </trkpt>
      <trkpt lat="45.64537" lon="6.66268">
        <ele>2268.1999511719</ele>
        <time>2012-02-23T08:56:05.000Z</time>
      </trkpt>
      <trkpt lat="45.6454" lon="6.66268">
        <ele>2269</ele>
        <time>2012-02-23T08:56:10.000Z</time>
      </trkpt>
      <trkpt lat="45.64544" lon="6.66269">
        <ele>2270.6000976562</ele>
        <time>2012-02-23T08:56:16.000Z</time>
      </trkpt>
      <trkpt lat="45.64546" lon="6.6627">
        <ele>2271.1999511719</ele>
        <time>2012-02-23T08:56:20.000Z</time>
      </trkpt>
      <trkpt lat="45.64549" lon="6.6627">
        <ele>2271.3999023438</ele>
        <time>2012-02-23T08:56:24.000Z</time>
      </trkpt>
      <trkpt lat="45.64551" lon="6.6627">
        <ele>2270.1999511719</ele>
        <time>2012-02-23T08:56:28.000Z</time>
      </trkpt>
      <trkpt lat="45.64553" lon="6.66276">
        <ele>2272.1999511719</ele>
        <time>2012-02-23T08:56:39.000Z</time>
      </trkpt>
      <trkpt lat="45.64557" lon="6.66278">
        <ele>2272.3999023438</ele>
        <time>2012-02-23T08:56:45.000Z</time>
      </trkpt>
      <trkpt lat="45.64558" lon="6.66283">
        <ele>2273.8000488281</ele>
        <time>2012-02-23T08:56:49.000Z</time>
      </trkpt>
      <trkpt lat="45.64558" lon="6.66284">
        <ele>2274</ele>
        <time>2012-02-23T08:56:50.000Z</time>
      </trkpt>
      <trkpt lat="45.64563" lon="6.66285">
        <ele>2273.3999023438</ele>
        <time>2012-02-23T08:56:57.000Z</time>
      </trkpt>
      <trkpt lat="45.64571" lon="6.66282">
        <ele>2275</ele>
        <time>2012-02-23T08:57:06.000Z</time>
      </trkpt>
      <trkpt lat="45.64574" lon="6.66287">
        <ele>2277</ele>
        <time>2012-02-23T08:57:15.000Z</time>
      </trkpt>
      <trkpt lat="45.64581" lon="6.66292">
        <ele>2281</ele>
        <time>2012-02-23T08:57:30.000Z</time>
      </trkpt>
      <trkpt lat="45.64585" lon="6.66296">
        <ele>2282.1999511719</ele>
        <time>2012-02-23T08:57:39.000Z</time>
      </trkpt>
      <trkpt lat="45.64588" lon="6.663">
        <ele>2282.6000976562</ele>
        <time>2012-02-23T08:57:46.000Z</time>
      </trkpt>
      <trkpt lat="45.64593" lon="6.663">
        <ele>2282.3999023438</ele>
        <time>2012-02-23T08:57:53.000Z</time>
      </trkpt>
      <trkpt lat="45.64597" lon="6.66297">
        <ele>2283.3999023438</ele>
        <time>2012-02-23T08:57:57.000Z</time>
      </trkpt>
      <trkpt lat="45.64599" lon="6.66302">
        <ele>2285.1999511719</ele>
        <time>2012-02-23T08:58:04.000Z</time>
      </trkpt>
      <trkpt lat="45.64599" lon="6.66306">
        <ele>2284.8000488281</ele>
        <time>2012-02-23T08:58:08.000Z</time>
      </trkpt>
      <trkpt lat="45.646" lon="6.66313">
        <ele>2286</ele>
        <time>2012-02-23T08:58:14.000Z</time>
      </trkpt>
      <trkpt lat="45.64601" lon="6.6632">
        <ele>2287</ele>
        <time>2012-02-23T08:58:19.000Z</time>
      </trkpt>
      <trkpt lat="45.64602" lon="6.66323">
        <ele>2287</ele>
        <time>2012-02-23T08:58:23.000Z</time>
      </trkpt>
      <trkpt lat="45.64604" lon="6.66326">
        <ele>2288.3999023438</ele>
        <time>2012-02-23T08:58:28.000Z</time>
      </trkpt>
      <trkpt lat="45.64608" lon="6.66327">
        <ele>2289.3999023438</ele>
        <time>2012-02-23T08:58:34.000Z</time>
      </trkpt>
      <trkpt lat="45.6461" lon="6.66328">
        <ele>2289</ele>
        <time>2012-02-23T08:58:39.000Z</time>
      </trkpt>
      <trkpt lat="45.64607" lon="6.66337">
        <ele>2290.3999023438</ele>
        <time>2012-02-23T08:58:50.000Z</time>
      </trkpt>
      <trkpt lat="45.64601" lon="6.66353">
        <ele>2291</ele>
        <time>2012-02-23T08:59:10.000Z</time>
      </trkpt>
      <trkpt lat="45.646" lon="6.66355">
        <ele>2291.8000488281</ele>
        <time>2012-02-23T08:59:15.000Z</time>
      </trkpt>
      <trkpt lat="45.64599" lon="6.66358">
        <ele>2292.3999023438</ele>
        <time>2012-02-23T08:59:20.000Z</time>
      </trkpt>
      <trkpt lat="45.64598" lon="6.66363">
        <ele>2293.8000488281</ele>
        <time>2012-02-23T08:59:27.000Z</time>
      </trkpt>
      <trkpt lat="45.64601" lon="6.66363">
        <ele>2294.3999023438</ele>
        <time>2012-02-23T08:59:33.000Z</time>
      </trkpt>
      <trkpt lat="45.6461" lon="6.66355">
        <ele>2296</ele>
        <time>2012-02-23T08:59:41.000Z</time>
      </trkpt>
      <trkpt lat="45.64617" lon="6.66351">
        <ele>2296.8000488281</ele>
        <time>2012-02-23T08:59:49.000Z</time>
      </trkpt>
      <trkpt lat="45.64622" lon="6.66351">
        <ele>2297.8000488281</ele>
        <time>2012-02-23T08:59:56.000Z</time>
      </trkpt>
      <trkpt lat="45.64627" lon="6.66349">
        <ele>2298.1999511719</ele>
        <time>2012-02-23T09:00:03.000Z</time>
      </trkpt>
      <trkpt lat="45.64626" lon="6.66353">
        <ele>2299.3999023438</ele>
        <time>2012-02-23T09:00:09.000Z</time>
      </trkpt>
      <trkpt lat="45.64624" lon="6.66358">
        <ele>2300.6000976562</ele>
        <time>2012-02-23T09:00:16.000Z</time>
      </trkpt>
      <trkpt lat="45.64624" lon="6.66361">
        <ele>2301</ele>
        <time>2012-02-23T09:00:19.000Z</time>
      </trkpt>
      <trkpt lat="45.64624" lon="6.66365">
        <ele>2301</ele>
        <time>2012-02-23T09:00:21.000Z</time>
      </trkpt>
      <trkpt lat="45.64624" lon="6.66371">
        <ele>2302.8000488281</ele>
        <time>2012-02-23T09:00:27.000Z</time>
      </trkpt>
      <trkpt lat="45.64626" lon="6.66377">
        <ele>2304.1999511719</ele>
        <time>2012-02-23T09:00:34.000Z</time>
      </trkpt>
      <trkpt lat="45.64631" lon="6.66374">
        <ele>2307</ele>
        <time>2012-02-23T09:00:41.000Z</time>
      </trkpt>
      <trkpt lat="45.64632" lon="6.66373">
        <ele>2307.1999511719</ele>
        <time>2012-02-23T09:00:42.000Z</time>
      </trkpt>
      <trkpt lat="45.64638" lon="6.66369">
        <ele>2305.8000488281</ele>
        <time>2012-02-23T09:00:51.000Z</time>
      </trkpt>
      <trkpt lat="45.64643" lon="6.66369">
        <ele>2307.6000976562</ele>
        <time>2012-02-23T09:00:57.000Z</time>
      </trkpt>
      <trkpt lat="45.64647" lon="6.66369">
        <ele>2307.3999023438</ele>
        <time>2012-02-23T09:01:03.000Z</time>
      </trkpt>
      <trkpt lat="45.64651" lon="6.6637">
        <ele>2309.3999023438</ele>
        <time>2012-02-23T09:01:12.000Z</time>
      </trkpt>
      <trkpt lat="45.64654" lon="6.66371">
        <ele>2310.1999511719</ele>
        <time>2012-02-23T09:01:21.000Z</time>
      </trkpt>
      <trkpt lat="45.64645" lon="6.66391">
        <ele>2310.6000976562</ele>
        <time>2012-02-23T09:02:53.000Z</time>
      </trkpt>
      <trkpt lat="45.64645" lon="6.66394">
        <ele>2312</ele>
        <time>2012-02-23T09:02:59.000Z</time>
      </trkpt>
      <trkpt lat="45.64643" lon="6.66397">
        <ele>2314</ele>
        <time>2012-02-23T09:03:12.000Z</time>
      </trkpt>
      <trkpt lat="45.64642" lon="6.66398">
        <ele>2314.1999511719</ele>
        <time>2012-02-23T09:03:17.000Z</time>
      </trkpt>
      <trkpt lat="45.64644" lon="6.66399">
        <ele>2314.8000488281</ele>
        <time>2012-02-23T09:03:24.000Z</time>
      </trkpt>
      <trkpt lat="45.64651" lon="6.66393">
        <ele>2316.6000976562</ele>
        <time>2012-02-23T09:03:29.000Z</time>
      </trkpt>
      <trkpt lat="45.64656" lon="6.66386">
        <ele>2316.8000488281</ele>
        <time>2012-02-23T09:03:33.000Z</time>
      </trkpt>
      <trkpt lat="45.64662" lon="6.6638">
        <ele>2318.1999511719</ele>
        <time>2012-02-23T09:03:39.000Z</time>
      </trkpt>
      <trkpt lat="45.64668" lon="6.66374">
        <ele>2319.8000488281</ele>
        <time>2012-02-23T09:03:48.000Z</time>
      </trkpt>
      <trkpt lat="45.64671" lon="6.66371">
        <ele>2320.3999023438</ele>
        <time>2012-02-23T09:03:53.000Z</time>
      </trkpt>
      <trkpt lat="45.64667" lon="6.66379">
        <ele>2322.1999511719</ele>
        <time>2012-02-23T09:04:12.000Z</time>
      </trkpt>
      <trkpt lat="45.64664" lon="6.66387">
        <ele>2323.6000976562</ele>
        <time>2012-02-23T09:04:20.000Z</time>
      </trkpt>
      <trkpt lat="45.64661" lon="6.66397">
        <ele>2324</ele>
        <time>2012-02-23T09:04:29.000Z</time>
      </trkpt>
      <trkpt lat="45.64658" lon="6.66405">
        <ele>2325.6000976562</ele>
        <time>2012-02-23T09:04:37.000Z</time>
      </trkpt>
      <trkpt lat="45.64666" lon="6.66399">
        <ele>2326.1999511719</ele>
        <time>2012-02-23T09:04:48.000Z</time>
      </trkpt>
      <trkpt lat="45.64674" lon="6.66395">
        <ele>2327.8000488281</ele>
        <time>2012-02-23T09:04:58.000Z</time>
      </trkpt>
      <trkpt lat="45.64676" lon="6.66395">
        <ele>2328.6000976562</ele>
        <time>2012-02-23T09:05:03.000Z</time>
      </trkpt>
      <trkpt lat="45.64679" lon="6.66394">
        <ele>2329.6000976562</ele>
        <time>2012-02-23T09:05:09.000Z</time>
      </trkpt>
      <trkpt lat="45.64676" lon="6.66402">
        <ele>2331</ele>
        <time>2012-02-23T09:05:20.000Z</time>
      </trkpt>
      <trkpt lat="45.64678" lon="6.66405">
        <ele>2333</ele>
        <time>2012-02-23T09:05:29.000Z</time>
      </trkpt>
      <trkpt lat="45.64681" lon="6.66404">
        <ele>2333.1999511719</ele>
        <time>2012-02-23T09:05:35.000Z</time>
      </trkpt>
      <trkpt lat="45.64685" lon="6.66404">
        <ele>2334.8000488281</ele>
        <time>2012-02-23T09:05:42.000Z</time>
      </trkpt>
      <trkpt lat="45.64686" lon="6.66409">
        <ele>2336</ele>
        <time>2012-02-23T09:05:48.000Z</time>
      </trkpt>
      <trkpt lat="45.64687" lon="6.66411">
        <ele>2336.6000976562</ele>
        <time>2012-02-23T09:05:54.000Z</time>
      </trkpt>
      <trkpt lat="45.64691" lon="6.66406">
        <ele>2337.8000488281</ele>
        <time>2012-02-23T09:06:02.000Z</time>
      </trkpt>
      <trkpt lat="45.64696" lon="6.66406">
        <ele>2338</ele>
        <time>2012-02-23T09:06:08.000Z</time>
      </trkpt>
      <trkpt lat="45.64701" lon="6.66405">
        <ele>2339.1999511719</ele>
        <time>2012-02-23T09:06:15.000Z</time>
      </trkpt>
      <trkpt lat="45.64705" lon="6.66404">
        <ele>2339.8000488281</ele>
        <time>2012-02-23T09:06:20.000Z</time>
      </trkpt>
      <trkpt lat="45.64708" lon="6.66403">
        <ele>2339.8000488281</ele>
        <time>2012-02-23T09:06:25.000Z</time>
      </trkpt>
      <trkpt lat="45.64711" lon="6.66402">
        <ele>2341</ele>
        <time>2012-02-23T09:06:30.000Z</time>
      </trkpt>
      <trkpt lat="45.64715" lon="6.66399">
        <ele>2342.1999511719</ele>
        <time>2012-02-23T09:06:38.000Z</time>
      </trkpt>
      <trkpt lat="45.64719" lon="6.66397">
        <ele>2343.8000488281</ele>
        <time>2012-02-23T09:06:45.000Z</time>
      </trkpt>
      <trkpt lat="45.64721" lon="6.66396">
        <ele>2345</ele>
        <time>2012-02-23T09:06:50.000Z</time>
      </trkpt>
      <trkpt lat="45.64723" lon="6.66395">
        <ele>2346.3999023438</ele>
        <time>2012-02-23T09:06:53.000Z</time>
      </trkpt>
      <trkpt lat="45.64726" lon="6.66393">
        <ele>2346.8000488281</ele>
        <time>2012-02-23T09:07:00.000Z</time>
      </trkpt>
      <trkpt lat="45.64729" lon="6.66391">
        <ele>2347.6000976562</ele>
        <time>2012-02-23T09:07:05.000Z</time>
      </trkpt>
      <trkpt lat="45.64732" lon="6.6639">
        <ele>2348.6000976562</ele>
        <time>2012-02-23T09:07:12.000Z</time>
      </trkpt>
      <trkpt lat="45.64735" lon="6.66389">
        <ele>2349.1999511719</ele>
        <time>2012-02-23T09:07:22.000Z</time>
      </trkpt>
      <trkpt lat="45.64735" lon="6.66394">
        <ele>2350.8000488281</ele>
        <time>2012-02-23T09:07:30.000Z</time>
      </trkpt>
      <trkpt lat="45.64735" lon="6.66402">
        <ele>2351.1999511719</ele>
        <time>2012-02-23T09:07:39.000Z</time>
      </trkpt>
      <trkpt lat="45.64735" lon="6.66408">
        <ele>2352.3999023438</ele>
        <time>2012-02-23T09:07:45.000Z</time>
      </trkpt>
      <trkpt lat="45.64735" lon="6.66413">
        <ele>2353.1999511719</ele>
        <time>2012-02-23T09:07:51.000Z</time>
      </trkpt>
      <trkpt lat="45.64736" lon="6.66416">
        <ele>2353.8000488281</ele>
        <time>2012-02-23T09:07:56.000Z</time>
      </trkpt>
      <trkpt lat="45.64737" lon="6.66417">
        <ele>2354.8000488281</ele>
        <time>2012-02-23T09:08:02.000Z</time>
      </trkpt>
      <trkpt lat="45.64738" lon="6.66419">
        <ele>2355.6000976562</ele>
        <time>2012-02-23T09:08:08.000Z</time>
      </trkpt>
      <trkpt lat="45.6474" lon="6.66421">
        <ele>2356.6000976562</ele>
        <time>2012-02-23T09:08:15.000Z</time>
      </trkpt>
      <trkpt lat="45.64741" lon="6.66423">
        <ele>2357.6000976562</ele>
        <time>2012-02-23T09:08:20.000Z</time>
      </trkpt>
      <trkpt lat="45.64741" lon="6.66425">
        <ele>2358.6000976562</ele>
        <time>2012-02-23T09:08:22.000Z</time>
      </trkpt>
      <trkpt lat="45.64741" lon="6.66428">
        <ele>2358.1999511719</ele>
        <time>2012-02-23T09:08:26.000Z</time>
      </trkpt>
      <trkpt lat="45.64741" lon="6.66431">
        <ele>2359.1999511719</ele>
        <time>2012-02-23T09:08:31.000Z</time>
      </trkpt>
      <trkpt lat="45.64742" lon="6.66431">
        <ele>2359</ele>
        <time>2012-02-23T09:08:36.000Z</time>
      </trkpt>
      <trkpt lat="45.64746" lon="6.66429">
        <ele>2361</ele>
        <time>2012-02-23T09:08:43.000Z</time>
      </trkpt>
      <trkpt lat="45.64749" lon="6.66427">
        <ele>2361.3999023438</ele>
        <time>2012-02-23T09:08:49.000Z</time>
      </trkpt>
      <trkpt lat="45.6475" lon="6.66425">
        <ele>2362.1999511719</ele>
        <time>2012-02-23T09:08:51.000Z</time>
      </trkpt>
      <trkpt lat="45.64755" lon="6.66422">
        <ele>2363.1999511719</ele>
        <time>2012-02-23T09:08:59.000Z</time>
      </trkpt>
      <trkpt lat="45.64759" lon="6.66419">
        <ele>2364.1999511719</ele>
        <time>2012-02-23T09:09:06.000Z</time>
      </trkpt>
      <trkpt lat="45.64761" lon="6.66421">
        <ele>2366</ele>
        <time>2012-02-23T09:09:21.000Z</time>
      </trkpt>
      <trkpt lat="45.6476" lon="6.66427">
        <ele>2367.6000976562</ele>
        <time>2012-02-23T09:09:29.000Z</time>
      </trkpt>
      <trkpt lat="45.6476" lon="6.66433">
        <ele>2368.8000488281</ele>
        <time>2012-02-23T09:09:36.000Z</time>
      </trkpt>
      <trkpt lat="45.64761" lon="6.66441">
        <ele>2370</ele>
        <time>2012-02-23T09:09:45.000Z</time>
      </trkpt>
      <trkpt lat="45.64763" lon="6.66444">
        <ele>2371.3999023438</ele>
        <time>2012-02-23T09:09:51.000Z</time>
      </trkpt>
      <trkpt lat="45.64766" lon="6.66446">
        <ele>2372.1999511719</ele>
        <time>2012-02-23T09:09:57.000Z</time>
      </trkpt>
      <trkpt lat="45.64771" lon="6.66442">
        <ele>2371.3999023438</ele>
        <time>2012-02-23T09:10:06.000Z</time>
      </trkpt>
      <trkpt lat="45.64773" lon="6.6644">
        <ele>2372.6000976562</ele>
        <time>2012-02-23T09:10:13.000Z</time>
      </trkpt>
      <trkpt lat="45.64774" lon="6.66445">
        <ele>2373.6000976562</ele>
        <time>2012-02-23T09:10:19.000Z</time>
      </trkpt>
      <trkpt lat="45.64774" lon="6.6645">
        <ele>2375.3999023438</ele>
        <time>2012-02-23T09:10:24.000Z</time>
      </trkpt>
      <trkpt lat="45.64776" lon="6.66452">
        <ele>2377</ele>
        <time>2012-02-23T09:10:32.000Z</time>
      </trkpt>
      <trkpt lat="45.64782" lon="6.66448">
        <ele>2377</ele>
        <time>2012-02-23T09:10:40.000Z</time>
      </trkpt>
      <trkpt lat="45.64784" lon="6.66453">
        <ele>2378.8000488281</ele>
        <time>2012-02-23T09:10:46.000Z</time>
      </trkpt>
      <trkpt lat="45.64788" lon="6.66452">
        <ele>2380.3999023438</ele>
        <time>2012-02-23T09:10:54.000Z</time>
      </trkpt>
      <trkpt lat="45.64791" lon="6.6645">
        <ele>2381</ele>
        <time>2012-02-23T09:10:59.000Z</time>
      </trkpt>
      <trkpt lat="45.64796" lon="6.66447">
        <ele>2382</ele>
        <time>2012-02-23T09:11:07.000Z</time>
      </trkpt>
      <trkpt lat="45.64799" lon="6.66449">
        <ele>2383.6000976562</ele>
        <time>2012-02-23T09:11:13.000Z</time>
      </trkpt>
      <trkpt lat="45.64799" lon="6.66449">
        <ele>2383.8000488281</ele>
        <time>2012-02-23T09:11:14.000Z</time>
      </trkpt>
      <trkpt lat="45.648" lon="6.66453">
        <ele>2384.1999511719</ele>
        <time>2012-02-23T09:11:22.000Z</time>
      </trkpt>
      <trkpt lat="45.64806" lon="6.66452">
        <ele>2385.6000976562</ele>
        <time>2012-02-23T09:11:30.000Z</time>
      </trkpt>
      <trkpt lat="45.64811" lon="6.66452">
        <ele>2387</ele>
        <time>2012-02-23T09:11:39.000Z</time>
      </trkpt>
      <trkpt lat="45.64817" lon="6.66451">
        <ele>2387.8000488281</ele>
        <time>2012-02-23T09:11:49.000Z</time>
      </trkpt>
      <trkpt lat="45.64822" lon="6.66449">
        <ele>2388.1999511719</ele>
        <time>2012-02-23T09:11:57.000Z</time>
      </trkpt>
      <trkpt lat="45.64824" lon="6.66444">
        <ele>2389.3999023438</ele>
        <time>2012-02-23T09:12:06.000Z</time>
      </trkpt>
      <trkpt lat="45.64823" lon="6.66442">
        <ele>2391</ele>
        <time>2012-02-23T09:12:11.000Z</time>
      </trkpt>
      <trkpt lat="45.64824" lon="6.6644">
        <ele>2390.3999023438</ele>
        <time>2012-02-23T09:12:20.000Z</time>
      </trkpt>
      <trkpt lat="45.64827" lon="6.66435">
        <ele>2391.1999511719</ele>
        <time>2012-02-23T09:12:26.000Z</time>
      </trkpt>
      <trkpt lat="45.64827" lon="6.66431">
        <ele>2394.1999511719</ele>
        <time>2012-02-23T09:12:31.000Z</time>
      </trkpt>
      <trkpt lat="45.64829" lon="6.66422">
        <ele>2395.8000488281</ele>
        <time>2012-02-23T09:12:40.000Z</time>
      </trkpt>
      <trkpt lat="45.64831" lon="6.66415">
        <ele>2396.1999511719</ele>
        <time>2012-02-23T09:12:48.000Z</time>
      </trkpt>
      <trkpt lat="45.64835" lon="6.66406">
        <ele>2397.8000488281</ele>
        <time>2012-02-23T09:12:59.000Z</time>
      </trkpt>
      <trkpt lat="45.64839" lon="6.66399">
        <ele>2400.3999023438</ele>
        <time>2012-02-23T09:13:08.000Z</time>
      </trkpt>
      <trkpt lat="45.6484" lon="6.66394">
        <ele>2400.8000488281</ele>
        <time>2012-02-23T09:13:15.000Z</time>
      </trkpt>
      <trkpt lat="45.64838" lon="6.66391">
        <ele>2404</ele>
        <time>2012-02-23T09:13:20.000Z</time>
      </trkpt>
      <trkpt lat="45.64838" lon="6.66389">
        <ele>2405.1999511719</ele>
        <time>2012-02-23T09:13:25.000Z</time>
      </trkpt>
      <trkpt lat="45.64837" lon="6.66387">
        <ele>2406</ele>
        <time>2012-02-23T09:13:30.000Z</time>
      </trkpt>
      <trkpt lat="45.64837" lon="6.66386">
        <ele>2408.1999511719</ele>
        <time>2012-02-23T09:13:34.000Z</time>
      </trkpt>
      <trkpt lat="45.64829" lon="6.66386">
        <ele>2408.1999511719</ele>
        <time>2012-02-23T09:13:51.000Z</time>
      </trkpt>
      <trkpt lat="45.64826" lon="6.66386">
        <ele>2408.3999023438</ele>
        <time>2012-02-23T09:13:56.000Z</time>
      </trkpt>
      <trkpt lat="45.64826" lon="6.66385">
        <ele>2408</ele>
        <time>2012-02-23T09:14:01.000Z</time>
      </trkpt>
      <trkpt lat="45.64826" lon="6.66384">
        <ele>2407.8000488281</ele>
        <time>2012-02-23T09:14:08.000Z</time>
      </trkpt>
      <trkpt lat="45.64828" lon="6.66383">
        <ele>2407.3999023438</ele>
        <time>2012-02-23T09:14:15.000Z</time>
      </trkpt>
      <trkpt lat="45.64828" lon="6.66382">
        <ele>2405.8000488281</ele>
        <time>2012-02-23T09:14:19.000Z</time>
      </trkpt>
      <trkpt lat="45.64827" lon="6.66382">
        <ele>2407.6000976562</ele>
        <time>2012-02-23T09:14:21.000Z</time>
      </trkpt>
      <trkpt lat="45.64825" lon="6.66383">
        <ele>2408.1999511719</ele>
        <time>2012-02-23T09:14:26.000Z</time>
      </trkpt>
      <trkpt lat="45.64827" lon="6.66381">
        <ele>2407.3999023438</ele>
        <time>2012-02-23T09:14:32.000Z</time>
      </trkpt>
      <trkpt lat="45.64825" lon="6.66382">
        <ele>2403.1999511719</ele>
        <time>2012-02-23T09:14:53.000Z</time>
      </trkpt>
      <trkpt lat="45.64824" lon="6.66382">
        <ele>2405.6000976562</ele>
        <time>2012-02-23T09:14:56.000Z</time>
      </trkpt>
      <trkpt lat="45.64821" lon="6.66383">
        <ele>2406.3999023438</ele>
        <time>2012-02-23T09:14:59.000Z</time>
      </trkpt>
      <trkpt lat="45.6482" lon="6.66387">
        <ele>2404.6000976562</ele>
        <time>2012-02-23T09:15:03.000Z</time>
      </trkpt>
      <trkpt lat="45.64821" lon="6.66393">
        <ele>2405.3999023438</ele>
        <time>2012-02-23T09:15:08.000Z</time>
      </trkpt>
      <trkpt lat="45.64826" lon="6.66392">
        <ele>2405.8000488281</ele>
        <time>2012-02-23T09:15:14.000Z</time>
      </trkpt>
      <trkpt lat="45.64827" lon="6.66397">
        <ele>2405</ele>
        <time>2012-02-23T09:16:14.000Z</time>
      </trkpt>
      <trkpt lat="45.64829" lon="6.6641">
        <ele>2401.1999511719</ele>
        <time>2012-02-23T09:16:19.000Z</time>
      </trkpt>
      <trkpt lat="45.64833" lon="6.66425">
        <ele>2397</ele>
        <time>2012-02-23T09:16:24.000Z</time>
      </trkpt>
      <trkpt lat="45.64837" lon="6.6645">
        <ele>2391.3999023438</ele>
        <time>2012-02-23T09:16:29.000Z</time>
      </trkpt>
      <trkpt lat="45.64834" lon="6.66456">
        <ele>2389.6000976562</ele>
        <time>2012-02-23T09:16:33.000Z</time>
      </trkpt>
      <trkpt lat="45.64827" lon="6.66459">
        <ele>2389.6000976562</ele>
        <time>2012-02-23T09:16:43.000Z</time>
      </trkpt>
      <trkpt lat="45.64826" lon="6.6646">
        <ele>2389.6000976562</ele>
        <time>2012-02-23T09:16:54.000Z</time>
      </trkpt>
      <trkpt lat="45.64829" lon="6.66453">
        <ele>2389.1999511719</ele>
        <time>2012-02-23T09:17:32.000Z</time>
      </trkpt>
      <trkpt lat="45.64829" lon="6.6645">
        <ele>2389.3999023438</ele>
        <time>2012-02-23T09:18:14.000Z</time>
      </trkpt>
      <trkpt lat="45.64829" lon="6.66454">
        <ele>2387</ele>
        <time>2012-02-23T09:19:02.000Z</time>
      </trkpt>
      <trkpt lat="45.64828" lon="6.66453">
        <ele>2388</ele>
        <time>2012-02-23T09:19:04.000Z</time>
      </trkpt>
      <trkpt lat="45.64821" lon="6.66452">
        <ele>2389.8000488281</ele>
        <time>2012-02-23T09:19:13.000Z</time>
      </trkpt>
      <trkpt lat="45.6482" lon="6.66453">
        <ele>2390.1999511719</ele>
        <time>2012-02-23T09:19:33.000Z</time>
      </trkpt>
      <trkpt lat="45.64822" lon="6.66443">
        <ele>2388.8000488281</ele>
        <time>2012-02-23T09:20:05.000Z</time>
      </trkpt>
      <trkpt lat="45.64824" lon="6.66448">
        <ele>2389</ele>
        <time>2012-02-23T09:20:11.000Z</time>
      </trkpt>
      <trkpt lat="45.6483" lon="6.66461">
        <ele>2389</ele>
        <time>2012-02-23T09:20:43.000Z</time>
      </trkpt>
      <trkpt lat="45.64836" lon="6.66466">
        <ele>2388.1999511719</ele>
        <time>2012-02-23T09:20:53.000Z</time>
      </trkpt>
      <trkpt lat="45.6484" lon="6.6647">
        <ele>2387.8000488281</ele>
        <time>2012-02-23T09:21:00.000Z</time>
      </trkpt>
      <trkpt lat="45.64841" lon="6.66471">
        <ele>2388</ele>
        <time>2012-02-23T09:21:01.000Z</time>
      </trkpt>
      <trkpt lat="45.64846" lon="6.66476">
        <ele>2390</ele>
        <time>2012-02-23T09:21:10.000Z</time>
      </trkpt>
      <trkpt lat="45.6485" lon="6.66481">
        <ele>2391.1999511719</ele>
        <time>2012-02-23T09:21:18.000Z</time>
      </trkpt>
      <trkpt lat="45.64852" lon="6.66483">
        <ele>2390.8000488281</ele>
        <time>2012-02-23T09:21:26.000Z</time>
      </trkpt>
      <trkpt lat="45.64854" lon="6.66488">
        <ele>2390.8000488281</ele>
        <time>2012-02-23T09:21:42.000Z</time>
      </trkpt>
      <trkpt lat="45.64858" lon="6.66493">
        <ele>2391.1999511719</ele>
        <time>2012-02-23T09:21:49.000Z</time>
      </trkpt>
      <trkpt lat="45.64861" lon="6.66495">
        <ele>2389.8000488281</ele>
        <time>2012-02-23T09:21:55.000Z</time>
      </trkpt>
      <trkpt lat="45.6486" lon="6.66496">
        <ele>2391.6000976562</ele>
        <time>2012-02-23T09:22:08.000Z</time>
      </trkpt>
      <trkpt lat="45.64863" lon="6.66504">
        <ele>2392.3999023438</ele>
        <time>2012-02-23T09:22:16.000Z</time>
      </trkpt>
      <trkpt lat="45.64868" lon="6.66512">
        <ele>2394</ele>
        <time>2012-02-23T09:22:25.000Z</time>
      </trkpt>
      <trkpt lat="45.64872" lon="6.66517">
        <ele>2394.1999511719</ele>
        <time>2012-02-23T09:22:33.000Z</time>
      </trkpt>
      <trkpt lat="45.64876" lon="6.66521">
        <ele>2396</ele>
        <time>2012-02-23T09:22:39.000Z</time>
      </trkpt>
      <trkpt lat="45.64881" lon="6.66527">
        <ele>2395.8000488281</ele>
        <time>2012-02-23T09:22:49.000Z</time>
      </trkpt>
      <trkpt lat="45.64886" lon="6.66532">
        <ele>2398.6000976562</ele>
        <time>2012-02-23T09:22:58.000Z</time>
      </trkpt>
      <trkpt lat="45.6489" lon="6.66537">
        <ele>2397.8000488281</ele>
        <time>2012-02-23T09:23:05.000Z</time>
      </trkpt>
      <trkpt lat="45.64891" lon="6.66543">
        <ele>2399.6000976562</ele>
        <time>2012-02-23T09:23:10.000Z</time>
      </trkpt>
      <trkpt lat="45.64892" lon="6.66545">
        <ele>2400.6000976562</ele>
        <time>2012-02-23T09:23:12.000Z</time>
      </trkpt>
      <trkpt lat="45.64894" lon="6.66549">
        <ele>2399.3999023438</ele>
        <time>2012-02-23T09:23:18.000Z</time>
      </trkpt>
      <trkpt lat="45.649" lon="6.66555">
        <ele>2400.6000976562</ele>
        <time>2012-02-23T09:23:28.000Z</time>
      </trkpt>
      <trkpt lat="45.64901" lon="6.66557">
        <ele>2401.8000488281</ele>
        <time>2012-02-23T09:23:31.000Z</time>
      </trkpt>
      <trkpt lat="45.64904" lon="6.66559">
        <ele>2402.3999023438</ele>
        <time>2012-02-23T09:23:35.000Z</time>
      </trkpt>
      <trkpt lat="45.64907" lon="6.66562">
        <ele>2402.6000976562</ele>
        <time>2012-02-23T09:23:41.000Z</time>
      </trkpt>
      <trkpt lat="45.6491" lon="6.66565">
        <ele>2402.3999023438</ele>
        <time>2012-02-23T09:23:46.000Z</time>
      </trkpt>
      <trkpt lat="45.64914" lon="6.6657">
        <ele>2404</ele>
        <time>2012-02-23T09:23:54.000Z</time>
      </trkpt>
      <trkpt lat="45.64915" lon="6.66572">
        <ele>2403.1999511719</ele>
        <time>2012-02-23T09:24:00.000Z</time>
      </trkpt>
      <trkpt lat="45.64916" lon="6.66573">
        <ele>2404.1999511719</ele>
        <time>2012-02-23T09:24:16.000Z</time>
      </trkpt>
      <trkpt lat="45.64921" lon="6.66576">
        <ele>2404</ele>
        <time>2012-02-23T09:24:22.000Z</time>
      </trkpt>
      <trkpt lat="45.64929" lon="6.66586">
        <ele>2404</ele>
        <time>2012-02-23T09:24:33.000Z</time>
      </trkpt>
      <trkpt lat="45.64938" lon="6.66593">
        <ele>2404.6000976562</ele>
        <time>2012-02-23T09:24:43.000Z</time>
      </trkpt>
      <trkpt lat="45.64938" lon="6.66594">
        <ele>2405</ele>
        <time>2012-02-23T09:24:44.000Z</time>
      </trkpt>
      <trkpt lat="45.64944" lon="6.66597">
        <ele>2404.8000488281</ele>
        <time>2012-02-23T09:24:51.000Z</time>
      </trkpt>
      <trkpt lat="45.64948" lon="6.666">
        <ele>2404.8000488281</ele>
        <time>2012-02-23T09:24:55.000Z</time>
      </trkpt>
      <trkpt lat="45.64951" lon="6.66605">
        <ele>2404.8000488281</ele>
        <time>2012-02-23T09:25:00.000Z</time>
      </trkpt>
      <trkpt lat="45.64957" lon="6.66611">
        <ele>2405.1999511719</ele>
        <time>2012-02-23T09:25:08.000Z</time>
      </trkpt>
      <trkpt lat="45.64962" lon="6.66615">
        <ele>2406.8000488281</ele>
        <time>2012-02-23T09:25:16.000Z</time>
      </trkpt>
      <trkpt lat="45.64967" lon="6.6662">
        <ele>2406</ele>
        <time>2012-02-23T09:25:24.000Z</time>
      </trkpt>
      <trkpt lat="45.64968" lon="6.66621">
        <ele>2406</ele>
        <time>2012-02-23T09:25:32.000Z</time>
      </trkpt>
      <trkpt lat="45.6497" lon="6.66627">
        <ele>2407.1999511719</ele>
        <time>2012-02-23T09:26:21.000Z</time>
      </trkpt>
      <trkpt lat="45.64973" lon="6.66631">
        <ele>2407.6000976562</ele>
        <time>2012-02-23T09:27:48.000Z</time>
      </trkpt>
      <trkpt lat="45.64977" lon="6.66627">
        <ele>2407.3999023438</ele>
        <time>2012-02-23T09:28:02.000Z</time>
      </trkpt>
      <trkpt lat="45.64981" lon="6.66627">
        <ele>2408.8000488281</ele>
        <time>2012-02-23T09:28:08.000Z</time>
      </trkpt>
      <trkpt lat="45.64986" lon="6.6663">
        <ele>2409.3999023438</ele>
        <time>2012-02-23T09:28:18.000Z</time>
      </trkpt>
      <trkpt lat="45.6499" lon="6.66633">
        <ele>2410.8000488281</ele>
        <time>2012-02-23T09:28:26.000Z</time>
      </trkpt>
      <trkpt lat="45.64992" lon="6.66636">
        <ele>2411.6000976562</ele>
        <time>2012-02-23T09:28:32.000Z</time>
      </trkpt>
      <trkpt lat="45.64996" lon="6.6664">
        <ele>2413.1999511719</ele>
        <time>2012-02-23T09:28:40.000Z</time>
      </trkpt>
      <trkpt lat="45.65" lon="6.66643">
        <ele>2413.6000976562</ele>
        <time>2012-02-23T09:28:47.000Z</time>
      </trkpt>
      <trkpt lat="45.65004" lon="6.66647">
        <ele>2415.1999511719</ele>
        <time>2012-02-23T09:28:55.000Z</time>
      </trkpt>
      <trkpt lat="45.65004" lon="6.66656">
        <ele>2416.1999511719</ele>
        <time>2012-02-23T09:29:02.000Z</time>
      </trkpt>
      <trkpt lat="45.65004" lon="6.66657">
        <ele>2416</ele>
        <time>2012-02-23T09:29:10.000Z</time>
      </trkpt>
      <trkpt lat="45.65005" lon="6.66661">
        <ele>2416.3999023438</ele>
        <time>2012-02-23T09:29:28.000Z</time>
      </trkpt>
      <trkpt lat="45.6501" lon="6.66668">
        <ele>2416.6000976562</ele>
        <time>2012-02-23T09:29:36.000Z</time>
      </trkpt>
      <trkpt lat="45.65016" lon="6.66673">
        <ele>2415.8000488281</ele>
        <time>2012-02-23T09:29:44.000Z</time>
      </trkpt>
      <trkpt lat="45.65019" lon="6.66673">
        <ele>2416.6000976562</ele>
        <time>2012-02-23T09:29:52.000Z</time>
      </trkpt>
      <trkpt lat="45.65021" lon="6.66669">
        <ele>2416.3999023438</ele>
        <time>2012-02-23T09:30:05.000Z</time>
      </trkpt>
      <trkpt lat="45.65021" lon="6.66661">
        <ele>2415.8000488281</ele>
        <time>2012-02-23T09:30:13.000Z</time>
      </trkpt>
      <trkpt lat="45.65023" lon="6.66652">
        <ele>2417.8000488281</ele>
        <time>2012-02-23T09:30:20.000Z</time>
      </trkpt>
      <trkpt lat="45.65028" lon="6.66644">
        <ele>2418.3999023438</ele>
        <time>2012-02-23T09:30:30.000Z</time>
      </trkpt>
      <trkpt lat="45.65033" lon="6.66637">
        <ele>2418.6000976562</ele>
        <time>2012-02-23T09:30:39.000Z</time>
      </trkpt>
      <trkpt lat="45.65037" lon="6.66634">
        <ele>2419</ele>
        <time>2012-02-23T09:30:48.000Z</time>
      </trkpt>
      <trkpt lat="45.65043" lon="6.66629">
        <ele>2419.8000488281</ele>
        <time>2012-02-23T09:30:59.000Z</time>
      </trkpt>
      <trkpt lat="45.65047" lon="6.66623">
        <ele>2421.1999511719</ele>
        <time>2012-02-23T09:31:09.000Z</time>
      </trkpt>
      <trkpt lat="45.6505" lon="6.6662">
        <ele>2422.6000976562</ele>
        <time>2012-02-23T09:31:14.000Z</time>
      </trkpt>
      <trkpt lat="45.6505" lon="6.6662">
        <ele>2422.8000488281</ele>
        <time>2012-02-23T09:31:15.000Z</time>
      </trkpt>
      <trkpt lat="45.65055" lon="6.66617">
        <ele>2426</ele>
        <time>2012-02-23T09:31:24.000Z</time>
      </trkpt>
      <trkpt lat="45.65056" lon="6.66617">
        <ele>2426.8000488281</ele>
        <time>2012-02-23T09:31:26.000Z</time>
      </trkpt>
      <trkpt lat="45.65058" lon="6.66618">
        <ele>2427.6000976562</ele>
        <time>2012-02-23T09:31:29.000Z</time>
      </trkpt>
      <trkpt lat="45.65062" lon="6.66617">
        <ele>2427</ele>
        <time>2012-02-23T09:31:36.000Z</time>
      </trkpt>
      <trkpt lat="45.65066" lon="6.66616">
        <ele>2427.8000488281</ele>
        <time>2012-02-23T09:31:43.000Z</time>
      </trkpt>
      <trkpt lat="45.65067" lon="6.66617">
        <ele>2428.3999023438</ele>
        <time>2012-02-23T09:31:47.000Z</time>
      </trkpt>
      <trkpt lat="45.65071" lon="6.66617">
        <ele>2430</ele>
        <time>2012-02-23T09:31:52.000Z</time>
      </trkpt>
      <trkpt lat="45.65074" lon="6.66616">
        <ele>2430.6000976562</ele>
        <time>2012-02-23T09:31:57.000Z</time>
      </trkpt>
      <trkpt lat="45.65077" lon="6.66616">
        <ele>2431.6000976562</ele>
        <time>2012-02-23T09:32:04.000Z</time>
      </trkpt>
      <trkpt lat="45.65078" lon="6.66612">
        <ele>2431</ele>
        <time>2012-02-23T09:32:15.000Z</time>
      </trkpt>
      <trkpt lat="45.65079" lon="6.66613">
        <ele>2432.3999023438</ele>
        <time>2012-02-23T09:32:20.000Z</time>
      </trkpt>
      <trkpt lat="45.65083" lon="6.66622">
        <ele>2434.1999511719</ele>
        <time>2012-02-23T09:32:33.000Z</time>
      </trkpt>
      <trkpt lat="45.65083" lon="6.66626">
        <ele>2433.6000976562</ele>
        <time>2012-02-23T09:32:35.000Z</time>
      </trkpt>
      <trkpt lat="45.65085" lon="6.66631">
        <ele>2435.8000488281</ele>
        <time>2012-02-23T09:32:41.000Z</time>
      </trkpt>
      <trkpt lat="45.65084" lon="6.66634">
        <ele>2436.6000976562</ele>
        <time>2012-02-23T09:32:48.000Z</time>
      </trkpt>
      <trkpt lat="45.65084" lon="6.66636">
        <ele>2437.3999023438</ele>
        <time>2012-02-23T09:32:54.000Z</time>
      </trkpt>
      <trkpt lat="45.65084" lon="6.66637">
        <ele>2437.3999023438</ele>
        <time>2012-02-23T09:32:56.000Z</time>
      </trkpt>
      <trkpt lat="45.65086" lon="6.66645">
        <ele>2438.8000488281</ele>
        <time>2012-02-23T09:33:04.000Z</time>
      </trkpt>
      <trkpt lat="45.65086" lon="6.66652">
        <ele>2439.6000976562</ele>
        <time>2012-02-23T09:33:11.000Z</time>
      </trkpt>
      <trkpt lat="45.65087" lon="6.66654">
        <ele>2440.3999023438</ele>
        <time>2012-02-23T09:33:21.000Z</time>
      </trkpt>
      <trkpt lat="45.65088" lon="6.66654">
        <ele>2440.8000488281</ele>
        <time>2012-02-23T09:33:22.000Z</time>
      </trkpt>
      <trkpt lat="45.65098" lon="6.66657">
        <ele>2441.3999023438</ele>
        <time>2012-02-23T09:33:31.000Z</time>
      </trkpt>
      <trkpt lat="45.651" lon="6.66654">
        <ele>2444.1999511719</ele>
        <time>2012-02-23T09:33:36.000Z</time>
      </trkpt>
      <trkpt lat="45.65104" lon="6.66649">
        <ele>2443.6000976562</ele>
        <time>2012-02-23T09:33:43.000Z</time>
      </trkpt>
      <trkpt lat="45.65106" lon="6.66649">
        <ele>2443</ele>
        <time>2012-02-23T09:33:47.000Z</time>
      </trkpt>
      <trkpt lat="45.65112" lon="6.66647">
        <ele>2445.1999511719</ele>
        <time>2012-02-23T09:33:56.000Z</time>
      </trkpt>
      <trkpt lat="45.6512" lon="6.66652">
        <ele>2445.8000488281</ele>
        <time>2012-02-23T09:34:08.000Z</time>
      </trkpt>
      <trkpt lat="45.65121" lon="6.66655">
        <ele>2447.8000488281</ele>
        <time>2012-02-23T09:34:13.000Z</time>
      </trkpt>
      <trkpt lat="45.65121" lon="6.6666">
        <ele>2447.8000488281</ele>
        <time>2012-02-23T09:34:19.000Z</time>
      </trkpt>
      <trkpt lat="45.65121" lon="6.66663">
        <ele>2449</ele>
        <time>2012-02-23T09:34:22.000Z</time>
      </trkpt>
      <trkpt lat="45.65122" lon="6.66666">
        <ele>2449.6000976562</ele>
        <time>2012-02-23T09:34:27.000Z</time>
      </trkpt>
      <trkpt lat="45.65123" lon="6.66668">
        <ele>2450.1999511719</ele>
        <time>2012-02-23T09:34:32.000Z</time>
      </trkpt>
      <trkpt lat="45.65122" lon="6.6667">
        <ele>2450</ele>
        <time>2012-02-23T09:34:41.000Z</time>
      </trkpt>
      <trkpt lat="45.65124" lon="6.66685">
        <ele>2449.3999023438</ele>
        <time>2012-02-23T09:34:51.000Z</time>
      </trkpt>
      <trkpt lat="45.65125" lon="6.66689">
        <ele>2450.1999511719</ele>
        <time>2012-02-23T09:35:00.000Z</time>
      </trkpt>
      <trkpt lat="45.65128" lon="6.66691">
        <ele>2449.8000488281</ele>
        <time>2012-02-23T09:35:05.000Z</time>
      </trkpt>
      <trkpt lat="45.6513" lon="6.66697">
        <ele>2451.6000976562</ele>
        <time>2012-02-23T09:35:12.000Z</time>
      </trkpt>
      <trkpt lat="45.65131" lon="6.66703">
        <ele>2452</ele>
        <time>2012-02-23T09:35:20.000Z</time>
      </trkpt>
      <trkpt lat="45.65133" lon="6.66709">
        <ele>2453.3999023438</ele>
        <time>2012-02-23T09:35:28.000Z</time>
      </trkpt>
      <trkpt lat="45.65135" lon="6.66714">
        <ele>2453.3999023438</ele>
        <time>2012-02-23T09:35:35.000Z</time>
      </trkpt>
      <trkpt lat="45.65136" lon="6.66717">
        <ele>2454.8000488281</ele>
        <time>2012-02-23T09:35:40.000Z</time>
      </trkpt>
      <trkpt lat="45.65136" lon="6.6672">
        <ele>2456</ele>
        <time>2012-02-23T09:35:46.000Z</time>
      </trkpt>
      <trkpt lat="45.65136" lon="6.66724">
        <ele>2456.1999511719</ele>
        <time>2012-02-23T09:35:50.000Z</time>
      </trkpt>
      <trkpt lat="45.65136" lon="6.66728">
        <ele>2455.6000976562</ele>
        <time>2012-02-23T09:35:57.000Z</time>
      </trkpt>
      <trkpt lat="45.65137" lon="6.66729">
        <ele>2455.1999511719</ele>
        <time>2012-02-23T09:35:58.000Z</time>
      </trkpt>
      <trkpt lat="45.65136" lon="6.66736">
        <ele>2457.3999023438</ele>
        <time>2012-02-23T09:36:05.000Z</time>
      </trkpt>
      <trkpt lat="45.65136" lon="6.66739">
        <ele>2457.1999511719</ele>
        <time>2012-02-23T09:36:09.000Z</time>
      </trkpt>
      <trkpt lat="45.65134" lon="6.66746">
        <ele>2460</ele>
        <time>2012-02-23T09:36:16.000Z</time>
      </trkpt>
      <trkpt lat="45.65134" lon="6.66751">
        <ele>2460.6000976562</ele>
        <time>2012-02-23T09:36:22.000Z</time>
      </trkpt>
      <trkpt lat="45.65134" lon="6.66757">
        <ele>2461</ele>
        <time>2012-02-23T09:36:28.000Z</time>
      </trkpt>
      <trkpt lat="45.65133" lon="6.66762">
        <ele>2461.1999511719</ele>
        <time>2012-02-23T09:36:34.000Z</time>
      </trkpt>
      <trkpt lat="45.65131" lon="6.66766">
        <ele>2461.6000976562</ele>
        <time>2012-02-23T09:36:38.000Z</time>
      </trkpt>
      <trkpt lat="45.6513" lon="6.66772">
        <ele>2461</ele>
        <time>2012-02-23T09:36:43.000Z</time>
      </trkpt>
      <trkpt lat="45.65129" lon="6.6678">
        <ele>2461.6000976562</ele>
        <time>2012-02-23T09:36:50.000Z</time>
      </trkpt>
      <trkpt lat="45.65128" lon="6.66784">
        <ele>2461.8000488281</ele>
        <time>2012-02-23T09:36:54.000Z</time>
      </trkpt>
      <trkpt lat="45.65126" lon="6.66788">
        <ele>2463.6000976562</ele>
        <time>2012-02-23T09:36:58.000Z</time>
      </trkpt>
      <trkpt lat="45.65124" lon="6.66791">
        <ele>2463.3999023438</ele>
        <time>2012-02-23T09:37:02.000Z</time>
      </trkpt>
      <trkpt lat="45.65121" lon="6.66796">
        <ele>2462.1999511719</ele>
        <time>2012-02-23T09:37:08.000Z</time>
      </trkpt>
      <trkpt lat="45.65118" lon="6.66802">
        <ele>2463.3999023438</ele>
        <time>2012-02-23T09:37:15.000Z</time>
      </trkpt>
      <trkpt lat="45.65117" lon="6.66803">
        <ele>2463.6000976562</ele>
        <time>2012-02-23T09:37:16.000Z</time>
      </trkpt>
      <trkpt lat="45.65114" lon="6.66807">
        <ele>2465.1999511719</ele>
        <time>2012-02-23T09:37:21.000Z</time>
      </trkpt>
      <trkpt lat="45.65111" lon="6.66811">
        <ele>2466</ele>
        <time>2012-02-23T09:37:26.000Z</time>
      </trkpt>
      <trkpt lat="45.65108" lon="6.66815">
        <ele>2466.6000976562</ele>
        <time>2012-02-23T09:37:32.000Z</time>
      </trkpt>
      <trkpt lat="45.65105" lon="6.66819">
        <ele>2467.6000976562</ele>
        <time>2012-02-23T09:37:38.000Z</time>
      </trkpt>
      <trkpt lat="45.65104" lon="6.66824">
        <ele>2468.3999023438</ele>
        <time>2012-02-23T09:37:43.000Z</time>
      </trkpt>
      <trkpt lat="45.65103" lon="6.66829">
        <ele>2469</ele>
        <time>2012-02-23T09:37:49.000Z</time>
      </trkpt>
      <trkpt lat="45.651" lon="6.66833">
        <ele>2470.1999511719</ele>
        <time>2012-02-23T09:37:55.000Z</time>
      </trkpt>
      <trkpt lat="45.65099" lon="6.66836">
        <ele>2470.8000488281</ele>
        <time>2012-02-23T09:37:59.000Z</time>
      </trkpt>
      <trkpt lat="45.65095" lon="6.66843">
        <ele>2472</ele>
        <time>2012-02-23T09:38:06.000Z</time>
      </trkpt>
      <trkpt lat="45.65095" lon="6.66847">
        <ele>2473.6000976562</ele>
        <time>2012-02-23T09:38:13.000Z</time>
      </trkpt>
      <trkpt lat="45.65096" lon="6.66853">
        <ele>2475</ele>
        <time>2012-02-23T09:38:19.000Z</time>
      </trkpt>
      <trkpt lat="45.65096" lon="6.66856">
        <ele>2476.8000488281</ele>
        <time>2012-02-23T09:38:23.000Z</time>
      </trkpt>
      <trkpt lat="45.651" lon="6.66859">
        <ele>2477.6000976562</ele>
        <time>2012-02-23T09:38:30.000Z</time>
      </trkpt>
      <trkpt lat="45.65104" lon="6.66859">
        <ele>2477.3999023438</ele>
        <time>2012-02-23T09:38:35.000Z</time>
      </trkpt>
      <trkpt lat="45.65112" lon="6.66861">
        <ele>2480</ele>
        <time>2012-02-23T09:38:43.000Z</time>
      </trkpt>
      <trkpt lat="45.65117" lon="6.6686">
        <ele>2479.3999023438</ele>
        <time>2012-02-23T09:38:49.000Z</time>
      </trkpt>
      <trkpt lat="45.65124" lon="6.6686">
        <ele>2481.1999511719</ele>
        <time>2012-02-23T09:38:57.000Z</time>
      </trkpt>
      <trkpt lat="45.6513" lon="6.66862">
        <ele>2483.3999023438</ele>
        <time>2012-02-23T09:39:03.000Z</time>
      </trkpt>
      <trkpt lat="45.6513" lon="6.66862">
        <ele>2483.1999511719</ele>
        <time>2012-02-23T09:39:04.000Z</time>
      </trkpt>
      <trkpt lat="45.65134" lon="6.66862">
        <ele>2481.6000976562</ele>
        <time>2012-02-23T09:39:11.000Z</time>
      </trkpt>
      <trkpt lat="45.65138" lon="6.66861">
        <ele>2485.3999023438</ele>
        <time>2012-02-23T09:39:17.000Z</time>
      </trkpt>
      <trkpt lat="45.65142" lon="6.6686">
        <ele>2486.8000488281</ele>
        <time>2012-02-23T09:39:24.000Z</time>
      </trkpt>
      <trkpt lat="45.65148" lon="6.66859">
        <ele>2485.8000488281</ele>
        <time>2012-02-23T09:39:35.000Z</time>
      </trkpt>
      <trkpt lat="45.65152" lon="6.66859">
        <ele>2486.6000976562</ele>
        <time>2012-02-23T09:39:43.000Z</time>
      </trkpt>
      <trkpt lat="45.65157" lon="6.6686">
        <ele>2488</ele>
        <time>2012-02-23T09:39:55.000Z</time>
      </trkpt>
      <trkpt lat="45.65161" lon="6.66864">
        <ele>2488.3999023438</ele>
        <time>2012-02-23T09:40:04.000Z</time>
      </trkpt>
      <trkpt lat="45.65163" lon="6.66869">
        <ele>2490.3999023438</ele>
        <time>2012-02-23T09:40:10.000Z</time>
      </trkpt>
      <trkpt lat="45.65166" lon="6.66874">
        <ele>2492.1999511719</ele>
        <time>2012-02-23T09:40:19.000Z</time>
      </trkpt>
      <trkpt lat="45.6517" lon="6.66879">
        <ele>2493.1999511719</ele>
        <time>2012-02-23T09:40:27.000Z</time>
      </trkpt>
      <trkpt lat="45.65173" lon="6.6688">
        <ele>2494.1999511719</ele>
        <time>2012-02-23T09:40:33.000Z</time>
      </trkpt>
      <trkpt lat="45.65177" lon="6.66882">
        <ele>2496.1999511719</ele>
        <time>2012-02-23T09:40:41.000Z</time>
      </trkpt>
      <trkpt lat="45.65178" lon="6.66886">
        <ele>2496.6000976562</ele>
        <time>2012-02-23T09:40:47.000Z</time>
      </trkpt>
      <trkpt lat="45.65178" lon="6.66891">
        <ele>2498.1999511719</ele>
        <time>2012-02-23T09:40:54.000Z</time>
      </trkpt>
      <trkpt lat="45.65178" lon="6.66895">
        <ele>2498.1999511719</ele>
        <time>2012-02-23T09:40:59.000Z</time>
      </trkpt>
      <trkpt lat="45.65179" lon="6.66898">
        <ele>2499.6000976562</ele>
        <time>2012-02-23T09:41:06.000Z</time>
      </trkpt>
      <trkpt lat="45.65182" lon="6.66898">
        <ele>2502.3999023438</ele>
        <time>2012-02-23T09:41:13.000Z</time>
      </trkpt>
      <trkpt lat="45.65186" lon="6.66897">
        <ele>2503.6000976562</ele>
        <time>2012-02-23T09:41:20.000Z</time>
      </trkpt>
      <trkpt lat="45.65192" lon="6.66895">
        <ele>2505</ele>
        <time>2012-02-23T09:41:30.000Z</time>
      </trkpt>
      <trkpt lat="45.65195" lon="6.66895">
        <ele>2504.6000976562</ele>
        <time>2012-02-23T09:41:35.000Z</time>
      </trkpt>
      <trkpt lat="45.65199" lon="6.66896">
        <ele>2506.3999023438</ele>
        <time>2012-02-23T09:41:44.000Z</time>
      </trkpt>
      <trkpt lat="45.65201" lon="6.66903">
        <ele>2507</ele>
        <time>2012-02-23T09:41:52.000Z</time>
      </trkpt>
      <trkpt lat="45.65204" lon="6.6691">
        <ele>2512</ele>
        <time>2012-02-23T09:42:00.000Z</time>
      </trkpt>
      <trkpt lat="45.65207" lon="6.66913">
        <ele>2513.6000976562</ele>
        <time>2012-02-23T09:42:05.000Z</time>
      </trkpt>
      <trkpt lat="45.65211" lon="6.66918">
        <ele>2513.6000976562</ele>
        <time>2012-02-23T09:42:13.000Z</time>
      </trkpt>
      <trkpt lat="45.65211" lon="6.66919">
        <ele>2513.1999511719</ele>
        <time>2012-02-23T09:42:14.000Z</time>
      </trkpt>
      <trkpt lat="45.65213" lon="6.66921">
        <ele>2511.8000488281</ele>
        <time>2012-02-23T09:42:22.000Z</time>
      </trkpt>
      <trkpt lat="45.65217" lon="6.66928">
        <ele>2510.8000488281</ele>
        <time>2012-02-23T09:42:30.000Z</time>
      </trkpt>
      <trkpt lat="45.65222" lon="6.66937">
        <ele>2511.1999511719</ele>
        <time>2012-02-23T09:42:40.000Z</time>
      </trkpt>
      <trkpt lat="45.65226" lon="6.66945">
        <ele>2510.8000488281</ele>
        <time>2012-02-23T09:42:48.000Z</time>
      </trkpt>
      <trkpt lat="45.65231" lon="6.66953">
        <ele>2509</ele>
        <time>2012-02-23T09:42:56.000Z</time>
      </trkpt>
      <trkpt lat="45.65235" lon="6.66962">
        <ele>2508</ele>
        <time>2012-02-23T09:43:03.000Z</time>
      </trkpt>
      <trkpt lat="45.6524" lon="6.66971">
        <ele>2506.6000976562</ele>
        <time>2012-02-23T09:43:10.000Z</time>
      </trkpt>
      <trkpt lat="45.65241" lon="6.66973">
        <ele>2504.6000976562</ele>
        <time>2012-02-23T09:43:16.000Z</time>
      </trkpt>
      <trkpt lat="45.65244" lon="6.6698">
        <ele>2504</ele>
        <time>2012-02-23T09:43:27.000Z</time>
      </trkpt>
      <trkpt lat="45.65252" lon="6.66991">
        <ele>2502.1999511719</ele>
        <time>2012-02-23T09:43:36.000Z</time>
      </trkpt>
      <trkpt lat="45.65255" lon="6.66995">
        <ele>2500.1999511719</ele>
        <time>2012-02-23T09:43:39.000Z</time>
      </trkpt>
      <trkpt lat="45.65262" lon="6.67006">
        <ele>2499.1999511719</ele>
        <time>2012-02-23T09:43:47.000Z</time>
      </trkpt>
      <trkpt lat="45.65269" lon="6.67014">
        <ele>2497.1999511719</ele>
        <time>2012-02-23T09:43:55.000Z</time>
      </trkpt>
      <trkpt lat="45.65274" lon="6.6702">
        <ele>2496</ele>
        <time>2012-02-23T09:44:03.000Z</time>
      </trkpt>
      <trkpt lat="45.6527" lon="6.67026">
        <ele>2495.8000488281</ele>
        <time>2012-02-23T09:44:11.000Z</time>
      </trkpt>
      <trkpt lat="45.65269" lon="6.67028">
        <ele>2496</ele>
        <time>2012-02-23T09:44:13.000Z</time>
      </trkpt>
      <trkpt lat="45.65264" lon="6.67035">
        <ele>2495.6000976562</ele>
        <time>2012-02-23T09:44:20.000Z</time>
      </trkpt>
      <trkpt lat="45.65263" lon="6.67037">
        <ele>2496</ele>
        <time>2012-02-23T09:44:22.000Z</time>
      </trkpt>
      <trkpt lat="45.65262" lon="6.67041">
        <ele>2495.1999511719</ele>
        <time>2012-02-23T09:44:25.000Z</time>
      </trkpt>
      <trkpt lat="45.65259" lon="6.67046">
        <ele>2496.1999511719</ele>
        <time>2012-02-23T09:44:33.000Z</time>
      </trkpt>
      <trkpt lat="45.65259" lon="6.67044">
        <ele>2496.8000488281</ele>
        <time>2012-02-23T09:44:38.000Z</time>
      </trkpt>
      <trkpt lat="45.65264" lon="6.67038">
        <ele>2495.6000976562</ele>
        <time>2012-02-23T09:44:45.000Z</time>
      </trkpt>
      <trkpt lat="45.65267" lon="6.67033">
        <ele>2495.8000488281</ele>
        <time>2012-02-23T09:44:53.000Z</time>
      </trkpt>
      <trkpt lat="45.65269" lon="6.6703">
        <ele>2497</ele>
        <time>2012-02-23T09:45:00.000Z</time>
      </trkpt>
      <trkpt lat="45.65269" lon="6.67027">
        <ele>2493.8000488281</ele>
        <time>2012-02-23T09:45:24.000Z</time>
      </trkpt>
      <trkpt lat="45.65269" lon="6.67028">
        <ele>2495.3999023438</ele>
        <time>2012-02-23T09:45:52.000Z</time>
      </trkpt>
      <trkpt lat="45.6527" lon="6.67027">
        <ele>2495.8000488281</ele>
        <time>2012-02-23T09:46:50.000Z</time>
      </trkpt>
      <trkpt lat="45.65269" lon="6.67025">
        <ele>2495.8000488281</ele>
        <time>2012-02-23T09:47:01.000Z</time>
      </trkpt>
      <trkpt lat="45.6527" lon="6.67025">
        <ele>2495.1999511719</ele>
        <time>2012-02-23T09:52:08.000Z</time>
      </trkpt>
      <trkpt lat="45.65271" lon="6.67027">
        <ele>2495</ele>
        <time>2012-02-23T09:53:11.000Z</time>
      </trkpt>
      <trkpt lat="45.66176" lon="6.68443">
        <ele>2190.8000488281</ele>
        <time>2012-02-23T10:31:57.000Z</time>
      </trkpt>
      <trkpt lat="45.66176" lon="6.68443">
        <ele>2190.8000488281</ele>
        <time>2012-02-23T10:31:58.000Z</time>
      </trkpt>
      <trkpt lat="45.66177" lon="6.68443">
        <ele>2191</ele>
        <time>2012-02-23T10:32:31.000Z</time>
      </trkpt>
      <trkpt lat="45.66178" lon="6.68442">
        <ele>2190.6000976562</ele>
        <time>2012-02-23T10:32:39.000Z</time>
      </trkpt>
      <trkpt lat="45.66173" lon="6.68444">
        <ele>2187.1999511719</ele>
        <time>2012-02-23T10:35:05.000Z</time>
      </trkpt>
      <trkpt lat="45.66175" lon="6.68441">
        <ele>2189.6000976562</ele>
        <time>2012-02-23T10:35:08.000Z</time>
      </trkpt>
      <trkpt lat="45.66176" lon="6.68439">
        <ele>2192.3999023438</ele>
        <time>2012-02-23T10:35:12.000Z</time>
      </trkpt>
      <trkpt lat="45.66175" lon="6.68438">
        <ele>2190</ele>
        <time>2012-02-23T10:35:16.000Z</time>
      </trkpt>
      <trkpt lat="45.66176" lon="6.68445">
        <ele>2191</ele>
        <time>2012-02-23T10:38:02.000Z</time>
      </trkpt>
      <trkpt lat="45.66179" lon="6.68443">
        <ele>2192.8000488281</ele>
        <time>2012-02-23T10:38:36.000Z</time>
      </trkpt>
      <trkpt lat="45.66177" lon="6.68441">
        <ele>2191.3999023438</ele>
        <time>2012-02-23T10:38:41.000Z</time>
      </trkpt>
      <trkpt lat="45.66171" lon="6.68439">
        <ele>2191.6000976562</ele>
        <time>2012-02-23T10:39:01.000Z</time>
      </trkpt>
      <trkpt lat="45.66168" lon="6.68438">
        <ele>2191</ele>
        <time>2012-02-23T10:39:05.000Z</time>
      </trkpt>
      <trkpt lat="45.66164" lon="6.68435">
        <ele>2191.3999023438</ele>
        <time>2012-02-23T10:39:14.000Z</time>
      </trkpt>
      <trkpt lat="45.66159" lon="6.68432">
        <ele>2192</ele>
        <time>2012-02-23T10:39:23.000Z</time>
      </trkpt>
      <trkpt lat="45.66154" lon="6.6843">
        <ele>2192.6000976562</ele>
        <time>2012-02-23T10:39:32.000Z</time>
      </trkpt>
      <trkpt lat="45.6615" lon="6.68425">
        <ele>2193.6000976562</ele>
        <time>2012-02-23T10:40:03.000Z</time>
      </trkpt>
      <trkpt lat="45.66144" lon="6.68416">
        <ele>2193.1999511719</ele>
        <time>2012-02-23T10:40:13.000Z</time>
      </trkpt>
      <trkpt lat="45.66138" lon="6.68408">
        <ele>2194</ele>
        <time>2012-02-23T10:40:22.000Z</time>
      </trkpt>
      <trkpt lat="45.66134" lon="6.68403">
        <ele>2194.1999511719</ele>
        <time>2012-02-23T10:40:30.000Z</time>
      </trkpt>
      <trkpt lat="45.66129" lon="6.68397">
        <ele>2196.8000488281</ele>
        <time>2012-02-23T10:40:38.000Z</time>
      </trkpt>
      <trkpt lat="45.66126" lon="6.68393">
        <ele>2196.8000488281</ele>
        <time>2012-02-23T10:40:44.000Z</time>
      </trkpt>
      <trkpt lat="45.66122" lon="6.68387">
        <ele>2195.1999511719</ele>
        <time>2012-02-23T10:40:51.000Z</time>
      </trkpt>
      <trkpt lat="45.66121" lon="6.68383">
        <ele>2196.8000488281</ele>
        <time>2012-02-23T10:40:56.000Z</time>
      </trkpt>
      <trkpt lat="45.6612" lon="6.68377">
        <ele>2198.8000488281</ele>
        <time>2012-02-23T10:41:02.000Z</time>
      </trkpt>
      <trkpt lat="45.6612" lon="6.68372">
        <ele>2197.8000488281</ele>
        <time>2012-02-23T10:41:08.000Z</time>
      </trkpt>
      <trkpt lat="45.66115" lon="6.68365">
        <ele>2200</ele>
        <time>2012-02-23T10:41:14.000Z</time>
      </trkpt>
      <trkpt lat="45.66113" lon="6.68358">
        <ele>2201.8000488281</ele>
        <time>2012-02-23T10:41:23.000Z</time>
      </trkpt>
      <trkpt lat="45.6611" lon="6.68352">
        <ele>2202.1999511719</ele>
        <time>2012-02-23T10:41:31.000Z</time>
      </trkpt>
      <trkpt lat="45.66107" lon="6.68343">
        <ele>2203.6000976562</ele>
        <time>2012-02-23T10:41:40.000Z</time>
      </trkpt>
      <trkpt lat="45.66102" lon="6.68333">
        <ele>2203.1999511719</ele>
        <time>2012-02-23T10:41:50.000Z</time>
      </trkpt>
      <trkpt lat="45.66099" lon="6.68325">
        <ele>2202.6000976562</ele>
        <time>2012-02-23T10:41:58.000Z</time>
      </trkpt>
      <trkpt lat="45.66097" lon="6.68317">
        <ele>2205.6000976562</ele>
        <time>2012-02-23T10:42:07.000Z</time>
      </trkpt>
      <trkpt lat="45.66095" lon="6.68313">
        <ele>2205.1999511719</ele>
        <time>2012-02-23T10:42:13.000Z</time>
      </trkpt>
      <trkpt lat="45.66091" lon="6.68304">
        <ele>2206.1999511719</ele>
        <time>2012-02-23T10:42:23.000Z</time>
      </trkpt>
      <trkpt lat="45.66089" lon="6.68295">
        <ele>2207</ele>
        <time>2012-02-23T10:42:33.000Z</time>
      </trkpt>
      <trkpt lat="45.66085" lon="6.68287">
        <ele>2207.6000976562</ele>
        <time>2012-02-23T10:42:45.000Z</time>
      </trkpt>
      <trkpt lat="45.6608" lon="6.68276">
        <ele>2207.6000976562</ele>
        <time>2012-02-23T10:42:58.000Z</time>
      </trkpt>
      <trkpt lat="45.66075" lon="6.68267">
        <ele>2208.1999511719</ele>
        <time>2012-02-23T10:43:08.000Z</time>
      </trkpt>
      <trkpt lat="45.66071" lon="6.68261">
        <ele>2208.3999023438</ele>
        <time>2012-02-23T10:43:16.000Z</time>
      </trkpt>
      <trkpt lat="45.66067" lon="6.68253">
        <ele>2211</ele>
        <time>2012-02-23T10:43:26.000Z</time>
      </trkpt>
      <trkpt lat="45.66064" lon="6.6825">
        <ele>2211.1999511719</ele>
        <time>2012-02-23T10:43:31.000Z</time>
      </trkpt>
      <trkpt lat="45.66061" lon="6.68244">
        <ele>2210.3999023438</ele>
        <time>2012-02-23T10:43:38.000Z</time>
      </trkpt>
      <trkpt lat="45.66055" lon="6.68238">
        <ele>2212.3999023438</ele>
        <time>2012-02-23T10:43:48.000Z</time>
      </trkpt>
      <trkpt lat="45.66053" lon="6.68236">
        <ele>2212.8000488281</ele>
        <time>2012-02-23T10:43:53.000Z</time>
      </trkpt>
      <trkpt lat="45.6605" lon="6.68233">
        <ele>2214.3999023438</ele>
        <time>2012-02-23T10:43:59.000Z</time>
      </trkpt>
      <trkpt lat="45.66045" lon="6.68226">
        <ele>2213.1999511719</ele>
        <time>2012-02-23T10:44:06.000Z</time>
      </trkpt>
      <trkpt lat="45.66042" lon="6.68221">
        <ele>2213.8000488281</ele>
        <time>2012-02-23T10:44:13.000Z</time>
      </trkpt>
      <trkpt lat="45.66039" lon="6.68212">
        <ele>2214.6000976562</ele>
        <time>2012-02-23T10:44:22.000Z</time>
      </trkpt>
      <trkpt lat="45.66036" lon="6.68206">
        <ele>2216.3999023438</ele>
        <time>2012-02-23T10:44:29.000Z</time>
      </trkpt>
      <trkpt lat="45.66034" lon="6.68202">
        <ele>2216.1999511719</ele>
        <time>2012-02-23T10:44:35.000Z</time>
      </trkpt>
      <trkpt lat="45.66029" lon="6.6819">
        <ele>2216.1999511719</ele>
        <time>2012-02-23T10:44:46.000Z</time>
      </trkpt>
      <trkpt lat="45.66024" lon="6.6818">
        <ele>2218</ele>
        <time>2012-02-23T10:44:56.000Z</time>
      </trkpt>
      <trkpt lat="45.66019" lon="6.68173">
        <ele>2220.1999511719</ele>
        <time>2012-02-23T10:45:05.000Z</time>
      </trkpt>
      <trkpt lat="45.66015" lon="6.68164">
        <ele>2221</ele>
        <time>2012-02-23T10:45:13.000Z</time>
      </trkpt>
      <trkpt lat="45.66014" lon="6.68162">
        <ele>2221.3999023438</ele>
        <time>2012-02-23T10:45:17.000Z</time>
      </trkpt>
      <trkpt lat="45.66011" lon="6.68157">
        <ele>2221.1999511719</ele>
        <time>2012-02-23T10:45:23.000Z</time>
      </trkpt>
      <trkpt lat="45.66008" lon="6.68152">
        <ele>2221.6000976562</ele>
        <time>2012-02-23T10:45:29.000Z</time>
      </trkpt>
      <trkpt lat="45.66005" lon="6.68149">
        <ele>2222.6000976562</ele>
        <time>2012-02-23T10:45:35.000Z</time>
      </trkpt>
      <trkpt lat="45.66001" lon="6.68141">
        <ele>2221.8000488281</ele>
        <time>2012-02-23T10:45:44.000Z</time>
      </trkpt>
      <trkpt lat="45.65998" lon="6.68132">
        <ele>2222.6000976562</ele>
        <time>2012-02-23T10:45:54.000Z</time>
      </trkpt>
      <trkpt lat="45.65994" lon="6.6812">
        <ele>2222.6000976562</ele>
        <time>2012-02-23T10:46:05.000Z</time>
      </trkpt>
      <trkpt lat="45.65989" lon="6.6811">
        <ele>2222.8000488281</ele>
        <time>2012-02-23T10:46:15.000Z</time>
      </trkpt>
      <trkpt lat="45.65986" lon="6.68099">
        <ele>2224.6000976562</ele>
        <time>2012-02-23T10:46:24.000Z</time>
      </trkpt>
      <trkpt lat="45.65983" lon="6.68089">
        <ele>2225</ele>
        <time>2012-02-23T10:46:33.000Z</time>
      </trkpt>
      <trkpt lat="45.6598" lon="6.68079">
        <ele>2224.8000488281</ele>
        <time>2012-02-23T10:46:44.000Z</time>
      </trkpt>
      <trkpt lat="45.65978" lon="6.68074">
        <ele>2226.6000976562</ele>
        <time>2012-02-23T10:46:50.000Z</time>
      </trkpt>
      <trkpt lat="45.65975" lon="6.68065">
        <ele>2225.6000976562</ele>
        <time>2012-02-23T10:47:00.000Z</time>
      </trkpt>
      <trkpt lat="45.6597" lon="6.68056">
        <ele>2227</ele>
        <time>2012-02-23T10:47:11.000Z</time>
      </trkpt>
      <trkpt lat="45.65966" lon="6.68051">
        <ele>2227.1999511719</ele>
        <time>2012-02-23T10:47:17.000Z</time>
      </trkpt>
      <trkpt lat="45.6596" lon="6.68043">
        <ele>2228.3999023438</ele>
        <time>2012-02-23T10:47:27.000Z</time>
      </trkpt>
      <trkpt lat="45.65957" lon="6.68037">
        <ele>2229</ele>
        <time>2012-02-23T10:47:35.000Z</time>
      </trkpt>
      <trkpt lat="45.65952" lon="6.68031">
        <ele>2229.8000488281</ele>
        <time>2012-02-23T10:47:43.000Z</time>
      </trkpt>
      <trkpt lat="45.65951" lon="6.6803">
        <ele>2230</ele>
        <time>2012-02-23T10:47:44.000Z</time>
      </trkpt>
      <trkpt lat="45.65949" lon="6.68025">
        <ele>2230</ele>
        <time>2012-02-23T10:47:51.000Z</time>
      </trkpt>
      <trkpt lat="45.65946" lon="6.68019">
        <ele>2229.6000976562</ele>
        <time>2012-02-23T10:47:57.000Z</time>
      </trkpt>
      <trkpt lat="45.65942" lon="6.68015">
        <ele>2230.8000488281</ele>
        <time>2012-02-23T10:48:05.000Z</time>
      </trkpt>
      <trkpt lat="45.6594" lon="6.68013">
        <ele>2231.6000976562</ele>
        <time>2012-02-23T10:48:10.000Z</time>
      </trkpt>
      <trkpt lat="45.65934" lon="6.68007">
        <ele>2232.8000488281</ele>
        <time>2012-02-23T10:48:20.000Z</time>
      </trkpt>
      <trkpt lat="45.65932" lon="6.68006">
        <ele>2231.1999511719</ele>
        <time>2012-02-23T10:48:24.000Z</time>
      </trkpt>
      <trkpt lat="45.65924" lon="6.68002">
        <ele>2231.6000976562</ele>
        <time>2012-02-23T10:48:34.000Z</time>
      </trkpt>
      <trkpt lat="45.6592" lon="6.68003">
        <ele>2232.8000488281</ele>
        <time>2012-02-23T10:48:39.000Z</time>
      </trkpt>
      <trkpt lat="45.65915" lon="6.68008">
        <ele>2233.1999511719</ele>
        <time>2012-02-23T10:48:48.000Z</time>
      </trkpt>
      <trkpt lat="45.65914" lon="6.6801">
        <ele>2232</ele>
        <time>2012-02-23T10:48:55.000Z</time>
      </trkpt>
      <trkpt lat="45.65912" lon="6.68014">
        <ele>2232.3999023438</ele>
        <time>2012-02-23T10:49:02.000Z</time>
      </trkpt>
      <trkpt lat="45.65908" lon="6.68023">
        <ele>2231.1999511719</ele>
        <time>2012-02-23T10:49:12.000Z</time>
      </trkpt>
      <trkpt lat="45.65908" lon="6.68024">
        <ele>2231</ele>
        <time>2012-02-23T10:49:13.000Z</time>
      </trkpt>
      <trkpt lat="45.65908" lon="6.68022">
        <ele>2230.8000488281</ele>
        <time>2012-02-23T10:49:15.000Z</time>
      </trkpt>
      <trkpt lat="45.65906" lon="6.68027">
        <ele>2229.3999023438</ele>
        <time>2012-02-23T10:49:22.000Z</time>
      </trkpt>
      <trkpt lat="45.65901" lon="6.68036">
        <ele>2230.6000976562</ele>
        <time>2012-02-23T10:49:30.000Z</time>
      </trkpt>
      <trkpt lat="45.65895" lon="6.68045">
        <ele>2230</ele>
        <time>2012-02-23T10:49:41.000Z</time>
      </trkpt>
      <trkpt lat="45.65891" lon="6.68051">
        <ele>2230.6000976562</ele>
        <time>2012-02-23T10:49:50.000Z</time>
      </trkpt>
      <trkpt lat="45.65886" lon="6.68055">
        <ele>2231.1999511719</ele>
        <time>2012-02-23T10:49:58.000Z</time>
      </trkpt>
      <trkpt lat="45.65881" lon="6.6806">
        <ele>2231.8000488281</ele>
        <time>2012-02-23T10:50:07.000Z</time>
      </trkpt>
      <trkpt lat="45.65877" lon="6.68064">
        <ele>2232.6000976562</ele>
        <time>2012-02-23T10:50:14.000Z</time>
      </trkpt>
      <trkpt lat="45.65874" lon="6.68066">
        <ele>2233</ele>
        <time>2012-02-23T10:50:19.000Z</time>
      </trkpt>
      <trkpt lat="45.6587" lon="6.68069">
        <ele>2234.3999023438</ele>
        <time>2012-02-23T10:50:27.000Z</time>
      </trkpt>
      <trkpt lat="45.65865" lon="6.68069">
        <ele>2236</ele>
        <time>2012-02-23T10:50:44.000Z</time>
      </trkpt>
      <trkpt lat="45.65864" lon="6.68062">
        <ele>2238</ele>
        <time>2012-02-23T10:50:57.000Z</time>
      </trkpt>
      <trkpt lat="45.65863" lon="6.68057">
        <ele>2238</ele>
        <time>2012-02-23T10:51:02.000Z</time>
      </trkpt>
      <trkpt lat="45.65862" lon="6.68053">
        <ele>2238.3999023438</ele>
        <time>2012-02-23T10:51:07.000Z</time>
      </trkpt>
      <trkpt lat="45.6586" lon="6.68047">
        <ele>2239.1999511719</ele>
        <time>2012-02-23T10:51:14.000Z</time>
      </trkpt>
      <trkpt lat="45.6586" lon="6.68044">
        <ele>2239.8000488281</ele>
        <time>2012-02-23T10:51:18.000Z</time>
      </trkpt>
      <trkpt lat="45.65857" lon="6.68042">
        <ele>2241.3999023438</ele>
        <time>2012-02-23T10:51:25.000Z</time>
      </trkpt>
      <trkpt lat="45.65854" lon="6.68043">
        <ele>2242</ele>
        <time>2012-02-23T10:51:31.000Z</time>
      </trkpt>
      <trkpt lat="45.65849" lon="6.68045">
        <ele>2243</ele>
        <time>2012-02-23T10:51:37.000Z</time>
      </trkpt>
      <trkpt lat="45.65844" lon="6.68048">
        <ele>2244.8000488281</ele>
        <time>2012-02-23T10:51:46.000Z</time>
      </trkpt>
      <trkpt lat="45.65845" lon="6.68043">
        <ele>2245</ele>
        <time>2012-02-23T10:51:55.000Z</time>
      </trkpt>
      <trkpt lat="45.65845" lon="6.68037">
        <ele>2245.3999023438</ele>
        <time>2012-02-23T10:52:03.000Z</time>
      </trkpt>
      <trkpt lat="45.65846" lon="6.68033">
        <ele>2245.8000488281</ele>
        <time>2012-02-23T10:52:08.000Z</time>
      </trkpt>
      <trkpt lat="45.65847" lon="6.68028">
        <ele>2246.8000488281</ele>
        <time>2012-02-23T10:52:14.000Z</time>
      </trkpt>
      <trkpt lat="45.65849" lon="6.6802">
        <ele>2247.8000488281</ele>
        <time>2012-02-23T10:52:21.000Z</time>
      </trkpt>
      <trkpt lat="45.65849" lon="6.68014">
        <ele>2248.1999511719</ele>
        <time>2012-02-23T10:52:26.000Z</time>
      </trkpt>
      <trkpt lat="45.65847" lon="6.68007">
        <ele>2248.6000976562</ele>
        <time>2012-02-23T10:52:32.000Z</time>
      </trkpt>
      <trkpt lat="45.65846" lon="6.68001">
        <ele>2249.3999023438</ele>
        <time>2012-02-23T10:52:38.000Z</time>
      </trkpt>
      <trkpt lat="45.65843" lon="6.67995">
        <ele>2250</ele>
        <time>2012-02-23T10:52:46.000Z</time>
      </trkpt>
      <trkpt lat="45.6584" lon="6.67989">
        <ele>2251.3999023438</ele>
        <time>2012-02-23T10:52:55.000Z</time>
      </trkpt>
      <trkpt lat="45.65838" lon="6.67987">
        <ele>2252.3999023438</ele>
        <time>2012-02-23T10:53:00.000Z</time>
      </trkpt>
      <trkpt lat="45.65836" lon="6.67984">
        <ele>2252.6000976562</ele>
        <time>2012-02-23T10:53:06.000Z</time>
      </trkpt>
      <trkpt lat="45.65832" lon="6.67981">
        <ele>2253</ele>
        <time>2012-02-23T10:53:12.000Z</time>
      </trkpt>
      <trkpt lat="45.65829" lon="6.6798">
        <ele>2254</ele>
        <time>2012-02-23T10:53:18.000Z</time>
      </trkpt>
      <trkpt lat="45.65826" lon="6.67977">
        <ele>2255.6000976562</ele>
        <time>2012-02-23T10:53:27.000Z</time>
      </trkpt>
      <trkpt lat="45.65823" lon="6.67975">
        <ele>2256.3999023438</ele>
        <time>2012-02-23T10:53:33.000Z</time>
      </trkpt>
      <trkpt lat="45.65819" lon="6.67973">
        <ele>2257.1999511719</ele>
        <time>2012-02-23T10:53:40.000Z</time>
      </trkpt>
      <trkpt lat="45.65817" lon="6.67972">
        <ele>2257.1999511719</ele>
        <time>2012-02-23T10:53:47.000Z</time>
      </trkpt>
      <trkpt lat="45.65812" lon="6.67976">
        <ele>2257.6000976562</ele>
        <time>2012-02-23T10:54:36.000Z</time>
      </trkpt>
      <trkpt lat="45.65807" lon="6.67973">
        <ele>2258.8000488281</ele>
        <time>2012-02-23T10:55:05.000Z</time>
      </trkpt>
      <trkpt lat="45.65804" lon="6.67971">
        <ele>2259.6000976562</ele>
        <time>2012-02-23T10:55:12.000Z</time>
      </trkpt>
      <trkpt lat="45.65801" lon="6.67973">
        <ele>2260.3999023438</ele>
        <time>2012-02-23T10:55:17.000Z</time>
      </trkpt>
      <trkpt lat="45.65799" lon="6.67976">
        <ele>2260.8000488281</ele>
        <time>2012-02-23T10:55:22.000Z</time>
      </trkpt>
      <trkpt lat="45.65801" lon="6.67976">
        <ele>2261.6000976562</ele>
        <time>2012-02-23T10:55:34.000Z</time>
      </trkpt>
      <trkpt lat="45.65801" lon="6.67978">
        <ele>2262</ele>
        <time>2012-02-23T10:55:40.000Z</time>
      </trkpt>
      <trkpt lat="45.65799" lon="6.67982">
        <ele>2263</ele>
        <time>2012-02-23T10:55:44.000Z</time>
      </trkpt>
      <trkpt lat="45.65795" lon="6.6799">
        <ele>2263.6000976562</ele>
        <time>2012-02-23T10:55:52.000Z</time>
      </trkpt>
      <trkpt lat="45.65794" lon="6.67991">
        <ele>2263.8000488281</ele>
        <time>2012-02-23T10:55:54.000Z</time>
      </trkpt>
      <trkpt lat="45.65791" lon="6.67989">
        <ele>2265.6000976562</ele>
        <time>2012-02-23T10:56:00.000Z</time>
      </trkpt>
      <trkpt lat="45.65788" lon="6.67986">
        <ele>2266</ele>
        <time>2012-02-23T10:56:06.000Z</time>
      </trkpt>
      <trkpt lat="45.65786" lon="6.67981">
        <ele>2266.6000976562</ele>
        <time>2012-02-23T10:56:13.000Z</time>
      </trkpt>
      <trkpt lat="45.65784" lon="6.67976">
        <ele>2267</ele>
        <time>2012-02-23T10:56:21.000Z</time>
      </trkpt>
      <trkpt lat="45.65778" lon="6.67975">
        <ele>2268.8000488281</ele>
        <time>2012-02-23T10:56:35.000Z</time>
      </trkpt>
      <trkpt lat="45.65775" lon="6.6798">
        <ele>2270.3999023438</ele>
        <time>2012-02-23T10:56:42.000Z</time>
      </trkpt>
      <trkpt lat="45.65773" lon="6.67985">
        <ele>2271</ele>
        <time>2012-02-23T10:56:49.000Z</time>
      </trkpt>
      <trkpt lat="45.65771" lon="6.6799">
        <ele>2272.6000976562</ele>
        <time>2012-02-23T10:56:57.000Z</time>
      </trkpt>
      <trkpt lat="45.65767" lon="6.67995">
        <ele>2274</ele>
        <time>2012-02-23T10:57:05.000Z</time>
      </trkpt>
      <trkpt lat="45.65763" lon="6.67997">
        <ele>2274.6000976562</ele>
        <time>2012-02-23T10:57:18.000Z</time>
      </trkpt>
      <trkpt lat="45.65761" lon="6.67999">
        <ele>2274.6000976562</ele>
        <time>2012-02-23T10:57:23.000Z</time>
      </trkpt>
      <trkpt lat="45.65756" lon="6.68004">
        <ele>2275.6000976562</ele>
        <time>2012-02-23T10:57:32.000Z</time>
      </trkpt>
      <trkpt lat="45.65755" lon="6.68003">
        <ele>2277</ele>
        <time>2012-02-23T10:57:38.000Z</time>
      </trkpt>
      <trkpt lat="45.65753" lon="6.67995">
        <ele>2277.8000488281</ele>
        <time>2012-02-23T10:57:48.000Z</time>
      </trkpt>
      <trkpt lat="45.65751" lon="6.6799">
        <ele>2277.6000976562</ele>
        <time>2012-02-23T10:57:53.000Z</time>
      </trkpt>
      <trkpt lat="45.65749" lon="6.67983">
        <ele>2278.8000488281</ele>
        <time>2012-02-23T10:58:01.000Z</time>
      </trkpt>
      <trkpt lat="45.65748" lon="6.67977">
        <ele>2281.1999511719</ele>
        <time>2012-02-23T10:58:12.000Z</time>
      </trkpt>
      <trkpt lat="45.65746" lon="6.67969">
        <ele>2282.1999511719</ele>
        <time>2012-02-23T10:58:22.000Z</time>
      </trkpt>
      <trkpt lat="45.65745" lon="6.67965">
        <ele>2282.8000488281</ele>
        <time>2012-02-23T10:58:27.000Z</time>
      </trkpt>
      <trkpt lat="45.65745" lon="6.67958">
        <ele>2283</ele>
        <time>2012-02-23T10:58:33.000Z</time>
      </trkpt>
      <trkpt lat="45.65745" lon="6.67952">
        <ele>2284.6000976562</ele>
        <time>2012-02-23T10:58:41.000Z</time>
      </trkpt>
      <trkpt lat="45.65746" lon="6.67947">
        <ele>2285.8000488281</ele>
        <time>2012-02-23T10:58:48.000Z</time>
      </trkpt>
      <trkpt lat="45.65746" lon="6.67939">
        <ele>2287</ele>
        <time>2012-02-23T10:58:57.000Z</time>
      </trkpt>
      <trkpt lat="45.65746" lon="6.67934">
        <ele>2288</ele>
        <time>2012-02-23T10:59:04.000Z</time>
      </trkpt>
      <trkpt lat="45.65745" lon="6.67931">
        <ele>2288.3999023438</ele>
        <time>2012-02-23T10:59:08.000Z</time>
      </trkpt>
      <trkpt lat="45.65746" lon="6.67925">
        <ele>2289</ele>
        <time>2012-02-23T10:59:13.000Z</time>
      </trkpt>
      <trkpt lat="45.65745" lon="6.6792">
        <ele>2289.1999511719</ele>
        <time>2012-02-23T10:59:17.000Z</time>
      </trkpt>
      <trkpt lat="45.65743" lon="6.67911">
        <ele>2291.3999023438</ele>
        <time>2012-02-23T10:59:28.000Z</time>
      </trkpt>
      <trkpt lat="45.65742" lon="6.67906">
        <ele>2291.8000488281</ele>
        <time>2012-02-23T10:59:35.000Z</time>
      </trkpt>
      <trkpt lat="45.6574" lon="6.67902">
        <ele>2292</ele>
        <time>2012-02-23T10:59:40.000Z</time>
      </trkpt>
      <trkpt lat="45.65736" lon="6.67892">
        <ele>2294.6000976562</ele>
        <time>2012-02-23T11:00:04.000Z</time>
      </trkpt>
      <trkpt lat="45.65735" lon="6.67889">
        <ele>2295.3999023438</ele>
        <time>2012-02-23T11:00:09.000Z</time>
      </trkpt>
      <trkpt lat="45.65733" lon="6.67885">
        <ele>2296.6000976562</ele>
        <time>2012-02-23T11:00:14.000Z</time>
      </trkpt>
      <trkpt lat="45.65731" lon="6.67883">
        <ele>2296.6000976562</ele>
        <time>2012-02-23T11:00:19.000Z</time>
      </trkpt>
      <trkpt lat="45.65729" lon="6.6788">
        <ele>2297.3999023438</ele>
        <time>2012-02-23T11:00:24.000Z</time>
      </trkpt>
      <trkpt lat="45.65727" lon="6.67874">
        <ele>2299</ele>
        <time>2012-02-23T11:00:30.000Z</time>
      </trkpt>
      <trkpt lat="45.65724" lon="6.6787">
        <ele>2299</ele>
        <time>2012-02-23T11:00:36.000Z</time>
      </trkpt>
      <trkpt lat="45.6572" lon="6.67864">
        <ele>2300.8000488281</ele>
        <time>2012-02-23T11:00:45.000Z</time>
      </trkpt>
      <trkpt lat="45.65716" lon="6.67862">
        <ele>2301.1999511719</ele>
        <time>2012-02-23T11:00:51.000Z</time>
      </trkpt>
      <trkpt lat="45.65713" lon="6.67859">
        <ele>2302.1999511719</ele>
        <time>2012-02-23T11:00:56.000Z</time>
      </trkpt>
      <trkpt lat="45.65714" lon="6.67856">
        <ele>2304.3999023438</ele>
        <time>2012-02-23T11:01:03.000Z</time>
      </trkpt>
      <trkpt lat="45.65714" lon="6.67854">
        <ele>2305.1999511719</ele>
        <time>2012-02-23T11:01:09.000Z</time>
      </trkpt>
      <trkpt lat="45.65716" lon="6.67851">
        <ele>2305.8000488281</ele>
        <time>2012-02-23T11:01:16.000Z</time>
      </trkpt>
      <trkpt lat="45.65716" lon="6.67849">
        <ele>2306.8000488281</ele>
        <time>2012-02-23T11:01:23.000Z</time>
      </trkpt>
      <trkpt lat="45.65713" lon="6.67846">
        <ele>2307.8000488281</ele>
        <time>2012-02-23T11:01:31.000Z</time>
      </trkpt>
      <trkpt lat="45.65711" lon="6.67844">
        <ele>2308.8000488281</ele>
        <time>2012-02-23T11:01:36.000Z</time>
      </trkpt>
      <trkpt lat="45.65709" lon="6.67843">
        <ele>2310.1999511719</ele>
        <time>2012-02-23T11:01:42.000Z</time>
      </trkpt>
      <trkpt lat="45.65706" lon="6.67842">
        <ele>2310.6000976562</ele>
        <time>2012-02-23T11:01:51.000Z</time>
      </trkpt>
      <trkpt lat="45.65703" lon="6.6784">
        <ele>2311.6000976562</ele>
        <time>2012-02-23T11:01:58.000Z</time>
      </trkpt>
      <trkpt lat="45.65701" lon="6.67838">
        <ele>2312.6000976562</ele>
        <time>2012-02-23T11:02:04.000Z</time>
      </trkpt>
      <trkpt lat="45.65698" lon="6.67835">
        <ele>2313.1999511719</ele>
        <time>2012-02-23T11:02:11.000Z</time>
      </trkpt>
      <trkpt lat="45.65696" lon="6.67832">
        <ele>2312.6000976562</ele>
        <time>2012-02-23T11:02:17.000Z</time>
      </trkpt>
      <trkpt lat="45.65695" lon="6.67826">
        <ele>2314.3999023438</ele>
        <time>2012-02-23T11:02:24.000Z</time>
      </trkpt>
      <trkpt lat="45.65695" lon="6.67823">
        <ele>2315.8000488281</ele>
        <time>2012-02-23T11:02:32.000Z</time>
      </trkpt>
      <trkpt lat="45.65693" lon="6.67819">
        <ele>2317</ele>
        <time>2012-02-23T11:02:45.000Z</time>
      </trkpt>
      <trkpt lat="45.65693" lon="6.67814">
        <ele>2318.8000488281</ele>
        <time>2012-02-23T11:02:51.000Z</time>
      </trkpt>
      <trkpt lat="45.65689" lon="6.67811">
        <ele>2318.6000976562</ele>
        <time>2012-02-23T11:03:00.000Z</time>
      </trkpt>
      <trkpt lat="45.65681" lon="6.67811">
        <ele>2322</ele>
        <time>2012-02-23T11:03:11.000Z</time>
      </trkpt>
      <trkpt lat="45.65677" lon="6.67811">
        <ele>2322.1999511719</ele>
        <time>2012-02-23T11:03:19.000Z</time>
      </trkpt>
      <trkpt lat="45.65673" lon="6.67812">
        <ele>2324</ele>
        <time>2012-02-23T11:03:26.000Z</time>
      </trkpt>
      <trkpt lat="45.65669" lon="6.6781">
        <ele>2324.8000488281</ele>
        <time>2012-02-23T11:03:35.000Z</time>
      </trkpt>
      <trkpt lat="45.65665" lon="6.67808">
        <ele>2324.1999511719</ele>
        <time>2012-02-23T11:03:43.000Z</time>
      </trkpt>
      <trkpt lat="45.65662" lon="6.67807">
        <ele>2325</ele>
        <time>2012-02-23T11:03:49.000Z</time>
      </trkpt>
      <trkpt lat="45.65658" lon="6.67804">
        <ele>2326.8000488281</ele>
        <time>2012-02-23T11:03:57.000Z</time>
      </trkpt>
      <trkpt lat="45.65653" lon="6.67799">
        <ele>2326.8000488281</ele>
        <time>2012-02-23T11:04:06.000Z</time>
      </trkpt>
      <trkpt lat="45.65651" lon="6.67797">
        <ele>2325.3999023438</ele>
        <time>2012-02-23T11:04:09.000Z</time>
      </trkpt>
      <trkpt lat="45.65647" lon="6.67792">
        <ele>2326</ele>
        <time>2012-02-23T11:04:17.000Z</time>
      </trkpt>
      <trkpt lat="45.65641" lon="6.67791">
        <ele>2327.3999023438</ele>
        <time>2012-02-23T11:04:24.000Z</time>
      </trkpt>
      <trkpt lat="45.65635" lon="6.67794">
        <ele>2327.8000488281</ele>
        <time>2012-02-23T11:04:32.000Z</time>
      </trkpt>
      <trkpt lat="45.65629" lon="6.67795">
        <ele>2327.8000488281</ele>
        <time>2012-02-23T11:04:40.000Z</time>
      </trkpt>
      <trkpt lat="45.65623" lon="6.67797">
        <ele>2330.6000976562</ele>
        <time>2012-02-23T11:04:49.000Z</time>
      </trkpt>
      <trkpt lat="45.65618" lon="6.67799">
        <ele>2330.3999023438</ele>
        <time>2012-02-23T11:04:58.000Z</time>
      </trkpt>
      <trkpt lat="45.65614" lon="6.67799">
        <ele>2331.6000976562</ele>
        <time>2012-02-23T11:05:04.000Z</time>
      </trkpt>
      <trkpt lat="45.65611" lon="6.678">
        <ele>2332.8000488281</ele>
        <time>2012-02-23T11:05:11.000Z</time>
      </trkpt>
      <trkpt lat="45.65607" lon="6.678">
        <ele>2333.3999023438</ele>
        <time>2012-02-23T11:05:17.000Z</time>
      </trkpt>
      <trkpt lat="45.65604" lon="6.678">
        <ele>2335</ele>
        <time>2012-02-23T11:05:24.000Z</time>
      </trkpt>
      <trkpt lat="45.65601" lon="6.67799">
        <ele>2335.3999023438</ele>
        <time>2012-02-23T11:05:31.000Z</time>
      </trkpt>
      <trkpt lat="45.65597" lon="6.67798">
        <ele>2337</ele>
        <time>2012-02-23T11:05:39.000Z</time>
      </trkpt>
      <trkpt lat="45.65595" lon="6.67799">
        <ele>2337.3999023438</ele>
        <time>2012-02-23T11:05:47.000Z</time>
      </trkpt>
      <trkpt lat="45.65593" lon="6.67798">
        <ele>2337.6000976562</ele>
        <time>2012-02-23T11:05:52.000Z</time>
      </trkpt>
      <trkpt lat="45.65589" lon="6.67797">
        <ele>2338.8000488281</ele>
        <time>2012-02-23T11:05:58.000Z</time>
      </trkpt>
      <trkpt lat="45.65585" lon="6.67794">
        <ele>2338.3999023438</ele>
        <time>2012-02-23T11:06:03.000Z</time>
      </trkpt>
      <trkpt lat="45.65581" lon="6.67791">
        <ele>2339.1999511719</ele>
        <time>2012-02-23T11:06:11.000Z</time>
      </trkpt>
      <trkpt lat="45.65577" lon="6.67786">
        <ele>2340.3999023438</ele>
        <time>2012-02-23T11:06:20.000Z</time>
      </trkpt>
      <trkpt lat="45.65574" lon="6.67784">
        <ele>2341.1999511719</ele>
        <time>2012-02-23T11:06:26.000Z</time>
      </trkpt>
      <trkpt lat="45.65571" lon="6.67782">
        <ele>2341.8000488281</ele>
        <time>2012-02-23T11:06:31.000Z</time>
      </trkpt>
      <trkpt lat="45.65567" lon="6.67779">
        <ele>2342.8000488281</ele>
        <time>2012-02-23T11:06:38.000Z</time>
      </trkpt>
      <trkpt lat="45.65561" lon="6.67771">
        <ele>2344.1999511719</ele>
        <time>2012-02-23T11:06:51.000Z</time>
      </trkpt>
      <trkpt lat="45.65558" lon="6.67767">
        <ele>2345.1999511719</ele>
        <time>2012-02-23T11:06:57.000Z</time>
      </trkpt>
      <trkpt lat="45.65551" lon="6.6776">
        <ele>2347.1999511719</ele>
        <time>2012-02-23T11:07:09.000Z</time>
      </trkpt>
      <trkpt lat="45.65549" lon="6.67764">
        <ele>2348</ele>
        <time>2012-02-23T11:07:21.000Z</time>
      </trkpt>
      <trkpt lat="45.65549" lon="6.67767">
        <ele>2348.6000976562</ele>
        <time>2012-02-23T11:07:26.000Z</time>
      </trkpt>
      <trkpt lat="45.65548" lon="6.67772">
        <ele>2349.8000488281</ele>
        <time>2012-02-23T11:07:35.000Z</time>
      </trkpt>
      <trkpt lat="45.65546" lon="6.67775">
        <ele>2350.6000976562</ele>
        <time>2012-02-23T11:07:42.000Z</time>
      </trkpt>
      <trkpt lat="45.65543" lon="6.67774">
        <ele>2351.8000488281</ele>
        <time>2012-02-23T11:07:48.000Z</time>
      </trkpt>
      <trkpt lat="45.6554" lon="6.6777">
        <ele>2353</ele>
        <time>2012-02-23T11:07:56.000Z</time>
      </trkpt>
      <trkpt lat="45.65538" lon="6.67765">
        <ele>2352.8000488281</ele>
        <time>2012-02-23T11:08:04.000Z</time>
      </trkpt>
      <trkpt lat="45.65535" lon="6.67762">
        <ele>2354.8000488281</ele>
        <time>2012-02-23T11:08:10.000Z</time>
      </trkpt>
      <trkpt lat="45.65532" lon="6.67767">
        <ele>2355.8000488281</ele>
        <time>2012-02-23T11:08:20.000Z</time>
      </trkpt>
      <trkpt lat="45.65531" lon="6.6777">
        <ele>2356.6000976562</ele>
        <time>2012-02-23T11:08:25.000Z</time>
      </trkpt>
      <trkpt lat="45.65529" lon="6.67775">
        <ele>2357.1999511719</ele>
        <time>2012-02-23T11:08:33.000Z</time>
      </trkpt>
      <trkpt lat="45.65526" lon="6.67776">
        <ele>2358.3999023438</ele>
        <time>2012-02-23T11:08:41.000Z</time>
      </trkpt>
      <trkpt lat="45.65524" lon="6.67773">
        <ele>2359.6000976562</ele>
        <time>2012-02-23T11:08:46.000Z</time>
      </trkpt>
      <trkpt lat="45.65523" lon="6.67769">
        <ele>2359</ele>
        <time>2012-02-23T11:08:53.000Z</time>
      </trkpt>
      <trkpt lat="45.65523" lon="6.67769">
        <ele>2359.8000488281</ele>
        <time>2012-02-23T11:08:55.000Z</time>
      </trkpt>
      <trkpt lat="45.65522" lon="6.67766">
        <ele>2358.6000976562</ele>
        <time>2012-02-23T11:09:09.000Z</time>
      </trkpt>
      <trkpt lat="45.6552" lon="6.67771">
        <ele>2362</ele>
        <time>2012-02-23T11:09:58.000Z</time>
      </trkpt>
      <trkpt lat="45.6552" lon="6.6777">
        <ele>2362.1999511719</ele>
        <time>2012-02-23T11:09:59.000Z</time>
      </trkpt>
      <trkpt lat="45.65519" lon="6.67767">
        <ele>2362.8000488281</ele>
        <time>2012-02-23T11:10:05.000Z</time>
      </trkpt>
      <trkpt lat="45.65516" lon="6.67769">
        <ele>2363.6000976562</ele>
        <time>2012-02-23T11:10:12.000Z</time>
      </trkpt>
      <trkpt lat="45.65513" lon="6.67775">
        <ele>2365.6000976562</ele>
        <time>2012-02-23T11:10:22.000Z</time>
      </trkpt>
      <trkpt lat="45.65512" lon="6.67777">
        <ele>2365.8000488281</ele>
        <time>2012-02-23T11:10:27.000Z</time>
      </trkpt>
      <trkpt lat="45.65509" lon="6.67774">
        <ele>2367.1999511719</ele>
        <time>2012-02-23T11:10:36.000Z</time>
      </trkpt>
      <trkpt lat="45.65507" lon="6.67771">
        <ele>2368.1999511719</ele>
        <time>2012-02-23T11:10:46.000Z</time>
      </trkpt>
      <trkpt lat="45.65505" lon="6.67765">
        <ele>2370</ele>
        <time>2012-02-23T11:10:56.000Z</time>
      </trkpt>
      <trkpt lat="45.65503" lon="6.67764">
        <ele>2370.1999511719</ele>
        <time>2012-02-23T11:11:05.000Z</time>
      </trkpt>
      <trkpt lat="45.655" lon="6.67765">
        <ele>2371</ele>
        <time>2012-02-23T11:11:13.000Z</time>
      </trkpt>
      <trkpt lat="45.65497" lon="6.67768">
        <ele>2372.3999023438</ele>
        <time>2012-02-23T11:11:20.000Z</time>
      </trkpt>
      <trkpt lat="45.65495" lon="6.67772">
        <ele>2373</ele>
        <time>2012-02-23T11:11:26.000Z</time>
      </trkpt>
      <trkpt lat="45.65494" lon="6.67774">
        <ele>2374</ele>
        <time>2012-02-23T11:11:31.000Z</time>
      </trkpt>
      <trkpt lat="45.65489" lon="6.67773">
        <ele>2374.6000976562</ele>
        <time>2012-02-23T11:11:43.000Z</time>
      </trkpt>
      <trkpt lat="45.65485" lon="6.67768">
        <ele>2376</ele>
        <time>2012-02-23T11:11:51.000Z</time>
      </trkpt>
      <trkpt lat="45.65483" lon="6.67763">
        <ele>2377.3999023438</ele>
        <time>2012-02-23T11:11:57.000Z</time>
      </trkpt>
      <trkpt lat="45.65478" lon="6.67766">
        <ele>2379</ele>
        <time>2012-02-23T11:12:07.000Z</time>
      </trkpt>
      <trkpt lat="45.65477" lon="6.67766">
        <ele>2379</ele>
        <time>2012-02-23T11:12:08.000Z</time>
      </trkpt>
      <trkpt lat="45.65476" lon="6.67769">
        <ele>2379.3999023438</ele>
        <time>2012-02-23T11:12:14.000Z</time>
      </trkpt>
      <trkpt lat="45.65475" lon="6.67774">
        <ele>2380.8000488281</ele>
        <time>2012-02-23T11:12:19.000Z</time>
      </trkpt>
      <trkpt lat="45.65473" lon="6.6778">
        <ele>2380.8000488281</ele>
        <time>2012-02-23T11:12:25.000Z</time>
      </trkpt>
      <trkpt lat="45.6547" lon="6.67786">
        <ele>2381.8000488281</ele>
        <time>2012-02-23T11:12:32.000Z</time>
      </trkpt>
      <trkpt lat="45.65467" lon="6.67787">
        <ele>2382.3999023438</ele>
        <time>2012-02-23T11:12:41.000Z</time>
      </trkpt>
      <trkpt lat="45.65466" lon="6.67786">
        <ele>2383.1999511719</ele>
        <time>2012-02-23T11:12:43.000Z</time>
      </trkpt>
      <trkpt lat="45.65462" lon="6.67781">
        <ele>2385</ele>
        <time>2012-02-23T11:12:53.000Z</time>
      </trkpt>
      <trkpt lat="45.6546" lon="6.67775">
        <ele>2385.1999511719</ele>
        <time>2012-02-23T11:13:00.000Z</time>
      </trkpt>
      <trkpt lat="45.65457" lon="6.67769">
        <ele>2386.8000488281</ele>
        <time>2012-02-23T11:13:09.000Z</time>
      </trkpt>
      <trkpt lat="45.65454" lon="6.67763">
        <ele>2387.3999023438</ele>
        <time>2012-02-23T11:13:20.000Z</time>
      </trkpt>
      <trkpt lat="45.65452" lon="6.67761">
        <ele>2388.1999511719</ele>
        <time>2012-02-23T11:13:26.000Z</time>
      </trkpt>
      <trkpt lat="45.65452" lon="6.67762">
        <ele>2389.3999023438</ele>
        <time>2012-02-23T11:13:28.000Z</time>
      </trkpt>
      <trkpt lat="45.65451" lon="6.67768">
        <ele>2389.3999023438</ele>
        <time>2012-02-23T11:13:32.000Z</time>
      </trkpt>
      <trkpt lat="45.6545" lon="6.67774">
        <ele>2391.1999511719</ele>
        <time>2012-02-23T11:13:37.000Z</time>
      </trkpt>
      <trkpt lat="45.65449" lon="6.6778">
        <ele>2391.3999023438</ele>
        <time>2012-02-23T11:13:43.000Z</time>
      </trkpt>
      <trkpt lat="45.65448" lon="6.67783">
        <ele>2392.1999511719</ele>
        <time>2012-02-23T11:13:50.000Z</time>
      </trkpt>
      <trkpt lat="45.65446" lon="6.6778">
        <ele>2392.8000488281</ele>
        <time>2012-02-23T11:13:55.000Z</time>
      </trkpt>
      <trkpt lat="45.65444" lon="6.67775">
        <ele>2393.6000976562</ele>
        <time>2012-02-23T11:14:00.000Z</time>
      </trkpt>
      <trkpt lat="45.65442" lon="6.67767">
        <ele>2393.8000488281</ele>
        <time>2012-02-23T11:14:07.000Z</time>
      </trkpt>
      <trkpt lat="45.6544" lon="6.67764">
        <ele>2394.3999023438</ele>
        <time>2012-02-23T11:14:12.000Z</time>
      </trkpt>
      <trkpt lat="45.65438" lon="6.67757">
        <ele>2394.1999511719</ele>
        <time>2012-02-23T11:14:20.000Z</time>
      </trkpt>
      <trkpt lat="45.65438" lon="6.6775">
        <ele>2395.1999511719</ele>
        <time>2012-02-23T11:14:26.000Z</time>
      </trkpt>
      <trkpt lat="45.65437" lon="6.67746">
        <ele>2395.3999023438</ele>
        <time>2012-02-23T11:14:31.000Z</time>
      </trkpt>
      <trkpt lat="45.65437" lon="6.67743">
        <ele>2396.3999023438</ele>
        <time>2012-02-23T11:14:37.000Z</time>
      </trkpt>
      <trkpt lat="45.65437" lon="6.67738">
        <ele>2396</ele>
        <time>2012-02-23T11:14:42.000Z</time>
      </trkpt>
      <trkpt lat="45.65437" lon="6.67734">
        <ele>2396.8000488281</ele>
        <time>2012-02-23T11:14:48.000Z</time>
      </trkpt>
      <trkpt lat="45.65436" lon="6.6773">
        <ele>2397.1999511719</ele>
        <time>2012-02-23T11:14:53.000Z</time>
      </trkpt>
      <trkpt lat="45.65436" lon="6.67726">
        <ele>2399</ele>
        <time>2012-02-23T11:14:58.000Z</time>
      </trkpt>
      <trkpt lat="45.65435" lon="6.6772">
        <ele>2398.1999511719</ele>
        <time>2012-02-23T11:15:04.000Z</time>
      </trkpt>
      <trkpt lat="45.65434" lon="6.67712">
        <ele>2401.6000976562</ele>
        <time>2012-02-23T11:15:09.000Z</time>
      </trkpt>
      <trkpt lat="45.65434" lon="6.67711">
        <ele>2401.8000488281</ele>
        <time>2012-02-23T11:15:10.000Z</time>
      </trkpt>
      <trkpt lat="45.65433" lon="6.67706">
        <ele>2400.6000976562</ele>
        <time>2012-02-23T11:15:14.000Z</time>
      </trkpt>
      <trkpt lat="45.65432" lon="6.67695">
        <ele>2402.1999511719</ele>
        <time>2012-02-23T11:15:21.000Z</time>
      </trkpt>
      <trkpt lat="45.65431" lon="6.67687">
        <ele>2403.3999023438</ele>
        <time>2012-02-23T11:15:26.000Z</time>
      </trkpt>
      <trkpt lat="45.65429" lon="6.67678">
        <ele>2402.1999511719</ele>
        <time>2012-02-23T11:15:33.000Z</time>
      </trkpt>
      <trkpt lat="45.65426" lon="6.67672">
        <ele>2403.1999511719</ele>
        <time>2012-02-23T11:15:39.000Z</time>
      </trkpt>
      <trkpt lat="45.65422" lon="6.67664">
        <ele>2404.6000976562</ele>
        <time>2012-02-23T11:15:47.000Z</time>
      </trkpt>
      <trkpt lat="45.65419" lon="6.67656">
        <ele>2405</ele>
        <time>2012-02-23T11:15:57.000Z</time>
      </trkpt>
      <trkpt lat="45.65417" lon="6.67652">
        <ele>2405.1999511719</ele>
        <time>2012-02-23T11:16:02.000Z</time>
      </trkpt>
      <trkpt lat="45.65414" lon="6.6765">
        <ele>2405.1999511719</ele>
        <time>2012-02-23T11:16:09.000Z</time>
      </trkpt>
      <trkpt lat="45.65412" lon="6.67648">
        <ele>2407</ele>
        <time>2012-02-23T11:16:13.000Z</time>
      </trkpt>
      <trkpt lat="45.6541" lon="6.67644">
        <ele>2407.1999511719</ele>
        <time>2012-02-23T11:16:20.000Z</time>
      </trkpt>
      <trkpt lat="45.65408" lon="6.67641">
        <ele>2408.1999511719</ele>
        <time>2012-02-23T11:16:25.000Z</time>
      </trkpt>
      <trkpt lat="45.65405" lon="6.67637">
        <ele>2410.3999023438</ele>
        <time>2012-02-23T11:16:33.000Z</time>
      </trkpt>
      <trkpt lat="45.65402" lon="6.67635">
        <ele>2411.6000976562</ele>
        <time>2012-02-23T11:16:39.000Z</time>
      </trkpt>
      <trkpt lat="45.65399" lon="6.67632">
        <ele>2412.1999511719</ele>
        <time>2012-02-23T11:16:44.000Z</time>
      </trkpt>
      <trkpt lat="45.65397" lon="6.67629">
        <ele>2413.1999511719</ele>
        <time>2012-02-23T11:16:50.000Z</time>
      </trkpt>
      <trkpt lat="45.65395" lon="6.67626">
        <ele>2414</ele>
        <time>2012-02-23T11:16:55.000Z</time>
      </trkpt>
      <trkpt lat="45.65393" lon="6.67624">
        <ele>2414.8000488281</ele>
        <time>2012-02-23T11:17:00.000Z</time>
      </trkpt>
      <trkpt lat="45.65393" lon="6.67622">
        <ele>2415.6000976562</ele>
        <time>2012-02-23T11:17:02.000Z</time>
      </trkpt>
      <trkpt lat="45.65391" lon="6.67619">
        <ele>2416.3999023438</ele>
        <time>2012-02-23T11:17:08.000Z</time>
      </trkpt>
      <trkpt lat="45.6539" lon="6.67613">
        <ele>2416.8000488281</ele>
        <time>2012-02-23T11:17:18.000Z</time>
      </trkpt>
      <trkpt lat="45.65389" lon="6.67609">
        <ele>2417.8000488281</ele>
        <time>2012-02-23T11:17:24.000Z</time>
      </trkpt>
      <trkpt lat="45.65388" lon="6.67606">
        <ele>2419.1999511719</ele>
        <time>2012-02-23T11:17:29.000Z</time>
      </trkpt>
      <trkpt lat="45.65385" lon="6.676">
        <ele>2420</ele>
        <time>2012-02-23T11:17:36.000Z</time>
      </trkpt>
      <trkpt lat="45.65383" lon="6.67595">
        <ele>2422.1999511719</ele>
        <time>2012-02-23T11:17:41.000Z</time>
      </trkpt>
      <trkpt lat="45.65381" lon="6.67587">
        <ele>2423.8000488281</ele>
        <time>2012-02-23T11:17:49.000Z</time>
      </trkpt>
      <trkpt lat="45.6538" lon="6.67583">
        <ele>2422.8000488281</ele>
        <time>2012-02-23T11:17:54.000Z</time>
      </trkpt>
      <trkpt lat="45.65378" lon="6.67578">
        <ele>2425</ele>
        <time>2012-02-23T11:18:00.000Z</time>
      </trkpt>
      <trkpt lat="45.65377" lon="6.6757">
        <ele>2425.3999023438</ele>
        <time>2012-02-23T11:18:08.000Z</time>
      </trkpt>
      <trkpt lat="45.65373" lon="6.67562">
        <ele>2427.1999511719</ele>
        <time>2012-02-23T11:18:19.000Z</time>
      </trkpt>
      <trkpt lat="45.65372" lon="6.67559">
        <ele>2425.6000976562</ele>
        <time>2012-02-23T11:18:23.000Z</time>
      </trkpt>
      <trkpt lat="45.65369" lon="6.67554">
        <ele>2427.6000976562</ele>
        <time>2012-02-23T11:18:29.000Z</time>
      </trkpt>
      <trkpt lat="45.65367" lon="6.6755">
        <ele>2428.8000488281</ele>
        <time>2012-02-23T11:18:34.000Z</time>
      </trkpt>
      <trkpt lat="45.65364" lon="6.67544">
        <ele>2427.6000976562</ele>
        <time>2012-02-23T11:18:41.000Z</time>
      </trkpt>
      <trkpt lat="45.65364" lon="6.67542">
        <ele>2428.3999023438</ele>
        <time>2012-02-23T11:18:43.000Z</time>
      </trkpt>
      <trkpt lat="45.65362" lon="6.6754">
        <ele>2430.3999023438</ele>
        <time>2012-02-23T11:18:46.000Z</time>
      </trkpt>
      <trkpt lat="45.6536" lon="6.67538">
        <ele>2429.8000488281</ele>
        <time>2012-02-23T11:18:53.000Z</time>
      </trkpt>
      <trkpt lat="45.65358" lon="6.67536">
        <ele>2430.3999023438</ele>
        <time>2012-02-23T11:18:57.000Z</time>
      </trkpt>
      <trkpt lat="45.65357" lon="6.67534">
        <ele>2431.1999511719</ele>
        <time>2012-02-23T11:18:59.000Z</time>
      </trkpt>
      <trkpt lat="45.65354" lon="6.67528">
        <ele>2432.3999023438</ele>
        <time>2012-02-23T11:19:07.000Z</time>
      </trkpt>
      <trkpt lat="45.65353" lon="6.67527">
        <ele>2432.6000976562</ele>
        <time>2012-02-23T11:19:08.000Z</time>
      </trkpt>
      <trkpt lat="45.65349" lon="6.67522">
        <ele>2434.8000488281</ele>
        <time>2012-02-23T11:19:17.000Z</time>
      </trkpt>
      <trkpt lat="45.65346" lon="6.6752">
        <ele>2435</ele>
        <time>2012-02-23T11:19:22.000Z</time>
      </trkpt>
      <trkpt lat="45.65341" lon="6.67515">
        <ele>2433.8000488281</ele>
        <time>2012-02-23T11:19:31.000Z</time>
      </trkpt>
      <trkpt lat="45.6534" lon="6.67514">
        <ele>2434.6000976562</ele>
        <time>2012-02-23T11:19:33.000Z</time>
      </trkpt>
      <trkpt lat="45.65338" lon="6.6751">
        <ele>2436.6000976562</ele>
        <time>2012-02-23T11:19:38.000Z</time>
      </trkpt>
      <trkpt lat="45.65335" lon="6.67505">
        <ele>2438.1999511719</ele>
        <time>2012-02-23T11:19:45.000Z</time>
      </trkpt>
      <trkpt lat="45.65329" lon="6.67496">
        <ele>2438.3999023438</ele>
        <time>2012-02-23T11:19:56.000Z</time>
      </trkpt>
      <trkpt lat="45.65325" lon="6.6749">
        <ele>2438.6000976562</ele>
        <time>2012-02-23T11:20:04.000Z</time>
      </trkpt>
      <trkpt lat="45.65322" lon="6.67486">
        <ele>2441.6000976562</ele>
        <time>2012-02-23T11:20:12.000Z</time>
      </trkpt>
      <trkpt lat="45.65319" lon="6.67483">
        <ele>2439.8000488281</ele>
        <time>2012-02-23T11:20:18.000Z</time>
      </trkpt>
      <trkpt lat="45.65317" lon="6.6748">
        <ele>2442.6000976562</ele>
        <time>2012-02-23T11:20:23.000Z</time>
      </trkpt>
      <trkpt lat="45.65317" lon="6.67478">
        <ele>2441.6000976562</ele>
        <time>2012-02-23T11:20:27.000Z</time>
      </trkpt>
      <trkpt lat="45.65314" lon="6.67475">
        <ele>2443</ele>
        <time>2012-02-23T11:20:33.000Z</time>
      </trkpt>
      <trkpt lat="45.65312" lon="6.67473">
        <ele>2444</ele>
        <time>2012-02-23T11:20:38.000Z</time>
      </trkpt>
      <trkpt lat="45.6531" lon="6.6747">
        <ele>2445</ele>
        <time>2012-02-23T11:20:44.000Z</time>
      </trkpt>
      <trkpt lat="45.65306" lon="6.67467">
        <ele>2446.6000976562</ele>
        <time>2012-02-23T11:20:52.000Z</time>
      </trkpt>
      <trkpt lat="45.65303" lon="6.67461">
        <ele>2446.3999023438</ele>
        <time>2012-02-23T11:21:01.000Z</time>
      </trkpt>
      <trkpt lat="45.65301" lon="6.67458">
        <ele>2448.3999023438</ele>
        <time>2012-02-23T11:21:06.000Z</time>
      </trkpt>
      <trkpt lat="45.65298" lon="6.67454">
        <ele>2449</ele>
        <time>2012-02-23T11:21:13.000Z</time>
      </trkpt>
      <trkpt lat="45.65296" lon="6.67451">
        <ele>2450.1999511719</ele>
        <time>2012-02-23T11:21:19.000Z</time>
      </trkpt>
      <trkpt lat="45.65295" lon="6.67451">
        <ele>2450.3999023438</ele>
        <time>2012-02-23T11:21:20.000Z</time>
      </trkpt>
      <trkpt lat="45.65293" lon="6.67448">
        <ele>2450</ele>
        <time>2012-02-23T11:21:25.000Z</time>
      </trkpt>
      <trkpt lat="45.65291" lon="6.67445">
        <ele>2451.8000488281</ele>
        <time>2012-02-23T11:21:30.000Z</time>
      </trkpt>
      <trkpt lat="45.65289" lon="6.67443">
        <ele>2452.8000488281</ele>
        <time>2012-02-23T11:21:35.000Z</time>
      </trkpt>
      <trkpt lat="45.65288" lon="6.67442">
        <ele>2452.8000488281</ele>
        <time>2012-02-23T11:21:36.000Z</time>
      </trkpt>
      <trkpt lat="45.65285" lon="6.67439">
        <ele>2453.8000488281</ele>
        <time>2012-02-23T11:21:41.000Z</time>
      </trkpt>
      <trkpt lat="45.65282" lon="6.67435">
        <ele>2455</ele>
        <time>2012-02-23T11:21:48.000Z</time>
      </trkpt>
      <trkpt lat="45.65279" lon="6.67433">
        <ele>2455.3999023438</ele>
        <time>2012-02-23T11:21:54.000Z</time>
      </trkpt>
      <trkpt lat="45.65277" lon="6.67429">
        <ele>2456.3999023438</ele>
        <time>2012-02-23T11:22:00.000Z</time>
      </trkpt>
      <trkpt lat="45.65275" lon="6.67425">
        <ele>2457.6000976562</ele>
        <time>2012-02-23T11:22:06.000Z</time>
      </trkpt>
      <trkpt lat="45.65271" lon="6.67422">
        <ele>2458.1999511719</ele>
        <time>2012-02-23T11:22:13.000Z</time>
      </trkpt>
      <trkpt lat="45.65269" lon="6.67419">
        <ele>2458.8000488281</ele>
        <time>2012-02-23T11:22:18.000Z</time>
      </trkpt>
      <trkpt lat="45.65265" lon="6.67417">
        <ele>2458.3999023438</ele>
        <time>2012-02-23T11:22:23.000Z</time>
      </trkpt>
      <trkpt lat="45.65263" lon="6.67416">
        <ele>2460.3999023438</ele>
        <time>2012-02-23T11:22:27.000Z</time>
      </trkpt>
      <trkpt lat="45.65261" lon="6.67411">
        <ele>2461.8000488281</ele>
        <time>2012-02-23T11:22:33.000Z</time>
      </trkpt>
      <trkpt lat="45.65259" lon="6.67406">
        <ele>2461.3999023438</ele>
        <time>2012-02-23T11:22:39.000Z</time>
      </trkpt>
      <trkpt lat="45.65255" lon="6.67398">
        <ele>2461.6000976562</ele>
        <time>2012-02-23T11:22:48.000Z</time>
      </trkpt>
      <trkpt lat="45.65253" lon="6.67394">
        <ele>2462.3999023438</ele>
        <time>2012-02-23T11:22:54.000Z</time>
      </trkpt>
      <trkpt lat="45.65251" lon="6.6739">
        <ele>2463</ele>
        <time>2012-02-23T11:23:01.000Z</time>
      </trkpt>
      <trkpt lat="45.65247" lon="6.67385">
        <ele>2463.8000488281</ele>
        <time>2012-02-23T11:23:13.000Z</time>
      </trkpt>
      <trkpt lat="45.65244" lon="6.67382">
        <ele>2465.1999511719</ele>
        <time>2012-02-23T11:23:20.000Z</time>
      </trkpt>
      <trkpt lat="45.65243" lon="6.67381">
        <ele>2466.1999511719</ele>
        <time>2012-02-23T11:23:22.000Z</time>
      </trkpt>
      <trkpt lat="45.65242" lon="6.67379">
        <ele>2465.3999023438</ele>
        <time>2012-02-23T11:23:27.000Z</time>
      </trkpt>
      <trkpt lat="45.6524" lon="6.67376">
        <ele>2467.8000488281</ele>
        <time>2012-02-23T11:23:32.000Z</time>
      </trkpt>
      <trkpt lat="45.65239" lon="6.67375">
        <ele>2469</ele>
        <time>2012-02-23T11:23:42.000Z</time>
      </trkpt>
      <trkpt lat="45.65236" lon="6.67373">
        <ele>2471.6000976562</ele>
        <time>2012-02-23T11:23:47.000Z</time>
      </trkpt>
      <trkpt lat="45.65233" lon="6.6737">
        <ele>2470.8000488281</ele>
        <time>2012-02-23T11:23:53.000Z</time>
      </trkpt>
      <trkpt lat="45.65232" lon="6.67368">
        <ele>2472.3999023438</ele>
        <time>2012-02-23T11:23:56.000Z</time>
      </trkpt>
      <trkpt lat="45.6523" lon="6.67365">
        <ele>2472.1999511719</ele>
        <time>2012-02-23T11:24:03.000Z</time>
      </trkpt>
      <trkpt lat="45.65228" lon="6.67363">
        <ele>2473.1999511719</ele>
        <time>2012-02-23T11:24:06.000Z</time>
      </trkpt>
      <trkpt lat="45.65226" lon="6.67361">
        <ele>2473</ele>
        <time>2012-02-23T11:24:11.000Z</time>
      </trkpt>
      <trkpt lat="45.65225" lon="6.67356">
        <ele>2473.8000488281</ele>
        <time>2012-02-23T11:24:19.000Z</time>
      </trkpt>
      <trkpt lat="45.65223" lon="6.67354">
        <ele>2473.8000488281</ele>
        <time>2012-02-23T11:24:23.000Z</time>
      </trkpt>
      <trkpt lat="45.6522" lon="6.67351">
        <ele>2474.3999023438</ele>
        <time>2012-02-23T11:24:30.000Z</time>
      </trkpt>
      <trkpt lat="45.65218" lon="6.67349">
        <ele>2475.8000488281</ele>
        <time>2012-02-23T11:24:35.000Z</time>
      </trkpt>
      <trkpt lat="45.65216" lon="6.67346">
        <ele>2476.1999511719</ele>
        <time>2012-02-23T11:24:40.000Z</time>
      </trkpt>
      <trkpt lat="45.65214" lon="6.67345">
        <ele>2477.6000976562</ele>
        <time>2012-02-23T11:24:45.000Z</time>
      </trkpt>
      <trkpt lat="45.65212" lon="6.67343">
        <ele>2478.1999511719</ele>
        <time>2012-02-23T11:24:53.000Z</time>
      </trkpt>
      <trkpt lat="45.65209" lon="6.6734">
        <ele>2478.1999511719</ele>
        <time>2012-02-23T11:25:02.000Z</time>
      </trkpt>
      <trkpt lat="45.65207" lon="6.67338">
        <ele>2478.8000488281</ele>
        <time>2012-02-23T11:25:06.000Z</time>
      </trkpt>
      <trkpt lat="45.65204" lon="6.67333">
        <ele>2479.6000976562</ele>
        <time>2012-02-23T11:25:13.000Z</time>
      </trkpt>
      <trkpt lat="45.65202" lon="6.67329">
        <ele>2480.6000976562</ele>
        <time>2012-02-23T11:25:19.000Z</time>
      </trkpt>
      <trkpt lat="45.65199" lon="6.67326">
        <ele>2481.3999023438</ele>
        <time>2012-02-23T11:25:24.000Z</time>
      </trkpt>
      <trkpt lat="45.65195" lon="6.67325">
        <ele>2484.1999511719</ele>
        <time>2012-02-23T11:25:39.000Z</time>
      </trkpt>
      <trkpt lat="45.65194" lon="6.67319">
        <ele>2484.6000976562</ele>
        <time>2012-02-23T11:25:45.000Z</time>
      </trkpt>
      <trkpt lat="45.65192" lon="6.67315">
        <ele>2485.6000976562</ele>
        <time>2012-02-23T11:25:50.000Z</time>
      </trkpt>
      <trkpt lat="45.6519" lon="6.67306">
        <ele>2487</ele>
        <time>2012-02-23T11:26:00.000Z</time>
      </trkpt>
      <trkpt lat="45.6519" lon="6.673">
        <ele>2488.3999023438</ele>
        <time>2012-02-23T11:26:07.000Z</time>
      </trkpt>
      <trkpt lat="45.65187" lon="6.67296">
        <ele>2489.1999511719</ele>
        <time>2012-02-23T11:26:14.000Z</time>
      </trkpt>
      <trkpt lat="45.65185" lon="6.67291">
        <ele>2489.3999023438</ele>
        <time>2012-02-23T11:26:19.000Z</time>
      </trkpt>
      <trkpt lat="45.65183" lon="6.67287">
        <ele>2490.8000488281</ele>
        <time>2012-02-23T11:26:25.000Z</time>
      </trkpt>
      <trkpt lat="45.65181" lon="6.6728">
        <ele>2492.6000976562</ele>
        <time>2012-02-23T11:26:35.000Z</time>
      </trkpt>
      <trkpt lat="45.65179" lon="6.67275">
        <ele>2494</ele>
        <time>2012-02-23T11:26:43.000Z</time>
      </trkpt>
      <trkpt lat="45.65177" lon="6.67273">
        <ele>2495.3999023438</ele>
        <time>2012-02-23T11:26:51.000Z</time>
      </trkpt>
      <trkpt lat="45.65172" lon="6.67276">
        <ele>2497.6000976562</ele>
        <time>2012-02-23T11:27:13.000Z</time>
      </trkpt>
      <trkpt lat="45.65168" lon="6.67279">
        <ele>2498</ele>
        <time>2012-02-23T11:27:18.000Z</time>
      </trkpt>
      <trkpt lat="45.65167" lon="6.67281">
        <ele>2499.3999023438</ele>
        <time>2012-02-23T11:27:21.000Z</time>
      </trkpt>
      <trkpt lat="45.65166" lon="6.67283">
        <ele>2497.3999023438</ele>
        <time>2012-02-23T11:27:25.000Z</time>
      </trkpt>
      <trkpt lat="45.65166" lon="6.67278">
        <ele>2500.1999511719</ele>
        <time>2012-02-23T11:27:36.000Z</time>
      </trkpt>
      <trkpt lat="45.65164" lon="6.67275">
        <ele>2501</ele>
        <time>2012-02-23T11:27:40.000Z</time>
      </trkpt>
      <trkpt lat="45.65163" lon="6.67268">
        <ele>2502.3999023438</ele>
        <time>2012-02-23T11:27:48.000Z</time>
      </trkpt>
      <trkpt lat="45.65162" lon="6.67263">
        <ele>2502.8000488281</ele>
        <time>2012-02-23T11:27:55.000Z</time>
      </trkpt>
      <trkpt lat="45.6516" lon="6.67256">
        <ele>2504.8000488281</ele>
        <time>2012-02-23T11:28:06.000Z</time>
      </trkpt>
      <trkpt lat="45.6516" lon="6.67253">
        <ele>2506</ele>
        <time>2012-02-23T11:28:11.000Z</time>
      </trkpt>
      <trkpt lat="45.65158" lon="6.67246">
        <ele>2507.8000488281</ele>
        <time>2012-02-23T11:28:24.000Z</time>
      </trkpt>
      <trkpt lat="45.65153" lon="6.67244">
        <ele>2511.1999511719</ele>
        <time>2012-02-23T11:28:49.000Z</time>
      </trkpt>
      <trkpt lat="45.65151" lon="6.6725">
        <ele>2512</ele>
        <time>2012-02-23T11:28:56.000Z</time>
      </trkpt>
      <trkpt lat="45.65149" lon="6.67254">
        <ele>2512.1999511719</ele>
        <time>2012-02-23T11:29:01.000Z</time>
      </trkpt>
      <trkpt lat="45.65149" lon="6.67259">
        <ele>2512.3999023438</ele>
        <time>2012-02-23T11:29:08.000Z</time>
      </trkpt>
      <trkpt lat="45.65142" lon="6.67262">
        <ele>2515.6000976562</ele>
        <time>2012-02-23T11:29:26.000Z</time>
      </trkpt>
      <trkpt lat="45.6514" lon="6.67255">
        <ele>2516</ele>
        <time>2012-02-23T11:29:33.000Z</time>
      </trkpt>
      <trkpt lat="45.65138" lon="6.67248">
        <ele>2518</ele>
        <time>2012-02-23T11:29:45.000Z</time>
      </trkpt>
      <trkpt lat="45.65136" lon="6.67236">
        <ele>2519.8000488281</ele>
        <time>2012-02-23T11:29:58.000Z</time>
      </trkpt>
      <trkpt lat="45.65135" lon="6.67232">
        <ele>2521.6000976562</ele>
        <time>2012-02-23T11:30:05.000Z</time>
      </trkpt>
      <trkpt lat="45.65132" lon="6.67238">
        <ele>2523.1999511719</ele>
        <time>2012-02-23T11:30:16.000Z</time>
      </trkpt>
      <trkpt lat="45.6513" lon="6.67242">
        <ele>2524.3999023438</ele>
        <time>2012-02-23T11:30:19.000Z</time>
      </trkpt>
      <trkpt lat="45.65127" lon="6.67249">
        <ele>2524.1999511719</ele>
        <time>2012-02-23T11:30:25.000Z</time>
      </trkpt>
      <trkpt lat="45.65126" lon="6.67251">
        <ele>2525.6000976562</ele>
        <time>2012-02-23T11:30:27.000Z</time>
      </trkpt>
      <trkpt lat="45.65123" lon="6.67256">
        <ele>2526.8000488281</ele>
        <time>2012-02-23T11:30:32.000Z</time>
      </trkpt>
      <trkpt lat="45.6512" lon="6.6726">
        <ele>2527.1999511719</ele>
        <time>2012-02-23T11:30:38.000Z</time>
      </trkpt>
      <trkpt lat="45.6512" lon="6.67263">
        <ele>2527.6000976562</ele>
        <time>2012-02-23T11:30:42.000Z</time>
      </trkpt>
      <trkpt lat="45.65118" lon="6.67263">
        <ele>2526</ele>
        <time>2012-02-23T11:30:51.000Z</time>
      </trkpt>
      <trkpt lat="45.65117" lon="6.67258">
        <ele>2527.8000488281</ele>
        <time>2012-02-23T11:30:56.000Z</time>
      </trkpt>
      <trkpt lat="45.65118" lon="6.67246">
        <ele>2529.3999023438</ele>
        <time>2012-02-23T11:31:11.000Z</time>
      </trkpt>
      <trkpt lat="45.65118" lon="6.67242">
        <ele>2530.1999511719</ele>
        <time>2012-02-23T11:31:16.000Z</time>
      </trkpt>
      <trkpt lat="45.65117" lon="6.67239">
        <ele>2532.1999511719</ele>
        <time>2012-02-23T11:31:20.000Z</time>
      </trkpt>
      <trkpt lat="45.65115" lon="6.67232">
        <ele>2532.1999511719</ele>
        <time>2012-02-23T11:31:31.000Z</time>
      </trkpt>
      <trkpt lat="45.65108" lon="6.67236">
        <ele>2533.6000976562</ele>
        <time>2012-02-23T11:31:42.000Z</time>
      </trkpt>
      <trkpt lat="45.65107" lon="6.67238">
        <ele>2534.1999511719</ele>
        <time>2012-02-23T11:31:44.000Z</time>
      </trkpt>
      <trkpt lat="45.65104" lon="6.67245">
        <ele>2534.1999511719</ele>
        <time>2012-02-23T11:31:50.000Z</time>
      </trkpt>
      <trkpt lat="45.65104" lon="6.6725">
        <ele>2533.6000976562</ele>
        <time>2012-02-23T11:31:56.000Z</time>
      </trkpt>
      <trkpt lat="45.65103" lon="6.67258">
        <ele>2536.6000976562</ele>
        <time>2012-02-23T11:32:05.000Z</time>
      </trkpt>
      <trkpt lat="45.65099" lon="6.67256">
        <ele>2540.3999023438</ele>
        <time>2012-02-23T11:32:30.000Z</time>
      </trkpt>
      <trkpt lat="45.65098" lon="6.67248">
        <ele>2543</ele>
        <time>2012-02-23T11:32:39.000Z</time>
      </trkpt>
      <trkpt lat="45.65097" lon="6.67241">
        <ele>2544.8000488281</ele>
        <time>2012-02-23T11:32:49.000Z</time>
      </trkpt>
      <trkpt lat="45.65096" lon="6.67236">
        <ele>2546</ele>
        <time>2012-02-23T11:32:56.000Z</time>
      </trkpt>
      <trkpt lat="45.65093" lon="6.67238">
        <ele>2547.3999023438</ele>
        <time>2012-02-23T11:33:13.000Z</time>
      </trkpt>
      <trkpt lat="45.6509" lon="6.67243">
        <ele>2547.8000488281</ele>
        <time>2012-02-23T11:33:18.000Z</time>
      </trkpt>
      <trkpt lat="45.65088" lon="6.67249">
        <ele>2548.1999511719</ele>
        <time>2012-02-23T11:33:24.000Z</time>
      </trkpt>
      <trkpt lat="45.65086" lon="6.67256">
        <ele>2550.6000976562</ele>
        <time>2012-02-23T11:33:32.000Z</time>
      </trkpt>
      <trkpt lat="45.65083" lon="6.67263">
        <ele>2551</ele>
        <time>2012-02-23T11:33:41.000Z</time>
      </trkpt>
      <trkpt lat="45.65083" lon="6.67253">
        <ele>2553.3999023438</ele>
        <time>2012-02-23T11:33:56.000Z</time>
      </trkpt>
      <trkpt lat="45.65079" lon="6.67239">
        <ele>2556.6000976562</ele>
        <time>2012-02-23T11:34:16.000Z</time>
      </trkpt>
      <trkpt lat="45.65079" lon="6.67236">
        <ele>2555.3999023438</ele>
        <time>2012-02-23T11:34:25.000Z</time>
      </trkpt>
      <trkpt lat="45.65073" lon="6.67252">
        <ele>2559</ele>
        <time>2012-02-23T11:34:43.000Z</time>
      </trkpt>
      <trkpt lat="45.65071" lon="6.67257">
        <ele>2561.3999023438</ele>
        <time>2012-02-23T11:34:49.000Z</time>
      </trkpt>
      <trkpt lat="45.6507" lon="6.67252">
        <ele>2561</ele>
        <time>2012-02-23T11:35:08.000Z</time>
      </trkpt>
      <trkpt lat="45.65069" lon="6.67244">
        <ele>2561.3999023438</ele>
        <time>2012-02-23T11:35:19.000Z</time>
      </trkpt>
      <trkpt lat="45.65068" lon="6.6724">
        <ele>2561.6000976562</ele>
        <time>2012-02-23T11:35:26.000Z</time>
      </trkpt>
      <trkpt lat="45.65066" lon="6.67231">
        <ele>2564</ele>
        <time>2012-02-23T11:35:48.000Z</time>
      </trkpt>
      <trkpt lat="45.65062" lon="6.6724">
        <ele>2563.1999511719</ele>
        <time>2012-02-23T11:35:55.000Z</time>
      </trkpt>
      <trkpt lat="45.65061" lon="6.67243">
        <ele>2566</ele>
        <time>2012-02-23T11:36:00.000Z</time>
      </trkpt>
      <trkpt lat="45.65059" lon="6.67245">
        <ele>2566.8000488281</ele>
        <time>2012-02-23T11:36:05.000Z</time>
      </trkpt>
      <trkpt lat="45.65059" lon="6.67246">
        <ele>2568</ele>
        <time>2012-02-23T11:36:09.000Z</time>
      </trkpt>
      <trkpt lat="45.65059" lon="6.67247">
        <ele>2567.3999023438</ele>
        <time>2012-02-23T11:36:19.000Z</time>
      </trkpt>
      <trkpt lat="45.65058" lon="6.67243">
        <ele>2569.6000976562</ele>
        <time>2012-02-23T11:36:26.000Z</time>
      </trkpt>
      <trkpt lat="45.65058" lon="6.6723">
        <ele>2574.1999511719</ele>
        <time>2012-02-23T11:39:00.000Z</time>
      </trkpt>
      <trkpt lat="45.65056" lon="6.67232">
        <ele>2577.8000488281</ele>
        <time>2012-02-23T11:39:27.000Z</time>
      </trkpt>
      <trkpt lat="45.65055" lon="6.67231">
        <ele>2578.8000488281</ele>
        <time>2012-02-23T11:39:34.000Z</time>
      </trkpt>
      <trkpt lat="45.65055" lon="6.6723">
        <ele>2579.1999511719</ele>
        <time>2012-02-23T11:39:35.000Z</time>
      </trkpt>
      <trkpt lat="45.6506" lon="6.67226">
        <ele>2580.3999023438</ele>
        <time>2012-02-23T11:40:38.000Z</time>
      </trkpt>
      <trkpt lat="45.65068" lon="6.67232">
        <ele>2578</ele>
        <time>2012-02-23T11:40:47.000Z</time>
      </trkpt>
      <trkpt lat="45.65067" lon="6.67235">
        <ele>2576.8000488281</ele>
        <time>2012-02-23T11:40:51.000Z</time>
      </trkpt>
      <trkpt lat="45.65068" lon="6.67237">
        <ele>2574.6000976562</ele>
        <time>2012-02-23T11:40:55.000Z</time>
      </trkpt>
      <trkpt lat="45.65066" lon="6.67238">
        <ele>2573.1999511719</ele>
        <time>2012-02-23T11:40:58.000Z</time>
      </trkpt>
      <trkpt lat="45.65058" lon="6.67227">
        <ele>2571.8000488281</ele>
        <time>2012-02-23T11:43:14.000Z</time>
      </trkpt>
      <trkpt lat="45.65057" lon="6.67225">
        <ele>2572.8000488281</ele>
        <time>2012-02-23T11:43:33.000Z</time>
      </trkpt>
      <trkpt lat="45.65059" lon="6.67224">
        <ele>2572.1999511719</ele>
        <time>2012-02-23T11:44:26.000Z</time>
      </trkpt>
      <trkpt lat="45.65069" lon="6.67231">
        <ele>2568.1999511719</ele>
        <time>2012-02-23T11:44:30.000Z</time>
      </trkpt>
      <trkpt lat="45.65078" lon="6.67237">
        <ele>2564</ele>
        <time>2012-02-23T11:44:33.000Z</time>
      </trkpt>
      <trkpt lat="45.65088" lon="6.67242">
        <ele>2560.8000488281</ele>
        <time>2012-02-23T11:44:36.000Z</time>
      </trkpt>
      <trkpt lat="45.65099" lon="6.67247">
        <ele>2554</ele>
        <time>2012-02-23T11:44:39.000Z</time>
      </trkpt>
      <trkpt lat="45.65104" lon="6.67255">
        <ele>2546.1999511719</ele>
        <time>2012-02-23T11:44:42.000Z</time>
      </trkpt>
      <trkpt lat="45.65104" lon="6.67255">
        <ele>2545.8000488281</ele>
        <time>2012-02-23T11:44:44.000Z</time>
      </trkpt>
      <trkpt lat="45.65113" lon="6.67253">
        <ele>2543.1999511719</ele>
        <time>2012-02-23T11:44:48.000Z</time>
      </trkpt>
      <trkpt lat="45.65121" lon="6.67257">
        <ele>2540.3999023438</ele>
        <time>2012-02-23T11:44:50.000Z</time>
      </trkpt>
      <trkpt lat="45.6513" lon="6.67259">
        <ele>2535</ele>
        <time>2012-02-23T11:44:53.000Z</time>
      </trkpt>
      <trkpt lat="45.65136" lon="6.67257">
        <ele>2526.8000488281</ele>
        <time>2012-02-23T11:44:56.000Z</time>
      </trkpt>
      <trkpt lat="45.65134" lon="6.67264">
        <ele>2522.6000976562</ele>
        <time>2012-02-23T11:44:59.000Z</time>
      </trkpt>
      <trkpt lat="45.65134" lon="6.67264">
        <ele>2522.8000488281</ele>
        <time>2012-02-23T11:45:00.000Z</time>
      </trkpt>
      <trkpt lat="45.65134" lon="6.67265">
        <ele>2521.8000488281</ele>
        <time>2012-02-23T11:45:08.000Z</time>
      </trkpt>
      <trkpt lat="45.65142" lon="6.67263">
        <ele>2521</ele>
        <time>2012-02-23T11:45:12.000Z</time>
      </trkpt>
      <trkpt lat="45.65147" lon="6.67261">
        <ele>2518.6000976562</ele>
        <time>2012-02-23T11:45:14.000Z</time>
      </trkpt>
      <trkpt lat="45.6516" lon="6.67269">
        <ele>2513.1999511719</ele>
        <time>2012-02-23T11:45:17.000Z</time>
      </trkpt>
      <trkpt lat="45.65167" lon="6.6727">
        <ele>2508.6000976562</ele>
        <time>2012-02-23T11:45:20.000Z</time>
      </trkpt>
      <trkpt lat="45.65171" lon="6.67273">
        <ele>2506.6000976562</ele>
        <time>2012-02-23T11:45:21.000Z</time>
      </trkpt>
      <trkpt lat="45.6518" lon="6.67277">
        <ele>2502</ele>
        <time>2012-02-23T11:45:23.000Z</time>
      </trkpt>
      <trkpt lat="45.65193" lon="6.67273">
        <ele>2494.6000976562</ele>
        <time>2012-02-23T11:45:27.000Z</time>
      </trkpt>
      <trkpt lat="45.65194" lon="6.67269">
        <ele>2492.3999023438</ele>
        <time>2012-02-23T11:45:29.000Z</time>
      </trkpt>
      <trkpt lat="45.65205" lon="6.67264">
        <ele>2490.1999511719</ele>
        <time>2012-02-23T11:45:33.000Z</time>
      </trkpt>
      <trkpt lat="45.65212" lon="6.67261">
        <ele>2489.1999511719</ele>
        <time>2012-02-23T11:45:35.000Z</time>
      </trkpt>
      <trkpt lat="45.65228" lon="6.67257">
        <ele>2487</ele>
        <time>2012-02-23T11:45:39.000Z</time>
      </trkpt>
      <trkpt lat="45.65245" lon="6.67245">
        <ele>2486</ele>
        <time>2012-02-23T11:45:45.000Z</time>
      </trkpt>
      <trkpt lat="45.65245" lon="6.67242">
        <ele>2486.1999511719</ele>
        <time>2012-02-23T11:45:49.000Z</time>
      </trkpt>
      <trkpt lat="45.6525" lon="6.67234">
        <ele>2484.6000976562</ele>
        <time>2012-02-23T11:45:56.000Z</time>
      </trkpt>
      <trkpt lat="45.65252" lon="6.67228">
        <ele>2483.3999023438</ele>
        <time>2012-02-23T11:45:58.000Z</time>
      </trkpt>
      <trkpt lat="45.65263" lon="6.67219">
        <ele>2479.6000976562</ele>
        <time>2012-02-23T11:46:02.000Z</time>
      </trkpt>
      <trkpt lat="45.65272" lon="6.67219">
        <ele>2476.8000488281</ele>
        <time>2012-02-23T11:46:04.000Z</time>
      </trkpt>
      <trkpt lat="45.65276" lon="6.6721">
        <ele>2472.1999511719</ele>
        <time>2012-02-23T11:46:07.000Z</time>
      </trkpt>
      <trkpt lat="45.65275" lon="6.67209">
        <ele>2467.6000976562</ele>
        <time>2012-02-23T11:46:18.000Z</time>
      </trkpt>
      <trkpt lat="45.65275" lon="6.67211">
        <ele>2467.3999023438</ele>
        <time>2012-02-23T11:46:19.000Z</time>
      </trkpt>
      <trkpt lat="45.65277" lon="6.67214">
        <ele>2470.3999023438</ele>
        <time>2012-02-23T11:46:24.000Z</time>
      </trkpt>
      <trkpt lat="45.6528" lon="6.67214">
        <ele>2470.1999511719</ele>
        <time>2012-02-23T11:46:30.000Z</time>
      </trkpt>
      <trkpt lat="45.65283" lon="6.67213">
        <ele>2469</ele>
        <time>2012-02-23T11:49:52.000Z</time>
      </trkpt>
      <trkpt lat="45.65285" lon="6.67208">
        <ele>2470</ele>
        <time>2012-02-23T11:51:03.000Z</time>
      </trkpt>
      <trkpt lat="45.65283" lon="6.67202">
        <ele>2470.3999023438</ele>
        <time>2012-02-23T11:51:08.000Z</time>
      </trkpt>
      <trkpt lat="45.65283" lon="6.67198">
        <ele>2472.1999511719</ele>
        <time>2012-02-23T11:51:12.000Z</time>
      </trkpt>
      <trkpt lat="45.65284" lon="6.67191">
        <ele>2474</ele>
        <time>2012-02-23T11:51:20.000Z</time>
      </trkpt>
      <trkpt lat="45.65285" lon="6.67184">
        <ele>2475</ele>
        <time>2012-02-23T11:51:28.000Z</time>
      </trkpt>
      <trkpt lat="45.65285" lon="6.6718">
        <ele>2476.8000488281</ele>
        <time>2012-02-23T11:51:32.000Z</time>
      </trkpt>
      <trkpt lat="45.65286" lon="6.67173">
        <ele>2476.8000488281</ele>
        <time>2012-02-23T11:51:40.000Z</time>
      </trkpt>
      <trkpt lat="45.65286" lon="6.67164">
        <ele>2479</ele>
        <time>2012-02-23T11:51:48.000Z</time>
      </trkpt>
      <trkpt lat="45.65286" lon="6.67155">
        <ele>2478.6000976562</ele>
        <time>2012-02-23T11:51:57.000Z</time>
      </trkpt>
      <trkpt lat="45.65285" lon="6.67147">
        <ele>2478.1999511719</ele>
        <time>2012-02-23T11:52:05.000Z</time>
      </trkpt>
      <trkpt lat="45.65284" lon="6.67142">
        <ele>2482</ele>
        <time>2012-02-23T11:52:11.000Z</time>
      </trkpt>
      <trkpt lat="45.65284" lon="6.67142">
        <ele>2482</ele>
        <time>2012-02-23T11:52:12.000Z</time>
      </trkpt>
      <trkpt lat="45.65285" lon="6.67132">
        <ele>2481</ele>
        <time>2012-02-23T11:52:27.000Z</time>
      </trkpt>
      <trkpt lat="45.65285" lon="6.67123">
        <ele>2484.3999023438</ele>
        <time>2012-02-23T11:52:36.000Z</time>
      </trkpt>
      <trkpt lat="45.65285" lon="6.67121">
        <ele>2484.6000976562</ele>
        <time>2012-02-23T11:52:37.000Z</time>
      </trkpt>
      <trkpt lat="45.65286" lon="6.67113">
        <ele>2486.1999511719</ele>
        <time>2012-02-23T11:52:46.000Z</time>
      </trkpt>
      <trkpt lat="45.65288" lon="6.67103">
        <ele>2487.1999511719</ele>
        <time>2012-02-23T11:52:57.000Z</time>
      </trkpt>
      <trkpt lat="45.65291" lon="6.67097">
        <ele>2488.3999023438</ele>
        <time>2012-02-23T11:53:04.000Z</time>
      </trkpt>
      <trkpt lat="45.65294" lon="6.67087">
        <ele>2490.8000488281</ele>
        <time>2012-02-23T11:53:15.000Z</time>
      </trkpt>
      <trkpt lat="45.65295" lon="6.67083">
        <ele>2491.6000976562</ele>
        <time>2012-02-23T11:53:19.000Z</time>
      </trkpt>
      <trkpt lat="45.65294" lon="6.67079">
        <ele>2493.1999511719</ele>
        <time>2012-02-23T11:53:23.000Z</time>
      </trkpt>
      <trkpt lat="45.65292" lon="6.6707">
        <ele>2494</ele>
        <time>2012-02-23T11:53:32.000Z</time>
      </trkpt>
      <trkpt lat="45.65291" lon="6.67066">
        <ele>2496.3999023438</ele>
        <time>2012-02-23T11:53:38.000Z</time>
      </trkpt>
      <trkpt lat="45.65287" lon="6.67056">
        <ele>2496</ele>
        <time>2012-02-23T11:53:50.000Z</time>
      </trkpt>
      <trkpt lat="45.65284" lon="6.67047">
        <ele>2499.6000976562</ele>
        <time>2012-02-23T11:53:59.000Z</time>
      </trkpt>
      <trkpt lat="45.65284" lon="6.67045">
        <ele>2500.3999023438</ele>
        <time>2012-02-23T11:54:01.000Z</time>
      </trkpt>
      <trkpt lat="45.6528" lon="6.67034">
        <ele>2501</ele>
        <time>2012-02-23T11:54:10.000Z</time>
      </trkpt>
      <trkpt lat="45.65277" lon="6.67025">
        <ele>2501.1999511719</ele>
        <time>2012-02-23T11:54:18.000Z</time>
      </trkpt>
      <trkpt lat="45.65272" lon="6.67013">
        <ele>2502.8000488281</ele>
        <time>2012-02-23T11:54:28.000Z</time>
      </trkpt>
      <trkpt lat="45.65266" lon="6.67005">
        <ele>2504.3999023438</ele>
        <time>2012-02-23T11:54:37.000Z</time>
      </trkpt>
      <trkpt lat="45.65262" lon="6.66997">
        <ele>2505.3999023438</ele>
        <time>2012-02-23T11:54:45.000Z</time>
      </trkpt>
      <trkpt lat="45.65257" lon="6.66991">
        <ele>2505.8000488281</ele>
        <time>2012-02-23T11:54:53.000Z</time>
      </trkpt>
      <trkpt lat="45.65253" lon="6.66986">
        <ele>2507.3999023438</ele>
        <time>2012-02-23T11:55:00.000Z</time>
      </trkpt>
      <trkpt lat="45.65248" lon="6.6698">
        <ele>2508.8000488281</ele>
        <time>2012-02-23T11:55:08.000Z</time>
      </trkpt>
      <trkpt lat="45.65244" lon="6.66974">
        <ele>2509.6000976562</ele>
        <time>2012-02-23T11:55:16.000Z</time>
      </trkpt>
      <trkpt lat="45.6524" lon="6.66966">
        <ele>2511.6000976562</ele>
        <time>2012-02-23T11:55:26.000Z</time>
      </trkpt>
      <trkpt lat="45.65236" lon="6.66959">
        <ele>2511.8000488281</ele>
        <time>2012-02-23T11:55:35.000Z</time>
      </trkpt>
      <trkpt lat="45.65234" lon="6.66949">
        <ele>2512.3999023438</ele>
        <time>2012-02-23T11:55:51.000Z</time>
      </trkpt>
      <trkpt lat="45.65232" lon="6.66944">
        <ele>2513.6000976562</ele>
        <time>2012-02-23T11:55:59.000Z</time>
      </trkpt>
      <trkpt lat="45.65228" lon="6.66942">
        <ele>2513.3999023438</ele>
        <time>2012-02-23T11:56:43.000Z</time>
      </trkpt>
      <trkpt lat="45.65221" lon="6.66932">
        <ele>2515.1999511719</ele>
        <time>2012-02-23T11:56:52.000Z</time>
      </trkpt>
      <trkpt lat="45.65212" lon="6.66922">
        <ele>2515.8000488281</ele>
        <time>2012-02-23T11:57:02.000Z</time>
      </trkpt>
      <trkpt lat="45.65212" lon="6.66921">
        <ele>2516</ele>
        <time>2012-02-23T11:57:03.000Z</time>
      </trkpt>
      <trkpt lat="45.65209" lon="6.66915">
        <ele>2515.8000488281</ele>
        <time>2012-02-23T11:57:09.000Z</time>
      </trkpt>
      <trkpt lat="45.65208" lon="6.66915">
        <ele>2514.6000976562</ele>
        <time>2012-02-23T11:58:04.000Z</time>
      </trkpt>
      <trkpt lat="45.65209" lon="6.66913">
        <ele>2516.8000488281</ele>
        <time>2012-02-23T11:58:16.000Z</time>
      </trkpt>
      <trkpt lat="45.65206" lon="6.66905">
        <ele>2515.8000488281</ele>
        <time>2012-02-23T11:58:23.000Z</time>
      </trkpt>
      <trkpt lat="45.65206" lon="6.66905">
        <ele>2516.6000976562</ele>
        <time>2012-02-23T11:58:25.000Z</time>
      </trkpt>
      <trkpt lat="45.65204" lon="6.66897">
        <ele>2514.6000976562</ele>
        <time>2012-02-23T11:58:37.000Z</time>
      </trkpt>
      <trkpt lat="45.652" lon="6.66888">
        <ele>2513.1999511719</ele>
        <time>2012-02-23T11:58:45.000Z</time>
      </trkpt>
      <trkpt lat="45.652" lon="6.66888">
        <ele>2513</ele>
        <time>2012-02-23T11:58:46.000Z</time>
      </trkpt>
      <trkpt lat="45.65185" lon="6.66889">
        <ele>2508.6000976562</ele>
        <time>2012-02-23T11:58:52.000Z</time>
      </trkpt>
      <trkpt lat="45.65171" lon="6.66893">
        <ele>2503.1999511719</ele>
        <time>2012-02-23T11:58:57.000Z</time>
      </trkpt>
      <trkpt lat="45.6517" lon="6.66892">
        <ele>2502</ele>
        <time>2012-02-23T11:58:59.000Z</time>
      </trkpt>
      <trkpt lat="45.6517" lon="6.66879">
        <ele>2499.8000488281</ele>
        <time>2012-02-23T11:59:07.000Z</time>
      </trkpt>
      <trkpt lat="45.65171" lon="6.66874">
        <ele>2498.1999511719</ele>
        <time>2012-02-23T11:59:10.000Z</time>
      </trkpt>
      <trkpt lat="45.65172" lon="6.66863">
        <ele>2497.1999511719</ele>
        <time>2012-02-23T11:59:19.000Z</time>
      </trkpt>
      <trkpt lat="45.65171" lon="6.66861">
        <ele>2497.3999023438</ele>
        <time>2012-02-23T11:59:25.000Z</time>
      </trkpt>
      <trkpt lat="45.65167" lon="6.66862">
        <ele>2496</ele>
        <time>2012-02-23T11:59:31.000Z</time>
      </trkpt>
      <trkpt lat="45.65167" lon="6.66864">
        <ele>2495</ele>
        <time>2012-02-23T11:59:39.000Z</time>
      </trkpt>
      <trkpt lat="45.6518" lon="6.66872">
        <ele>2495.6000976562</ele>
        <time>2012-02-23T12:00:21.000Z</time>
      </trkpt>
      <trkpt lat="45.65171" lon="6.66862">
        <ele>2495.3999023438</ele>
        <time>2012-02-23T12:02:37.000Z</time>
      </trkpt>
      <trkpt lat="45.6517" lon="6.66866">
        <ele>2494.1999511719</ele>
        <time>2012-02-23T12:02:45.000Z</time>
      </trkpt>
      <trkpt lat="45.65164" lon="6.66873">
        <ele>2495</ele>
        <time>2012-02-23T12:03:17.000Z</time>
      </trkpt>
      <trkpt lat="45.65156" lon="6.66871">
        <ele>2496.3999023438</ele>
        <time>2012-02-23T12:04:49.000Z</time>
      </trkpt>
      <trkpt lat="45.65157" lon="6.66865">
        <ele>2495.3999023438</ele>
        <time>2012-02-23T12:04:53.000Z</time>
      </trkpt>
      <trkpt lat="45.65158" lon="6.66864">
        <ele>2496.6000976562</ele>
        <time>2012-02-23T12:04:58.000Z</time>
      </trkpt>
      <trkpt lat="45.65159" lon="6.66863">
        <ele>2497.6000976562</ele>
        <time>2012-02-23T12:05:02.000Z</time>
      </trkpt>
      <trkpt lat="45.65162" lon="6.66858">
        <ele>2495.8000488281</ele>
        <time>2012-02-23T12:05:06.000Z</time>
      </trkpt>
      <trkpt lat="45.65164" lon="6.66854">
        <ele>2494.1999511719</ele>
        <time>2012-02-23T12:05:08.000Z</time>
      </trkpt>
      <trkpt lat="45.65163" lon="6.66842">
        <ele>2492.3999023438</ele>
        <time>2012-02-23T12:05:11.000Z</time>
      </trkpt>
      <trkpt lat="45.6516" lon="6.66833">
        <ele>2489.1999511719</ele>
        <time>2012-02-23T12:05:13.000Z</time>
      </trkpt>
      <trkpt lat="45.65162" lon="6.66822">
        <ele>2485</ele>
        <time>2012-02-23T12:05:15.000Z</time>
      </trkpt>
      <trkpt lat="45.6516" lon="6.66804">
        <ele>2479.3999023438</ele>
        <time>2012-02-23T12:05:18.000Z</time>
      </trkpt>
      <trkpt lat="45.65156" lon="6.66795">
        <ele>2475.8000488281</ele>
        <time>2012-02-23T12:05:20.000Z</time>
      </trkpt>
      <trkpt lat="45.65152" lon="6.6679">
        <ele>2474.3999023438</ele>
        <time>2012-02-23T12:05:21.000Z</time>
      </trkpt>
      <trkpt lat="45.65141" lon="6.66767">
        <ele>2469.3999023438</ele>
        <time>2012-02-23T12:05:26.000Z</time>
      </trkpt>
      <trkpt lat="45.65137" lon="6.6676">
        <ele>2467.1999511719</ele>
        <time>2012-02-23T12:05:29.000Z</time>
      </trkpt>
      <trkpt lat="45.65138" lon="6.66761">
        <ele>2466.1999511719</ele>
        <time>2012-02-23T12:05:31.000Z</time>
      </trkpt>
      <trkpt lat="45.65138" lon="6.66761">
        <ele>2465.6000976562</ele>
        <time>2012-02-23T12:05:47.000Z</time>
      </trkpt>
      <trkpt lat="45.65138" lon="6.66747">
        <ele>2464</ele>
        <time>2012-02-23T12:05:52.000Z</time>
      </trkpt>
      <trkpt lat="45.65137" lon="6.66726">
        <ele>2462.1999511719</ele>
        <time>2012-02-23T12:05:56.000Z</time>
      </trkpt>
      <trkpt lat="45.65137" lon="6.66708">
        <ele>2461.3999023438</ele>
        <time>2012-02-23T12:06:02.000Z</time>
      </trkpt>
      <trkpt lat="45.65137" lon="6.66684">
        <ele>2460.1999511719</ele>
        <time>2012-02-23T12:06:12.000Z</time>
      </trkpt>
      <trkpt lat="45.65139" lon="6.66659">
        <ele>2458.1999511719</ele>
        <time>2012-02-23T12:06:21.000Z</time>
      </trkpt>
      <trkpt lat="45.65143" lon="6.66636">
        <ele>2456.8000488281</ele>
        <time>2012-02-23T12:06:30.000Z</time>
      </trkpt>
      <trkpt lat="45.65144" lon="6.66625">
        <ele>2456.6000976562</ele>
        <time>2012-02-23T12:06:37.000Z</time>
      </trkpt>
      <trkpt lat="45.65147" lon="6.66618">
        <ele>2455.3999023438</ele>
        <time>2012-02-23T12:06:42.000Z</time>
      </trkpt>
      <trkpt lat="45.65147" lon="6.66617">
        <ele>2456.3999023438</ele>
        <time>2012-02-23T12:07:18.000Z</time>
      </trkpt>
      <trkpt lat="45.6514" lon="6.66612">
        <ele>2455.3999023438</ele>
        <time>2012-02-23T12:07:23.000Z</time>
      </trkpt>
      <trkpt lat="45.65136" lon="6.66609">
        <ele>2455</ele>
        <time>2012-02-23T12:07:26.000Z</time>
      </trkpt>
      <trkpt lat="45.65135" lon="6.66608">
        <ele>2453.3999023438</ele>
        <time>2012-02-23T12:07:40.000Z</time>
      </trkpt>
      <trkpt lat="45.65135" lon="6.66607">
        <ele>2457.3999023438</ele>
        <time>2012-02-23T12:07:45.000Z</time>
      </trkpt>
      <trkpt lat="45.65135" lon="6.66609">
        <ele>2454.8000488281</ele>
        <time>2012-02-23T12:07:50.000Z</time>
      </trkpt>
      <trkpt lat="45.65134" lon="6.66607">
        <ele>2454.1999511719</ele>
        <time>2012-02-23T12:07:57.000Z</time>
      </trkpt>
      <trkpt lat="45.6514" lon="6.66613">
        <ele>2454.8000488281</ele>
        <time>2012-02-23T12:10:05.000Z</time>
      </trkpt>
      <trkpt lat="45.65139" lon="6.66614">
        <ele>2454.6000976562</ele>
        <time>2012-02-23T12:10:10.000Z</time>
      </trkpt>
      <trkpt lat="45.64463" lon="6.66068">
        <ele>2351</ele>
        <time>2012-02-23T12:35:55.000Z</time>
      </trkpt>
      <trkpt lat="45.64463" lon="6.66068">
        <ele>2351.6000976562</ele>
        <time>2012-02-23T12:35:57.000Z</time>
      </trkpt>
      <trkpt lat="45.64464" lon="6.66069">
        <ele>2362.1999511719</ele>
        <time>2012-02-23T12:36:13.000Z</time>
      </trkpt>
      <trkpt lat="45.64465" lon="6.66074">
        <ele>2369</ele>
        <time>2012-02-23T12:36:24.000Z</time>
      </trkpt>
      <trkpt lat="45.64465" lon="6.66072">
        <ele>2369</ele>
        <time>2012-02-23T12:36:36.000Z</time>
      </trkpt>
      <trkpt lat="45.64463" lon="6.66069">
        <ele>2371.1999511719</ele>
        <time>2012-02-23T12:37:35.000Z</time>
      </trkpt>
      <trkpt lat="45.64463" lon="6.66067">
        <ele>2369.1999511719</ele>
        <time>2012-02-23T12:37:48.000Z</time>
      </trkpt>
      <trkpt lat="45.64462" lon="6.66066">
        <ele>2372.1999511719</ele>
        <time>2012-02-23T12:37:53.000Z</time>
      </trkpt>
      <trkpt lat="45.64461" lon="6.66065">
        <ele>2372</ele>
        <time>2012-02-23T12:37:54.000Z</time>
      </trkpt>
      <trkpt lat="45.6446" lon="6.66065">
        <ele>2368.8000488281</ele>
        <time>2012-02-23T12:38:13.000Z</time>
      </trkpt>
      <trkpt lat="45.64463" lon="6.66068">
        <ele>2372</ele>
        <time>2012-02-23T12:38:18.000Z</time>
      </trkpt>
      <trkpt lat="45.64462" lon="6.66068">
        <ele>2370.8000488281</ele>
        <time>2012-02-23T12:38:22.000Z</time>
      </trkpt>
      <trkpt lat="45.64457" lon="6.66054">
        <ele>2372</ele>
        <time>2012-02-23T12:39:20.000Z</time>
      </trkpt>
      <trkpt lat="45.64455" lon="6.6605">
        <ele>2371.8000488281</ele>
        <time>2012-02-23T12:39:26.000Z</time>
      </trkpt>
      <trkpt lat="45.64453" lon="6.66044">
        <ele>2374</ele>
        <time>2012-02-23T12:40:04.000Z</time>
      </trkpt>
      <trkpt lat="45.64452" lon="6.6604">
        <ele>2374.1999511719</ele>
        <time>2012-02-23T12:40:09.000Z</time>
      </trkpt>
      <trkpt lat="45.64452" lon="6.66035">
        <ele>2375.6000976562</ele>
        <time>2012-02-23T12:40:16.000Z</time>
      </trkpt>
      <trkpt lat="45.64451" lon="6.66029">
        <ele>2375.3999023438</ele>
        <time>2012-02-23T12:40:22.000Z</time>
      </trkpt>
      <trkpt lat="45.6445" lon="6.66026">
        <ele>2376</ele>
        <time>2012-02-23T12:40:27.000Z</time>
      </trkpt>
      <trkpt lat="45.64449" lon="6.66021">
        <ele>2377.3999023438</ele>
        <time>2012-02-23T12:40:34.000Z</time>
      </trkpt>
      <trkpt lat="45.64449" lon="6.66016">
        <ele>2377.3999023438</ele>
        <time>2012-02-23T12:40:40.000Z</time>
      </trkpt>
      <trkpt lat="45.64448" lon="6.66009">
        <ele>2379</ele>
        <time>2012-02-23T12:40:48.000Z</time>
      </trkpt>
      <trkpt lat="45.64447" lon="6.66003">
        <ele>2380.3999023438</ele>
        <time>2012-02-23T12:40:54.000Z</time>
      </trkpt>
      <trkpt lat="45.64447" lon="6.65998">
        <ele>2380.8000488281</ele>
        <time>2012-02-23T12:41:01.000Z</time>
      </trkpt>
      <trkpt lat="45.64449" lon="6.65993">
        <ele>2381.6000976562</ele>
        <time>2012-02-23T12:41:08.000Z</time>
      </trkpt>
      <trkpt lat="45.6445" lon="6.65992">
        <ele>2382.8000488281</ele>
        <time>2012-02-23T12:41:10.000Z</time>
      </trkpt>
      <trkpt lat="45.6445" lon="6.65985">
        <ele>2383.3999023438</ele>
        <time>2012-02-23T12:41:17.000Z</time>
      </trkpt>
      <trkpt lat="45.64451" lon="6.65981">
        <ele>2383.8000488281</ele>
        <time>2012-02-23T12:41:23.000Z</time>
      </trkpt>
      <trkpt lat="45.6445" lon="6.65977">
        <ele>2384.1999511719</ele>
        <time>2012-02-23T12:41:30.000Z</time>
      </trkpt>
      <trkpt lat="45.6445" lon="6.65974">
        <ele>2385.8000488281</ele>
        <time>2012-02-23T12:41:37.000Z</time>
      </trkpt>
      <trkpt lat="45.6445" lon="6.65973">
        <ele>2386</ele>
        <time>2012-02-23T12:41:42.000Z</time>
      </trkpt>
      <trkpt lat="45.64449" lon="6.6597">
        <ele>2387</ele>
        <time>2012-02-23T12:41:47.000Z</time>
      </trkpt>
      <trkpt lat="45.64448" lon="6.65965">
        <ele>2387.6000976562</ele>
        <time>2012-02-23T12:41:53.000Z</time>
      </trkpt>
      <trkpt lat="45.64446" lon="6.65962">
        <ele>2388.3999023438</ele>
        <time>2012-02-23T12:41:58.000Z</time>
      </trkpt>
      <trkpt lat="45.64443" lon="6.65955">
        <ele>2389</ele>
        <time>2012-02-23T12:42:09.000Z</time>
      </trkpt>
      <trkpt lat="45.64442" lon="6.65952">
        <ele>2389.8000488281</ele>
        <time>2012-02-23T12:42:14.000Z</time>
      </trkpt>
      <trkpt lat="45.6444" lon="6.65945">
        <ele>2391.3999023438</ele>
        <time>2012-02-23T12:42:23.000Z</time>
      </trkpt>
      <trkpt lat="45.64438" lon="6.65942">
        <ele>2391.3999023438</ele>
        <time>2012-02-23T12:42:28.000Z</time>
      </trkpt>
      <trkpt lat="45.64438" lon="6.65939">
        <ele>2392.3999023438</ele>
        <time>2012-02-23T12:42:33.000Z</time>
      </trkpt>
      <trkpt lat="45.64436" lon="6.65935">
        <ele>2393.3999023438</ele>
        <time>2012-02-23T12:42:38.000Z</time>
      </trkpt>
      <trkpt lat="45.64436" lon="6.65933">
        <ele>2393.6000976562</ele>
        <time>2012-02-23T12:42:43.000Z</time>
      </trkpt>
      <trkpt lat="45.64433" lon="6.65929">
        <ele>2395</ele>
        <time>2012-02-23T12:42:50.000Z</time>
      </trkpt>
      <trkpt lat="45.64431" lon="6.65925">
        <ele>2395.8000488281</ele>
        <time>2012-02-23T12:42:57.000Z</time>
      </trkpt>
      <trkpt lat="45.64429" lon="6.65922">
        <ele>2396.1999511719</ele>
        <time>2012-02-23T12:43:02.000Z</time>
      </trkpt>
      <trkpt lat="45.64427" lon="6.65918">
        <ele>2397.1999511719</ele>
        <time>2012-02-23T12:43:06.000Z</time>
      </trkpt>
      <trkpt lat="45.64426" lon="6.65914">
        <ele>2397.6000976562</ele>
        <time>2012-02-23T12:43:11.000Z</time>
      </trkpt>
      <trkpt lat="45.64424" lon="6.65912">
        <ele>2398.3999023438</ele>
        <time>2012-02-23T12:43:17.000Z</time>
      </trkpt>
      <trkpt lat="45.64423" lon="6.65909">
        <ele>2399</ele>
        <time>2012-02-23T12:43:22.000Z</time>
      </trkpt>
      <trkpt lat="45.64422" lon="6.65907">
        <ele>2399.8000488281</ele>
        <time>2012-02-23T12:43:26.000Z</time>
      </trkpt>
      <trkpt lat="45.64421" lon="6.65905">
        <ele>2400.3999023438</ele>
        <time>2012-02-23T12:43:31.000Z</time>
      </trkpt>
      <trkpt lat="45.64419" lon="6.65901">
        <ele>2401</ele>
        <time>2012-02-23T12:43:36.000Z</time>
      </trkpt>
      <trkpt lat="45.64418" lon="6.65897">
        <ele>2402.1999511719</ele>
        <time>2012-02-23T12:43:42.000Z</time>
      </trkpt>
      <trkpt lat="45.64417" lon="6.65895">
        <ele>2402.1999511719</ele>
        <time>2012-02-23T12:43:46.000Z</time>
      </trkpt>
      <trkpt lat="45.64415" lon="6.65891">
        <ele>2403</ele>
        <time>2012-02-23T12:43:51.000Z</time>
      </trkpt>
      <trkpt lat="45.64414" lon="6.65889">
        <ele>2403.8000488281</ele>
        <time>2012-02-23T12:43:55.000Z</time>
      </trkpt>
      <trkpt lat="45.64411" lon="6.65883">
        <ele>2404.3999023438</ele>
        <time>2012-02-23T12:44:03.000Z</time>
      </trkpt>
      <trkpt lat="45.6441" lon="6.6588">
        <ele>2405.1999511719</ele>
        <time>2012-02-23T12:44:07.000Z</time>
      </trkpt>
      <trkpt lat="45.64409" lon="6.65877">
        <ele>2405.8000488281</ele>
        <time>2012-02-23T12:44:12.000Z</time>
      </trkpt>
      <trkpt lat="45.64407" lon="6.65873">
        <ele>2406.3999023438</ele>
        <time>2012-02-23T12:44:17.000Z</time>
      </trkpt>
      <trkpt lat="45.64407" lon="6.65872">
        <ele>2406.6000976562</ele>
        <time>2012-02-23T12:44:18.000Z</time>
      </trkpt>
      <trkpt lat="45.64408" lon="6.65871">
        <ele>2406.8000488281</ele>
        <time>2012-02-23T12:44:20.000Z</time>
      </trkpt>
      <trkpt lat="45.64406" lon="6.65866">
        <ele>2407.8000488281</ele>
        <time>2012-02-23T12:44:27.000Z</time>
      </trkpt>
      <trkpt lat="45.64404" lon="6.65861">
        <ele>2408.6000976562</ele>
        <time>2012-02-23T12:44:32.000Z</time>
      </trkpt>
      <trkpt lat="45.64403" lon="6.65859">
        <ele>2408.6000976562</ele>
        <time>2012-02-23T12:44:36.000Z</time>
      </trkpt>
      <trkpt lat="45.64403" lon="6.65854">
        <ele>2409.3999023438</ele>
        <time>2012-02-23T12:44:41.000Z</time>
      </trkpt>
      <trkpt lat="45.64402" lon="6.65852">
        <ele>2409.6000976562</ele>
        <time>2012-02-23T12:44:46.000Z</time>
      </trkpt>
      <trkpt lat="45.644" lon="6.65847">
        <ele>2409.3999023438</ele>
        <time>2012-02-23T12:44:50.000Z</time>
      </trkpt>
      <trkpt lat="45.64398" lon="6.65839">
        <ele>2410.3999023438</ele>
        <time>2012-02-23T12:44:57.000Z</time>
      </trkpt>
      <trkpt lat="45.644" lon="6.65839">
        <ele>2411.1999511719</ele>
        <time>2012-02-23T12:45:04.000Z</time>
      </trkpt>
      <trkpt lat="45.64399" lon="6.65834">
        <ele>2412.1999511719</ele>
        <time>2012-02-23T12:45:09.000Z</time>
      </trkpt>
      <trkpt lat="45.64399" lon="6.6583">
        <ele>2413.6000976562</ele>
        <time>2012-02-23T12:45:17.000Z</time>
      </trkpt>
      <trkpt lat="45.64399" lon="6.65825">
        <ele>2414</ele>
        <time>2012-02-23T12:45:22.000Z</time>
      </trkpt>
      <trkpt lat="45.64397" lon="6.65818">
        <ele>2414</ele>
        <time>2012-02-23T12:45:27.000Z</time>
      </trkpt>
      <trkpt lat="45.64396" lon="6.6581">
        <ele>2415.3999023438</ele>
        <time>2012-02-23T12:45:36.000Z</time>
      </trkpt>
      <trkpt lat="45.64396" lon="6.65806">
        <ele>2416.3999023438</ele>
        <time>2012-02-23T12:45:42.000Z</time>
      </trkpt>
      <trkpt lat="45.64397" lon="6.65801">
        <ele>2418</ele>
        <time>2012-02-23T12:45:50.000Z</time>
      </trkpt>
      <trkpt lat="45.64398" lon="6.65796">
        <ele>2419.1999511719</ele>
        <time>2012-02-23T12:45:56.000Z</time>
      </trkpt>
      <trkpt lat="45.64399" lon="6.65794">
        <ele>2419.8000488281</ele>
        <time>2012-02-23T12:46:03.000Z</time>
      </trkpt>
      <trkpt lat="45.64401" lon="6.65792">
        <ele>2420.6000976562</ele>
        <time>2012-02-23T12:46:08.000Z</time>
      </trkpt>
      <trkpt lat="45.64405" lon="6.65786">
        <ele>2421.8000488281</ele>
        <time>2012-02-23T12:46:22.000Z</time>
      </trkpt>
      <trkpt lat="45.64408" lon="6.65783">
        <ele>2422.3999023438</ele>
        <time>2012-02-23T12:46:29.000Z</time>
      </trkpt>
      <trkpt lat="45.6441" lon="6.65781">
        <ele>2423.6000976562</ele>
        <time>2012-02-23T12:46:35.000Z</time>
      </trkpt>
      <trkpt lat="45.64412" lon="6.6578">
        <ele>2424.3999023438</ele>
        <time>2012-02-23T12:46:39.000Z</time>
      </trkpt>
      <trkpt lat="45.64415" lon="6.65779">
        <ele>2424.6000976562</ele>
        <time>2012-02-23T12:46:44.000Z</time>
      </trkpt>
      <trkpt lat="45.64419" lon="6.65779">
        <ele>2425.6000976562</ele>
        <time>2012-02-23T12:46:49.000Z</time>
      </trkpt>
      <trkpt lat="45.64422" lon="6.65779">
        <ele>2426.1999511719</ele>
        <time>2012-02-23T12:46:54.000Z</time>
      </trkpt>
      <trkpt lat="45.64423" lon="6.65779">
        <ele>2426.6000976562</ele>
        <time>2012-02-23T12:46:56.000Z</time>
      </trkpt>
      <trkpt lat="45.64428" lon="6.65779">
        <ele>2427</ele>
        <time>2012-02-23T12:47:02.000Z</time>
      </trkpt>
      <trkpt lat="45.64426" lon="6.65774">
        <ele>2428.1999511719</ele>
        <time>2012-02-23T12:47:12.000Z</time>
      </trkpt>
      <trkpt lat="45.64423" lon="6.6577">
        <ele>2428.3999023438</ele>
        <time>2012-02-23T12:47:18.000Z</time>
      </trkpt>
      <trkpt lat="45.64423" lon="6.65769">
        <ele>2428.6000976562</ele>
        <time>2012-02-23T12:47:19.000Z</time>
      </trkpt>
      <trkpt lat="45.64419" lon="6.65765">
        <ele>2429.1999511719</ele>
        <time>2012-02-23T12:47:24.000Z</time>
      </trkpt>
      <trkpt lat="45.64417" lon="6.65761">
        <ele>2430</ele>
        <time>2012-02-23T12:47:29.000Z</time>
      </trkpt>
      <trkpt lat="45.64413" lon="6.65757">
        <ele>2430.6000976562</ele>
        <time>2012-02-23T12:47:35.000Z</time>
      </trkpt>
      <trkpt lat="45.64409" lon="6.65754">
        <ele>2431.3999023438</ele>
        <time>2012-02-23T12:47:40.000Z</time>
      </trkpt>
      <trkpt lat="45.64405" lon="6.6575">
        <ele>2432.1999511719</ele>
        <time>2012-02-23T12:47:47.000Z</time>
      </trkpt>
      <trkpt lat="45.64403" lon="6.65747">
        <ele>2433.3999023438</ele>
        <time>2012-02-23T12:47:54.000Z</time>
      </trkpt>
      <trkpt lat="45.64401" lon="6.65746">
        <ele>2433.8000488281</ele>
        <time>2012-02-23T12:47:59.000Z</time>
      </trkpt>
      <trkpt lat="45.64401" lon="6.65746">
        <ele>2434</ele>
        <time>2012-02-23T12:48:06.000Z</time>
      </trkpt>
      <trkpt lat="45.64406" lon="6.65746">
        <ele>2435.8000488281</ele>
        <time>2012-02-23T12:48:18.000Z</time>
      </trkpt>
      <trkpt lat="45.64409" lon="6.65746">
        <ele>2436.8000488281</ele>
        <time>2012-02-23T12:48:23.000Z</time>
      </trkpt>
      <trkpt lat="45.64412" lon="6.65744">
        <ele>2437.6000976562</ele>
        <time>2012-02-23T12:48:30.000Z</time>
      </trkpt>
      <trkpt lat="45.64413" lon="6.65745">
        <ele>2438.3999023438</ele>
        <time>2012-02-23T12:48:37.000Z</time>
      </trkpt>
      <trkpt lat="45.64417" lon="6.65744">
        <ele>2439.6000976562</ele>
        <time>2012-02-23T12:48:43.000Z</time>
      </trkpt>
      <trkpt lat="45.6442" lon="6.65743">
        <ele>2441.1999511719</ele>
        <time>2012-02-23T12:48:51.000Z</time>
      </trkpt>
      <trkpt lat="45.64425" lon="6.65741">
        <ele>2442.6000976562</ele>
        <time>2012-02-23T12:48:59.000Z</time>
      </trkpt>
      <trkpt lat="45.64428" lon="6.6574">
        <ele>2443.8000488281</ele>
        <time>2012-02-23T12:49:05.000Z</time>
      </trkpt>
      <trkpt lat="45.64429" lon="6.65739">
        <ele>2444.1999511719</ele>
        <time>2012-02-23T12:49:11.000Z</time>
      </trkpt>
      <trkpt lat="45.64427" lon="6.65733">
        <ele>2445.6000976562</ele>
        <time>2012-02-23T12:49:27.000Z</time>
      </trkpt>
      <trkpt lat="45.64426" lon="6.65727">
        <ele>2446.6000976562</ele>
        <time>2012-02-23T12:49:35.000Z</time>
      </trkpt>
      <trkpt lat="45.64424" lon="6.65724">
        <ele>2448.1999511719</ele>
        <time>2012-02-23T12:50:18.000Z</time>
      </trkpt>
      <trkpt lat="45.64427" lon="6.65723">
        <ele>2448.1999511719</ele>
        <time>2012-02-23T12:50:33.000Z</time>
      </trkpt>
      <trkpt lat="45.64429" lon="6.65723">
        <ele>2448.1999511719</ele>
        <time>2012-02-23T12:50:35.000Z</time>
      </trkpt>
      <trkpt lat="45.64432" lon="6.65722">
        <ele>2449.1999511719</ele>
        <time>2012-02-23T12:50:41.000Z</time>
      </trkpt>
      <trkpt lat="45.64432" lon="6.65722">
        <ele>2448.6000976562</ele>
        <time>2012-02-23T12:50:46.000Z</time>
      </trkpt>
      <trkpt lat="45.64431" lon="6.65721">
        <ele>2450.1999511719</ele>
        <time>2012-02-23T12:50:54.000Z</time>
      </trkpt>
      <trkpt lat="45.64434" lon="6.6572">
        <ele>2451.1999511719</ele>
        <time>2012-02-23T12:50:59.000Z</time>
      </trkpt>
      <trkpt lat="45.64437" lon="6.65723">
        <ele>2450.6000976562</ele>
        <time>2012-02-23T12:51:10.000Z</time>
      </trkpt>
      <trkpt lat="45.64437" lon="6.65724">
        <ele>2452.1999511719</ele>
        <time>2012-02-23T12:51:13.000Z</time>
      </trkpt>
      <trkpt lat="45.64438" lon="6.65725">
        <ele>2451.1999511719</ele>
        <time>2012-02-23T12:51:23.000Z</time>
      </trkpt>
      <trkpt lat="45.64443" lon="6.65728">
        <ele>2453</ele>
        <time>2012-02-23T12:51:35.000Z</time>
      </trkpt>
      <trkpt lat="45.64444" lon="6.65731">
        <ele>2453.1999511719</ele>
        <time>2012-02-23T12:51:46.000Z</time>
      </trkpt>
      <trkpt lat="45.64435" lon="6.65719">
        <ele>2456</ele>
        <time>2012-02-23T12:52:42.000Z</time>
      </trkpt>
      <trkpt lat="45.64435" lon="6.65718">
        <ele>2456.8000488281</ele>
        <time>2012-02-23T12:52:44.000Z</time>
      </trkpt>
      <trkpt lat="45.64434" lon="6.65717">
        <ele>2454.3999023438</ele>
        <time>2012-02-23T12:52:54.000Z</time>
      </trkpt>
      <trkpt lat="45.64425" lon="6.65706">
        <ele>2458.3999023438</ele>
        <time>2012-02-23T12:53:56.000Z</time>
      </trkpt>
      <trkpt lat="45.64434" lon="6.65705">
        <ele>2459</ele>
        <time>2012-02-23T12:54:22.000Z</time>
      </trkpt>
      <trkpt lat="45.64437" lon="6.65706">
        <ele>2459.6000976562</ele>
        <time>2012-02-23T12:54:27.000Z</time>
      </trkpt>
      <trkpt lat="45.64442" lon="6.65709">
        <ele>2461.1999511719</ele>
        <time>2012-02-23T12:54:34.000Z</time>
      </trkpt>
      <trkpt lat="45.64446" lon="6.65711">
        <ele>2462.3999023438</ele>
        <time>2012-02-23T12:54:40.000Z</time>
      </trkpt>
      <trkpt lat="45.64449" lon="6.65712">
        <ele>2463.1999511719</ele>
        <time>2012-02-23T12:54:45.000Z</time>
      </trkpt>
      <trkpt lat="45.64451" lon="6.65713">
        <ele>2463.8000488281</ele>
        <time>2012-02-23T12:54:51.000Z</time>
      </trkpt>
      <trkpt lat="45.64455" lon="6.65714">
        <ele>2465.1999511719</ele>
        <time>2012-02-23T12:54:58.000Z</time>
      </trkpt>
      <trkpt lat="45.6446" lon="6.65714">
        <ele>2466</ele>
        <time>2012-02-23T12:55:05.000Z</time>
      </trkpt>
      <trkpt lat="45.64462" lon="6.65715">
        <ele>2466</ele>
        <time>2012-02-23T12:55:10.000Z</time>
      </trkpt>
      <trkpt lat="45.64466" lon="6.65714">
        <ele>2468.6000976562</ele>
        <time>2012-02-23T12:55:19.000Z</time>
      </trkpt>
      <trkpt lat="45.64467" lon="6.65714">
        <ele>2469.8000488281</ele>
        <time>2012-02-23T12:55:23.000Z</time>
      </trkpt>
      <trkpt lat="45.6447" lon="6.65714">
        <ele>2469.3999023438</ele>
        <time>2012-02-23T12:55:30.000Z</time>
      </trkpt>
      <trkpt lat="45.64473" lon="6.65714">
        <ele>2469.8000488281</ele>
        <time>2012-02-23T12:55:39.000Z</time>
      </trkpt>
      <trkpt lat="45.64477" lon="6.65713">
        <ele>2470.3999023438</ele>
        <time>2012-02-23T12:55:47.000Z</time>
      </trkpt>
      <trkpt lat="45.64484" lon="6.6571">
        <ele>2471</ele>
        <time>2012-02-23T12:55:57.000Z</time>
      </trkpt>
      <trkpt lat="45.64488" lon="6.65707">
        <ele>2471.8000488281</ele>
        <time>2012-02-23T12:56:05.000Z</time>
      </trkpt>
      <trkpt lat="45.64492" lon="6.65705">
        <ele>2471.8000488281</ele>
        <time>2012-02-23T12:56:12.000Z</time>
      </trkpt>
      <trkpt lat="45.64497" lon="6.65704">
        <ele>2473.1999511719</ele>
        <time>2012-02-23T12:56:21.000Z</time>
      </trkpt>
      <trkpt lat="45.64499" lon="6.657">
        <ele>2474.1999511719</ele>
        <time>2012-02-23T12:56:28.000Z</time>
      </trkpt>
      <trkpt lat="45.64501" lon="6.65694">
        <ele>2474.3999023438</ele>
        <time>2012-02-23T12:56:36.000Z</time>
      </trkpt>
      <trkpt lat="45.64502" lon="6.65689">
        <ele>2474.8000488281</ele>
        <time>2012-02-23T12:56:45.000Z</time>
      </trkpt>
      <trkpt lat="45.64502" lon="6.65687">
        <ele>2477.1999511719</ele>
        <time>2012-02-23T12:57:58.000Z</time>
      </trkpt>
      <trkpt lat="45.64503" lon="6.65687">
        <ele>2475.1999511719</ele>
        <time>2012-02-23T12:58:02.000Z</time>
      </trkpt>
      <trkpt lat="45.64502" lon="6.65687">
        <ele>2475.3999023438</ele>
        <time>2012-02-23T12:58:06.000Z</time>
      </trkpt>
      <trkpt lat="45.64502" lon="6.6569">
        <ele>2475.6000976562</ele>
        <time>2012-02-23T12:58:11.000Z</time>
      </trkpt>
      <trkpt lat="45.64503" lon="6.6569">
        <ele>2475.8000488281</ele>
        <time>2012-02-23T12:58:12.000Z</time>
      </trkpt>
      <trkpt lat="45.64527" lon="6.64493">
        <ele>2156.3999023438</ele>
        <time>2012-02-23T13:28:57.000Z</time>
      </trkpt>
      <trkpt lat="45.64528" lon="6.64493">
        <ele>2156.1999511719</ele>
        <time>2012-02-23T13:28:58.000Z</time>
      </trkpt>
      <trkpt lat="45.64528" lon="6.64493">
        <ele>2156.3999023438</ele>
        <time>2012-02-23T13:29:04.000Z</time>
      </trkpt>
      <trkpt lat="45.64528" lon="6.64491">
        <ele>2157.3999023438</ele>
        <time>2012-02-23T13:29:15.000Z</time>
      </trkpt>
      <trkpt lat="45.64528" lon="6.64481">
        <ele>2156.3999023438</ele>
        <time>2012-02-23T13:29:19.000Z</time>
      </trkpt>
      <trkpt lat="45.64527" lon="6.64468">
        <ele>2154.8000488281</ele>
        <time>2012-02-23T13:29:21.000Z</time>
      </trkpt>
      <trkpt lat="45.64519" lon="6.64424">
        <ele>2147.8000488281</ele>
        <time>2012-02-23T13:29:27.000Z</time>
      </trkpt>
      <trkpt lat="45.64509" lon="6.6438">
        <ele>2141.1999511719</ele>
        <time>2012-02-23T13:29:32.000Z</time>
      </trkpt>
      <trkpt lat="45.64502" lon="6.64334">
        <ele>2134.8000488281</ele>
        <time>2012-02-23T13:29:37.000Z</time>
      </trkpt>
      <trkpt lat="45.64502" lon="6.64325">
        <ele>2134.1999511719</ele>
        <time>2012-02-23T13:29:38.000Z</time>
      </trkpt>
      <trkpt lat="45.64496" lon="6.64294">
        <ele>2129.8000488281</ele>
        <time>2012-02-23T13:29:43.000Z</time>
      </trkpt>
      <trkpt lat="45.6449" lon="6.64265">
        <ele>2125.6000976562</ele>
        <time>2012-02-23T13:29:48.000Z</time>
      </trkpt>
      <trkpt lat="45.64485" lon="6.64243">
        <ele>2123</ele>
        <time>2012-02-23T13:29:53.000Z</time>
      </trkpt>
      <trkpt lat="45.6448" lon="6.64234">
        <ele>2121.6000976562</ele>
        <time>2012-02-23T13:29:57.000Z</time>
      </trkpt>
      <trkpt lat="45.64478" lon="6.64231">
        <ele>2121.1999511719</ele>
        <time>2012-02-23T13:30:02.000Z</time>
      </trkpt>
      <trkpt lat="45.64476" lon="6.64228">
        <ele>2121</ele>
        <time>2012-02-23T13:30:11.000Z</time>
      </trkpt>
      <trkpt lat="45.64474" lon="6.64223">
        <ele>2121.1999511719</ele>
        <time>2012-02-23T13:30:22.000Z</time>
      </trkpt>
      <trkpt lat="45.64474" lon="6.64222">
        <ele>2121.1999511719</ele>
        <time>2012-02-23T13:30:28.000Z</time>
      </trkpt>
      <trkpt lat="45.64483" lon="6.64209">
        <ele>2118.6000976562</ele>
        <time>2012-02-23T13:30:32.000Z</time>
      </trkpt>
      <trkpt lat="45.64488" lon="6.64206">
        <ele>2118.3999023438</ele>
        <time>2012-02-23T13:30:33.000Z</time>
      </trkpt>
      <trkpt lat="45.64489" lon="6.64195">
        <ele>2114.1999511719</ele>
        <time>2012-02-23T13:30:35.000Z</time>
      </trkpt>
      <trkpt lat="45.64482" lon="6.64169">
        <ele>2107.6000976562</ele>
        <time>2012-02-23T13:30:38.000Z</time>
      </trkpt>
      <trkpt lat="45.64473" lon="6.64146">
        <ele>2102</ele>
        <time>2012-02-23T13:30:41.000Z</time>
      </trkpt>
      <trkpt lat="45.64471" lon="6.64127">
        <ele>2099.3999023438</ele>
        <time>2012-02-23T13:30:43.000Z</time>
      </trkpt>
      <trkpt lat="45.6447" lon="6.64096">
        <ele>2092</ele>
        <time>2012-02-23T13:30:46.000Z</time>
      </trkpt>
      <trkpt lat="45.6447" lon="6.64085">
        <ele>2089.3999023438</ele>
        <time>2012-02-23T13:30:47.000Z</time>
      </trkpt>
      <trkpt lat="45.64481" lon="6.64056">
        <ele>2081.6000976562</ele>
        <time>2012-02-23T13:30:51.000Z</time>
      </trkpt>
      <trkpt lat="45.64498" lon="6.64032">
        <ele>2071.3999023438</ele>
        <time>2012-02-23T13:30:55.000Z</time>
      </trkpt>
      <trkpt lat="45.64495" lon="6.64024">
        <ele>2067.1999511719</ele>
        <time>2012-02-23T13:30:58.000Z</time>
      </trkpt>
      <trkpt lat="45.64494" lon="6.64024">
        <ele>2067</ele>
        <time>2012-02-23T13:30:59.000Z</time>
      </trkpt>
      <trkpt lat="45.6449" lon="6.64026">
        <ele>2066.6000976562</ele>
        <time>2012-02-23T13:31:05.000Z</time>
      </trkpt>
      <trkpt lat="45.64491" lon="6.64034">
        <ele>2068.1999511719</ele>
        <time>2012-02-23T13:31:50.000Z</time>
      </trkpt>
      <trkpt lat="45.6449" lon="6.64034">
        <ele>2066.8000488281</ele>
        <time>2012-02-23T13:31:55.000Z</time>
      </trkpt>
      <trkpt lat="45.64492" lon="6.64033">
        <ele>2068.6000976562</ele>
        <time>2012-02-23T13:36:01.000Z</time>
      </trkpt>
      <trkpt lat="45.64492" lon="6.64028">
        <ele>2069</ele>
        <time>2012-02-23T13:37:09.000Z</time>
      </trkpt>
      <trkpt lat="45.64489" lon="6.64035">
        <ele>2069</ele>
        <time>2012-02-23T13:37:33.000Z</time>
      </trkpt>
      <trkpt lat="45.6449" lon="6.64038">
        <ele>2069.6000976562</ele>
        <time>2012-02-23T13:37:52.000Z</time>
      </trkpt>
      <trkpt lat="45.64493" lon="6.64035">
        <ele>2069.1999511719</ele>
        <time>2012-02-23T13:38:06.000Z</time>
      </trkpt>
      <trkpt lat="45.64491" lon="6.64036">
        <ele>2070.6000976562</ele>
        <time>2012-02-23T13:38:33.000Z</time>
      </trkpt>
      <trkpt lat="45.64488" lon="6.64031">
        <ele>2071.1999511719</ele>
        <time>2012-02-23T13:38:38.000Z</time>
      </trkpt>
      <trkpt lat="45.64488" lon="6.64031">
        <ele>2071</ele>
        <time>2012-02-23T13:38:49.000Z</time>
      </trkpt>
      <trkpt lat="45.64487" lon="6.64027">
        <ele>2070.8000488281</ele>
        <time>2012-02-23T13:39:58.000Z</time>
      </trkpt>
      <trkpt lat="45.64485" lon="6.64029">
        <ele>2071.3999023438</ele>
        <time>2012-02-23T13:40:37.000Z</time>
      </trkpt>
      <trkpt lat="45.64478" lon="6.64026">
        <ele>2072.6000976562</ele>
        <time>2012-02-23T13:40:46.000Z</time>
      </trkpt>
      <trkpt lat="45.64474" lon="6.64025">
        <ele>2072.8000488281</ele>
        <time>2012-02-23T13:40:55.000Z</time>
      </trkpt>
      <trkpt lat="45.6447" lon="6.64023">
        <ele>2073.1999511719</ele>
        <time>2012-02-23T13:41:02.000Z</time>
      </trkpt>
      <trkpt lat="45.64464" lon="6.6402">
        <ele>2073.6000976562</ele>
        <time>2012-02-23T13:41:11.000Z</time>
      </trkpt>
      <trkpt lat="45.64459" lon="6.64015">
        <ele>2074.1999511719</ele>
        <time>2012-02-23T13:41:19.000Z</time>
      </trkpt>
      <trkpt lat="45.64455" lon="6.64011">
        <ele>2075.3999023438</ele>
        <time>2012-02-23T13:41:25.000Z</time>
      </trkpt>
      <trkpt lat="45.64453" lon="6.6401">
        <ele>2076.1999511719</ele>
        <time>2012-02-23T13:41:27.000Z</time>
      </trkpt>
      <trkpt lat="45.64448" lon="6.64005">
        <ele>2075.8000488281</ele>
        <time>2012-02-23T13:41:37.000Z</time>
      </trkpt>
      <trkpt lat="45.64442" lon="6.64">
        <ele>2077.1999511719</ele>
        <time>2012-02-23T13:41:47.000Z</time>
      </trkpt>
      <trkpt lat="45.64437" lon="6.63994">
        <ele>2079.1999511719</ele>
        <time>2012-02-23T13:41:57.000Z</time>
      </trkpt>
      <trkpt lat="45.64434" lon="6.63991">
        <ele>2079.3999023438</ele>
        <time>2012-02-23T13:42:02.000Z</time>
      </trkpt>
      <trkpt lat="45.6443" lon="6.63986">
        <ele>2080.6000976562</ele>
        <time>2012-02-23T13:42:10.000Z</time>
      </trkpt>
      <trkpt lat="45.64427" lon="6.63982">
        <ele>2081.1999511719</ele>
        <time>2012-02-23T13:42:17.000Z</time>
      </trkpt>
      <trkpt lat="45.64425" lon="6.63978">
        <ele>2082.1999511719</ele>
        <time>2012-02-23T13:42:23.000Z</time>
      </trkpt>
      <trkpt lat="45.6442" lon="6.63971">
        <ele>2083</ele>
        <time>2012-02-23T13:42:33.000Z</time>
      </trkpt>
      <trkpt lat="45.64414" lon="6.63966">
        <ele>2083.8000488281</ele>
        <time>2012-02-23T13:42:43.000Z</time>
      </trkpt>
      <trkpt lat="45.6441" lon="6.63963">
        <ele>2085.8000488281</ele>
        <time>2012-02-23T13:42:51.000Z</time>
      </trkpt>
      <trkpt lat="45.64404" lon="6.63958">
        <ele>2084.8000488281</ele>
        <time>2012-02-23T13:43:00.000Z</time>
      </trkpt>
      <trkpt lat="45.644" lon="6.63954">
        <ele>2086.6000976562</ele>
        <time>2012-02-23T13:43:08.000Z</time>
      </trkpt>
      <trkpt lat="45.64395" lon="6.63951">
        <ele>2088.1999511719</ele>
        <time>2012-02-23T13:43:19.000Z</time>
      </trkpt>
      <trkpt lat="45.64391" lon="6.63948">
        <ele>2089.3999023438</ele>
        <time>2012-02-23T13:43:28.000Z</time>
      </trkpt>
      <trkpt lat="45.64386" lon="6.63943">
        <ele>2091</ele>
        <time>2012-02-23T13:43:36.000Z</time>
      </trkpt>
      <trkpt lat="45.64383" lon="6.63942">
        <ele>2090.8000488281</ele>
        <time>2012-02-23T13:43:38.000Z</time>
      </trkpt>
      <trkpt lat="45.64379" lon="6.63936">
        <ele>2090.1999511719</ele>
        <time>2012-02-23T13:43:46.000Z</time>
      </trkpt>
      <trkpt lat="45.64375" lon="6.63932">
        <ele>2093.1999511719</ele>
        <time>2012-02-23T13:43:53.000Z</time>
      </trkpt>
      <trkpt lat="45.6437" lon="6.6393">
        <ele>2093.8000488281</ele>
        <time>2012-02-23T13:43:59.000Z</time>
      </trkpt>
      <trkpt lat="45.64369" lon="6.6393">
        <ele>2094</ele>
        <time>2012-02-23T13:44:00.000Z</time>
      </trkpt>
      <trkpt lat="45.64363" lon="6.63925">
        <ele>2094.1999511719</ele>
        <time>2012-02-23T13:44:10.000Z</time>
      </trkpt>
      <trkpt lat="45.6436" lon="6.63923">
        <ele>2094.8000488281</ele>
        <time>2012-02-23T13:44:16.000Z</time>
      </trkpt>
      <trkpt lat="45.64353" lon="6.63918">
        <ele>2094.8000488281</ele>
        <time>2012-02-23T13:44:25.000Z</time>
      </trkpt>
      <trkpt lat="45.64348" lon="6.63913">
        <ele>2095.1999511719</ele>
        <time>2012-02-23T13:44:33.000Z</time>
      </trkpt>
      <trkpt lat="45.64342" lon="6.63904">
        <ele>2095.6000976562</ele>
        <time>2012-02-23T13:44:43.000Z</time>
      </trkpt>
      <trkpt lat="45.64339" lon="6.63898">
        <ele>2097</ele>
        <time>2012-02-23T13:44:51.000Z</time>
      </trkpt>
      <trkpt lat="45.64334" lon="6.63891">
        <ele>2097.1999511719</ele>
        <time>2012-02-23T13:44:59.000Z</time>
      </trkpt>
      <trkpt lat="45.6433" lon="6.63886">
        <ele>2099.1999511719</ele>
        <time>2012-02-23T13:45:07.000Z</time>
      </trkpt>
      <trkpt lat="45.64324" lon="6.63881">
        <ele>2100</ele>
        <time>2012-02-23T13:45:15.000Z</time>
      </trkpt>
      <trkpt lat="45.64316" lon="6.63875">
        <ele>2099</ele>
        <time>2012-02-23T13:45:26.000Z</time>
      </trkpt>
      <trkpt lat="45.64313" lon="6.63872">
        <ele>2101.3999023438</ele>
        <time>2012-02-23T13:45:31.000Z</time>
      </trkpt>
      <trkpt lat="45.64306" lon="6.63869">
        <ele>2101.1999511719</ele>
        <time>2012-02-23T13:45:40.000Z</time>
      </trkpt>
      <trkpt lat="45.643" lon="6.63866">
        <ele>2101.1999511719</ele>
        <time>2012-02-23T13:45:48.000Z</time>
      </trkpt>
      <trkpt lat="45.64297" lon="6.63866">
        <ele>2101.6000976562</ele>
        <time>2012-02-23T13:45:56.000Z</time>
      </trkpt>
      <trkpt lat="45.64295" lon="6.63866">
        <ele>2101.8000488281</ele>
        <time>2012-02-23T13:46:05.000Z</time>
      </trkpt>
      <trkpt lat="45.64291" lon="6.63863">
        <ele>2103</ele>
        <time>2012-02-23T13:46:13.000Z</time>
      </trkpt>
      <trkpt lat="45.64285" lon="6.63859">
        <ele>2104.3999023438</ele>
        <time>2012-02-23T13:46:22.000Z</time>
      </trkpt>
      <trkpt lat="45.64281" lon="6.63858">
        <ele>2104</ele>
        <time>2012-02-23T13:46:29.000Z</time>
      </trkpt>
      <trkpt lat="45.64281" lon="6.63858">
        <ele>2104</ele>
        <time>2012-02-23T13:46:30.000Z</time>
      </trkpt>
      <trkpt lat="45.64274" lon="6.63854">
        <ele>2105.6000976562</ele>
        <time>2012-02-23T13:46:40.000Z</time>
      </trkpt>
      <trkpt lat="45.64269" lon="6.6385">
        <ele>2106.1999511719</ele>
        <time>2012-02-23T13:46:49.000Z</time>
      </trkpt>
      <trkpt lat="45.64264" lon="6.63846">
        <ele>2108.3999023438</ele>
        <time>2012-02-23T13:46:58.000Z</time>
      </trkpt>
      <trkpt lat="45.64258" lon="6.63843">
        <ele>2109</ele>
        <time>2012-02-23T13:47:08.000Z</time>
      </trkpt>
      <trkpt lat="45.64257" lon="6.63843">
        <ele>2109.1999511719</ele>
        <time>2012-02-23T13:47:09.000Z</time>
      </trkpt>
      <trkpt lat="45.64249" lon="6.63838">
        <ele>2111</ele>
        <time>2012-02-23T13:47:20.000Z</time>
      </trkpt>
      <trkpt lat="45.64242" lon="6.63834">
        <ele>2110</ele>
        <time>2012-02-23T13:47:30.000Z</time>
      </trkpt>
      <trkpt lat="45.64235" lon="6.63828">
        <ele>2111.8000488281</ele>
        <time>2012-02-23T13:47:41.000Z</time>
      </trkpt>
      <trkpt lat="45.64231" lon="6.63825">
        <ele>2113</ele>
        <time>2012-02-23T13:47:48.000Z</time>
      </trkpt>
      <trkpt lat="45.64226" lon="6.63821">
        <ele>2112.3999023438</ele>
        <time>2012-02-23T13:47:57.000Z</time>
      </trkpt>
      <trkpt lat="45.64225" lon="6.6382">
        <ele>2113.1999511719</ele>
        <time>2012-02-23T13:47:58.000Z</time>
      </trkpt>
      <trkpt lat="45.6422" lon="6.63819">
        <ele>2113.3999023438</ele>
        <time>2012-02-23T13:48:02.000Z</time>
      </trkpt>
      <trkpt lat="45.6422" lon="6.63819">
        <ele>2113.6000976562</ele>
        <time>2012-02-23T13:48:03.000Z</time>
      </trkpt>
      <trkpt lat="45.64217" lon="6.63816">
        <ele>2113.8000488281</ele>
        <time>2012-02-23T13:48:08.000Z</time>
      </trkpt>
      <trkpt lat="45.64213" lon="6.63814">
        <ele>2114.3999023438</ele>
        <time>2012-02-23T13:48:16.000Z</time>
      </trkpt>
      <trkpt lat="45.64211" lon="6.63812">
        <ele>2114</ele>
        <time>2012-02-23T13:48:24.000Z</time>
      </trkpt>
      <trkpt lat="45.64208" lon="6.63807">
        <ele>2115</ele>
        <time>2012-02-23T13:48:32.000Z</time>
      </trkpt>
      <trkpt lat="45.64202" lon="6.63804">
        <ele>2114.3999023438</ele>
        <time>2012-02-23T13:48:41.000Z</time>
      </trkpt>
      <trkpt lat="45.64197" lon="6.63799">
        <ele>2114.6000976562</ele>
        <time>2012-02-23T13:48:49.000Z</time>
      </trkpt>
      <trkpt lat="45.6419" lon="6.63793">
        <ele>2116</ele>
        <time>2012-02-23T13:48:59.000Z</time>
      </trkpt>
      <trkpt lat="45.64189" lon="6.63792">
        <ele>2116.1999511719</ele>
        <time>2012-02-23T13:49:00.000Z</time>
      </trkpt>
      <trkpt lat="45.64186" lon="6.63789">
        <ele>2115.1999511719</ele>
        <time>2012-02-23T13:49:04.000Z</time>
      </trkpt>
      <trkpt lat="45.6418" lon="6.63782">
        <ele>2116.1999511719</ele>
        <time>2012-02-23T13:49:12.000Z</time>
      </trkpt>
      <trkpt lat="45.64173" lon="6.63775">
        <ele>2117</ele>
        <time>2012-02-23T13:49:22.000Z</time>
      </trkpt>
      <trkpt lat="45.64166" lon="6.63771">
        <ele>2118</ele>
        <time>2012-02-23T13:49:31.000Z</time>
      </trkpt>
      <trkpt lat="45.64162" lon="6.63768">
        <ele>2117.8000488281</ele>
        <time>2012-02-23T13:49:39.000Z</time>
      </trkpt>
      <trkpt lat="45.64158" lon="6.63765">
        <ele>2117.6000976562</ele>
        <time>2012-02-23T13:49:46.000Z</time>
      </trkpt>
      <trkpt lat="45.64154" lon="6.63763">
        <ele>2117.8000488281</ele>
        <time>2012-02-23T13:49:55.000Z</time>
      </trkpt>
      <trkpt lat="45.64148" lon="6.63758">
        <ele>2118.1999511719</ele>
        <time>2012-02-23T13:50:03.000Z</time>
      </trkpt>
      <trkpt lat="45.64139" lon="6.6375">
        <ele>2118.3999023438</ele>
        <time>2012-02-23T13:50:13.000Z</time>
      </trkpt>
      <trkpt lat="45.64131" lon="6.63742">
        <ele>2118.8000488281</ele>
        <time>2012-02-23T13:50:22.000Z</time>
      </trkpt>
      <trkpt lat="45.64123" lon="6.63738">
        <ele>2119</ele>
        <time>2012-02-23T13:50:31.000Z</time>
      </trkpt>
      <trkpt lat="45.64116" lon="6.63734">
        <ele>2119.3999023438</ele>
        <time>2012-02-23T13:50:39.000Z</time>
      </trkpt>
      <trkpt lat="45.64109" lon="6.6373">
        <ele>2119.6000976562</ele>
        <time>2012-02-23T13:50:48.000Z</time>
      </trkpt>
      <trkpt lat="45.64102" lon="6.63725">
        <ele>2120</ele>
        <time>2012-02-23T13:50:56.000Z</time>
      </trkpt>
      <trkpt lat="45.64094" lon="6.6372">
        <ele>2120.1999511719</ele>
        <time>2012-02-23T13:51:05.000Z</time>
      </trkpt>
      <trkpt lat="45.64089" lon="6.63714">
        <ele>2120.6000976562</ele>
        <time>2012-02-23T13:51:13.000Z</time>
      </trkpt>
      <trkpt lat="45.64083" lon="6.6371">
        <ele>2121</ele>
        <time>2012-02-23T13:51:21.000Z</time>
      </trkpt>
      <trkpt lat="45.64081" lon="6.63708">
        <ele>2120.6000976562</ele>
        <time>2012-02-23T13:51:26.000Z</time>
      </trkpt>
      <trkpt lat="45.64074" lon="6.63703">
        <ele>2121.1999511719</ele>
        <time>2012-02-23T13:51:34.000Z</time>
      </trkpt>
      <trkpt lat="45.64067" lon="6.63698">
        <ele>2121.1999511719</ele>
        <time>2012-02-23T13:51:41.000Z</time>
      </trkpt>
      <trkpt lat="45.64061" lon="6.63691">
        <ele>2119.8000488281</ele>
        <time>2012-02-23T13:51:48.000Z</time>
      </trkpt>
      <trkpt lat="45.64054" lon="6.63677">
        <ele>2119</ele>
        <time>2012-02-23T13:51:56.000Z</time>
      </trkpt>
      <trkpt lat="45.64047" lon="6.63663">
        <ele>2119.1999511719</ele>
        <time>2012-02-23T13:52:06.000Z</time>
      </trkpt>
      <trkpt lat="45.64042" lon="6.6365">
        <ele>2118.8000488281</ele>
        <time>2012-02-23T13:52:15.000Z</time>
      </trkpt>
      <trkpt lat="45.64035" lon="6.63635">
        <ele>2117.6000976562</ele>
        <time>2012-02-23T13:52:25.000Z</time>
      </trkpt>
      <trkpt lat="45.64032" lon="6.63622">
        <ele>2118</ele>
        <time>2012-02-23T13:52:33.000Z</time>
      </trkpt>
      <trkpt lat="45.64029" lon="6.63609">
        <ele>2117.8000488281</ele>
        <time>2012-02-23T13:52:42.000Z</time>
      </trkpt>
      <trkpt lat="45.64025" lon="6.63599">
        <ele>2118.3999023438</ele>
        <time>2012-02-23T13:52:51.000Z</time>
      </trkpt>
      <trkpt lat="45.64022" lon="6.63592">
        <ele>2118.6000976562</ele>
        <time>2012-02-23T13:52:58.000Z</time>
      </trkpt>
      <trkpt lat="45.64018" lon="6.63582">
        <ele>2118.6000976562</ele>
        <time>2012-02-23T13:53:05.000Z</time>
      </trkpt>
      <trkpt lat="45.64014" lon="6.63575">
        <ele>2118.6000976562</ele>
        <time>2012-02-23T13:53:13.000Z</time>
      </trkpt>
      <trkpt lat="45.6401" lon="6.63567">
        <ele>2119.6000976562</ele>
        <time>2012-02-23T13:53:20.000Z</time>
      </trkpt>
      <trkpt lat="45.64006" lon="6.63558">
        <ele>2120.3999023438</ele>
        <time>2012-02-23T13:53:28.000Z</time>
      </trkpt>
      <trkpt lat="45.64003" lon="6.63548">
        <ele>2120</ele>
        <time>2012-02-23T13:53:37.000Z</time>
      </trkpt>
      <trkpt lat="45.64" lon="6.63541">
        <ele>2122.6000976562</ele>
        <time>2012-02-23T13:53:44.000Z</time>
      </trkpt>
      <trkpt lat="45.63998" lon="6.63532">
        <ele>2122.3999023438</ele>
        <time>2012-02-23T13:53:51.000Z</time>
      </trkpt>
      <trkpt lat="45.63993" lon="6.63526">
        <ele>2123</ele>
        <time>2012-02-23T13:53:58.000Z</time>
      </trkpt>
      <trkpt lat="45.63989" lon="6.63521">
        <ele>2123.6000976562</ele>
        <time>2012-02-23T13:54:04.000Z</time>
      </trkpt>
      <trkpt lat="45.63988" lon="6.63516">
        <ele>2125</ele>
        <time>2012-02-23T13:54:10.000Z</time>
      </trkpt>
      <trkpt lat="45.63988" lon="6.63507">
        <ele>2124</ele>
        <time>2012-02-23T13:54:19.000Z</time>
      </trkpt>
      <trkpt lat="45.63988" lon="6.63499">
        <ele>2126.8000488281</ele>
        <time>2012-02-23T13:54:27.000Z</time>
      </trkpt>
      <trkpt lat="45.63989" lon="6.63493">
        <ele>2127.8000488281</ele>
        <time>2012-02-23T13:54:34.000Z</time>
      </trkpt>
      <trkpt lat="45.6399" lon="6.63493">
        <ele>2127.1999511719</ele>
        <time>2012-02-23T13:54:41.000Z</time>
      </trkpt>
      <trkpt lat="45.63993" lon="6.63489">
        <ele>2127.1999511719</ele>
        <time>2012-02-23T13:54:59.000Z</time>
      </trkpt>
      <trkpt lat="45.63995" lon="6.63485">
        <ele>2129.3999023438</ele>
        <time>2012-02-23T13:55:04.000Z</time>
      </trkpt>
      <trkpt lat="45.63996" lon="6.63484">
        <ele>2130</ele>
        <time>2012-02-23T13:55:05.000Z</time>
      </trkpt>
      <trkpt lat="45.63998" lon="6.6348">
        <ele>2131.6000976562</ele>
        <time>2012-02-23T13:55:12.000Z</time>
      </trkpt>
      <trkpt lat="45.63998" lon="6.63479">
        <ele>2131.8000488281</ele>
        <time>2012-02-23T13:55:13.000Z</time>
      </trkpt>
      <trkpt lat="45.63999" lon="6.63478">
        <ele>2130.6000976562</ele>
        <time>2012-02-23T13:55:19.000Z</time>
      </trkpt>
      <trkpt lat="45.64006" lon="6.63479">
        <ele>2129.8000488281</ele>
        <time>2012-02-23T13:56:57.000Z</time>
      </trkpt>
      <trkpt lat="45.64006" lon="6.63478">
        <ele>2129.8000488281</ele>
        <time>2012-02-23T13:57:03.000Z</time>
      </trkpt>
      <trkpt lat="45.64004" lon="6.6347">
        <ele>2131.1999511719</ele>
        <time>2012-02-23T13:57:10.000Z</time>
      </trkpt>
      <trkpt lat="45.64003" lon="6.63463">
        <ele>2130.8000488281</ele>
        <time>2012-02-23T13:57:17.000Z</time>
      </trkpt>
      <trkpt lat="45.64003" lon="6.63456">
        <ele>2133</ele>
        <time>2012-02-23T13:57:23.000Z</time>
      </trkpt>
      <trkpt lat="45.64002" lon="6.63447">
        <ele>2133</ele>
        <time>2012-02-23T13:57:32.000Z</time>
      </trkpt>
      <trkpt lat="45.64" lon="6.63442">
        <ele>2132.8000488281</ele>
        <time>2012-02-23T13:58:19.000Z</time>
      </trkpt>
      <trkpt lat="45.63999" lon="6.63441">
        <ele>2133</ele>
        <time>2012-02-23T13:58:23.000Z</time>
      </trkpt>
      <trkpt lat="45.64001" lon="6.63431">
        <ele>2134.8000488281</ele>
        <time>2012-02-23T13:58:32.000Z</time>
      </trkpt>
      <trkpt lat="45.64001" lon="6.63425">
        <ele>2136.1999511719</ele>
        <time>2012-02-23T13:58:39.000Z</time>
      </trkpt>
      <trkpt lat="45.63999" lon="6.63416">
        <ele>2136.1999511719</ele>
        <time>2012-02-23T13:58:48.000Z</time>
      </trkpt>
      <trkpt lat="45.63995" lon="6.6341">
        <ele>2138.6000976562</ele>
        <time>2012-02-23T13:58:56.000Z</time>
      </trkpt>
      <trkpt lat="45.63991" lon="6.63405">
        <ele>2139.8000488281</ele>
        <time>2012-02-23T13:59:07.000Z</time>
      </trkpt>
      <trkpt lat="45.6399" lon="6.63404">
        <ele>2140</ele>
        <time>2012-02-23T13:59:09.000Z</time>
      </trkpt>
      <trkpt lat="45.63986" lon="6.63399">
        <ele>2141.8000488281</ele>
        <time>2012-02-23T13:59:16.000Z</time>
      </trkpt>
      <trkpt lat="45.6398" lon="6.63392">
        <ele>2141.6000976562</ele>
        <time>2012-02-23T13:59:25.000Z</time>
      </trkpt>
      <trkpt lat="45.63974" lon="6.63384">
        <ele>2144</ele>
        <time>2012-02-23T13:59:35.000Z</time>
      </trkpt>
      <trkpt lat="45.63974" lon="6.63384">
        <ele>2144</ele>
        <time>2012-02-23T13:59:36.000Z</time>
      </trkpt>
      <trkpt lat="45.63969" lon="6.63376">
        <ele>2145.6000976562</ele>
        <time>2012-02-23T13:59:45.000Z</time>
      </trkpt>
      <trkpt lat="45.63963" lon="6.63367">
        <ele>2145.1999511719</ele>
        <time>2012-02-23T13:59:55.000Z</time>
      </trkpt>
      <trkpt lat="45.63959" lon="6.63362">
        <ele>2146.1999511719</ele>
        <time>2012-02-23T14:00:01.000Z</time>
      </trkpt>
      <trkpt lat="45.63959" lon="6.6336">
        <ele>2146.6000976562</ele>
        <time>2012-02-23T14:00:03.000Z</time>
      </trkpt>
      <trkpt lat="45.63952" lon="6.63351">
        <ele>2147.6000976562</ele>
        <time>2012-02-23T14:00:13.000Z</time>
      </trkpt>
      <trkpt lat="45.63947" lon="6.63347">
        <ele>2147.8000488281</ele>
        <time>2012-02-23T14:00:21.000Z</time>
      </trkpt>
      <trkpt lat="45.63943" lon="6.63343">
        <ele>2148.1999511719</ele>
        <time>2012-02-23T14:00:29.000Z</time>
      </trkpt>
      <trkpt lat="45.63939" lon="6.63336">
        <ele>2149</ele>
        <time>2012-02-23T14:00:42.000Z</time>
      </trkpt>
      <trkpt lat="45.63933" lon="6.63327">
        <ele>2148.8000488281</ele>
        <time>2012-02-23T14:00:53.000Z</time>
      </trkpt>
      <trkpt lat="45.63928" lon="6.6332">
        <ele>2150.8000488281</ele>
        <time>2012-02-23T14:01:02.000Z</time>
      </trkpt>
      <trkpt lat="45.63928" lon="6.63319">
        <ele>2151</ele>
        <time>2012-02-23T14:01:03.000Z</time>
      </trkpt>
      <trkpt lat="45.63923" lon="6.63313">
        <ele>2151.3999023438</ele>
        <time>2012-02-23T14:01:11.000Z</time>
      </trkpt>
      <trkpt lat="45.63917" lon="6.63304">
        <ele>2152</ele>
        <time>2012-02-23T14:01:19.000Z</time>
      </trkpt>
      <trkpt lat="45.63913" lon="6.63297">
        <ele>2152</ele>
        <time>2012-02-23T14:01:26.000Z</time>
      </trkpt>
      <trkpt lat="45.63909" lon="6.6329">
        <ele>2152.1999511719</ele>
        <time>2012-02-23T14:01:33.000Z</time>
      </trkpt>
      <trkpt lat="45.63901" lon="6.63277">
        <ele>2151.6000976562</ele>
        <time>2012-02-23T14:01:44.000Z</time>
      </trkpt>
      <trkpt lat="45.63897" lon="6.63269">
        <ele>2153.1999511719</ele>
        <time>2012-02-23T14:01:52.000Z</time>
      </trkpt>
      <trkpt lat="45.6389" lon="6.63257">
        <ele>2153.3999023438</ele>
        <time>2012-02-23T14:02:03.000Z</time>
      </trkpt>
      <trkpt lat="45.63885" lon="6.63249">
        <ele>2154.1999511719</ele>
        <time>2012-02-23T14:02:11.000Z</time>
      </trkpt>
      <trkpt lat="45.6388" lon="6.6324">
        <ele>2154.8000488281</ele>
        <time>2012-02-23T14:02:20.000Z</time>
      </trkpt>
      <trkpt lat="45.63873" lon="6.6323">
        <ele>2155.3999023438</ele>
        <time>2012-02-23T14:02:30.000Z</time>
      </trkpt>
      <trkpt lat="45.63868" lon="6.63221">
        <ele>2155.6000976562</ele>
        <time>2012-02-23T14:02:38.000Z</time>
      </trkpt>
      <trkpt lat="45.63862" lon="6.63213">
        <ele>2155.3999023438</ele>
        <time>2012-02-23T14:02:47.000Z</time>
      </trkpt>
      <trkpt lat="45.63858" lon="6.6321">
        <ele>2156.6000976562</ele>
        <time>2012-02-23T14:02:54.000Z</time>
      </trkpt>
      <trkpt lat="45.63853" lon="6.63203">
        <ele>2157.1999511719</ele>
        <time>2012-02-23T14:03:02.000Z</time>
      </trkpt>
      <trkpt lat="45.63848" lon="6.63197">
        <ele>2158.3999023438</ele>
        <time>2012-02-23T14:03:10.000Z</time>
      </trkpt>
      <trkpt lat="45.63845" lon="6.63193">
        <ele>2158.8000488281</ele>
        <time>2012-02-23T14:03:15.000Z</time>
      </trkpt>
      <trkpt lat="45.63843" lon="6.63193">
        <ele>2160</ele>
        <time>2012-02-23T14:03:17.000Z</time>
      </trkpt>
      <trkpt lat="45.63837" lon="6.63188">
        <ele>2160.1999511719</ele>
        <time>2012-02-23T14:03:27.000Z</time>
      </trkpt>
      <trkpt lat="45.63832" lon="6.6318">
        <ele>2160.3999023438</ele>
        <time>2012-02-23T14:03:35.000Z</time>
      </trkpt>
      <trkpt lat="45.63826" lon="6.63173">
        <ele>2161</ele>
        <time>2012-02-23T14:03:44.000Z</time>
      </trkpt>
      <trkpt lat="45.63822" lon="6.63165">
        <ele>2162</ele>
        <time>2012-02-23T14:03:52.000Z</time>
      </trkpt>
      <trkpt lat="45.63819" lon="6.63158">
        <ele>2163</ele>
        <time>2012-02-23T14:03:59.000Z</time>
      </trkpt>
      <trkpt lat="45.63815" lon="6.63149">
        <ele>2162.3999023438</ele>
        <time>2012-02-23T14:04:07.000Z</time>
      </trkpt>
      <trkpt lat="45.63813" lon="6.63145">
        <ele>2164.6000976562</ele>
        <time>2012-02-23T14:04:12.000Z</time>
      </trkpt>
      <trkpt lat="45.63808" lon="6.63138">
        <ele>2165.6000976562</ele>
        <time>2012-02-23T14:04:20.000Z</time>
      </trkpt>
      <trkpt lat="45.63804" lon="6.63132">
        <ele>2166.6000976562</ele>
        <time>2012-02-23T14:04:27.000Z</time>
      </trkpt>
      <trkpt lat="45.63802" lon="6.63129">
        <ele>2165.6000976562</ele>
        <time>2012-02-23T14:04:31.000Z</time>
      </trkpt>
      <trkpt lat="45.63797" lon="6.63122">
        <ele>2168.3999023438</ele>
        <time>2012-02-23T14:04:40.000Z</time>
      </trkpt>
      <trkpt lat="45.63793" lon="6.63115">
        <ele>2169.8000488281</ele>
        <time>2012-02-23T14:04:48.000Z</time>
      </trkpt>
      <trkpt lat="45.63791" lon="6.63112">
        <ele>2169</ele>
        <time>2012-02-23T14:04:53.000Z</time>
      </trkpt>
      <trkpt lat="45.63789" lon="6.6311">
        <ele>2171.1999511719</ele>
        <time>2012-02-23T14:04:59.000Z</time>
      </trkpt>
      <trkpt lat="45.63786" lon="6.63105">
        <ele>2172.1999511719</ele>
        <time>2012-02-23T14:05:07.000Z</time>
      </trkpt>
      <trkpt lat="45.63783" lon="6.63099">
        <ele>2173</ele>
        <time>2012-02-23T14:05:17.000Z</time>
      </trkpt>
      <trkpt lat="45.6378" lon="6.63096">
        <ele>2175</ele>
        <time>2012-02-23T14:05:22.000Z</time>
      </trkpt>
      <trkpt lat="45.63776" lon="6.63092">
        <ele>2174.1999511719</ele>
        <time>2012-02-23T14:05:31.000Z</time>
      </trkpt>
      <trkpt lat="45.63772" lon="6.63088">
        <ele>2177</ele>
        <time>2012-02-23T14:05:39.000Z</time>
      </trkpt>
      <trkpt lat="45.63769" lon="6.63083">
        <ele>2176.8000488281</ele>
        <time>2012-02-23T14:05:47.000Z</time>
      </trkpt>
      <trkpt lat="45.63768" lon="6.6308">
        <ele>2178.1999511719</ele>
        <time>2012-02-23T14:05:50.000Z</time>
      </trkpt>
      <trkpt lat="45.63766" lon="6.63077">
        <ele>2178</ele>
        <time>2012-02-23T14:05:55.000Z</time>
      </trkpt>
      <trkpt lat="45.63764" lon="6.63073">
        <ele>2179.3999023438</ele>
        <time>2012-02-23T14:06:00.000Z</time>
      </trkpt>
      <trkpt lat="45.63762" lon="6.63071">
        <ele>2181</ele>
        <time>2012-02-23T14:06:05.000Z</time>
      </trkpt>
      <trkpt lat="45.63761" lon="6.63071">
        <ele>2181.1999511719</ele>
        <time>2012-02-23T14:06:06.000Z</time>
      </trkpt>
      <trkpt lat="45.6376" lon="6.63068">
        <ele>2180.3999023438</ele>
        <time>2012-02-23T14:06:10.000Z</time>
      </trkpt>
      <trkpt lat="45.63757" lon="6.63068">
        <ele>2181.8000488281</ele>
        <time>2012-02-23T14:06:14.000Z</time>
      </trkpt>
      <trkpt lat="45.63755" lon="6.63066">
        <ele>2182</ele>
        <time>2012-02-23T14:06:18.000Z</time>
      </trkpt>
      <trkpt lat="45.63751" lon="6.63062">
        <ele>2183.3999023438</ele>
        <time>2012-02-23T14:06:26.000Z</time>
      </trkpt>
      <trkpt lat="45.63747" lon="6.63057">
        <ele>2184.1999511719</ele>
        <time>2012-02-23T14:06:34.000Z</time>
      </trkpt>
      <trkpt lat="45.63746" lon="6.63057">
        <ele>2184.3999023438</ele>
        <time>2012-02-23T14:06:35.000Z</time>
      </trkpt>
      <trkpt lat="45.63742" lon="6.63054">
        <ele>2184.8000488281</ele>
        <time>2012-02-23T14:06:43.000Z</time>
      </trkpt>
      <trkpt lat="45.63739" lon="6.63051">
        <ele>2185</ele>
        <time>2012-02-23T14:06:49.000Z</time>
      </trkpt>
      <trkpt lat="45.63733" lon="6.63046">
        <ele>2186.1999511719</ele>
        <time>2012-02-23T14:06:59.000Z</time>
      </trkpt>
      <trkpt lat="45.6373" lon="6.63046">
        <ele>2185.6000976562</ele>
        <time>2012-02-23T14:07:07.000Z</time>
      </trkpt>
      <trkpt lat="45.63729" lon="6.63046">
        <ele>2188.3999023438</ele>
        <time>2012-02-23T14:07:12.000Z</time>
      </trkpt>
      <trkpt lat="45.63729" lon="6.63046">
        <ele>2185.3999023438</ele>
        <time>2012-02-23T14:07:17.000Z</time>
      </trkpt>
      <trkpt lat="45.63729" lon="6.63046">
        <ele>2187.1999511719</ele>
        <time>2012-02-23T14:07:19.000Z</time>
      </trkpt>
      <trkpt lat="45.63724" lon="6.63045">
        <ele>2188.3999023438</ele>
        <time>2012-02-23T14:07:31.000Z</time>
      </trkpt>
      <trkpt lat="45.63717" lon="6.63041">
        <ele>2187.6000976562</ele>
        <time>2012-02-23T14:07:40.000Z</time>
      </trkpt>
      <trkpt lat="45.6371" lon="6.63039">
        <ele>2188.3999023438</ele>
        <time>2012-02-23T14:07:48.000Z</time>
      </trkpt>
      <trkpt lat="45.63701" lon="6.63036">
        <ele>2188.6000976562</ele>
        <time>2012-02-23T14:07:59.000Z</time>
      </trkpt>
      <trkpt lat="45.63695" lon="6.63032">
        <ele>2190.8000488281</ele>
        <time>2012-02-23T14:08:09.000Z</time>
      </trkpt>
      <trkpt lat="45.63688" lon="6.63027">
        <ele>2190.3999023438</ele>
        <time>2012-02-23T14:08:20.000Z</time>
      </trkpt>
      <trkpt lat="45.63683" lon="6.63022">
        <ele>2193.1999511719</ele>
        <time>2012-02-23T14:08:29.000Z</time>
      </trkpt>
      <trkpt lat="45.63677" lon="6.63018">
        <ele>2194.8000488281</ele>
        <time>2012-02-23T14:08:38.000Z</time>
      </trkpt>
      <trkpt lat="45.63671" lon="6.63015">
        <ele>2194.3999023438</ele>
        <time>2012-02-23T14:08:47.000Z</time>
      </trkpt>
      <trkpt lat="45.63666" lon="6.63014">
        <ele>2194.6000976562</ele>
        <time>2012-02-23T14:08:54.000Z</time>
      </trkpt>
      <trkpt lat="45.6366" lon="6.63012">
        <ele>2197.3999023438</ele>
        <time>2012-02-23T14:09:04.000Z</time>
      </trkpt>
      <trkpt lat="45.63653" lon="6.6301">
        <ele>2197.3999023438</ele>
        <time>2012-02-23T14:09:14.000Z</time>
      </trkpt>
      <trkpt lat="45.63646" lon="6.63007">
        <ele>2199.8000488281</ele>
        <time>2012-02-23T14:09:24.000Z</time>
      </trkpt>
      <trkpt lat="45.63638" lon="6.63005">
        <ele>2200.3999023438</ele>
        <time>2012-02-23T14:09:34.000Z</time>
      </trkpt>
      <trkpt lat="45.63631" lon="6.63003">
        <ele>2201.1999511719</ele>
        <time>2012-02-23T14:09:43.000Z</time>
      </trkpt>
      <trkpt lat="45.63628" lon="6.63002">
        <ele>2201.1999511719</ele>
        <time>2012-02-23T14:09:46.000Z</time>
      </trkpt>
      <trkpt lat="45.63628" lon="6.62999">
        <ele>2201.3999023438</ele>
        <time>2012-02-23T14:09:50.000Z</time>
      </trkpt>
      <trkpt lat="45.63626" lon="6.62998">
        <ele>2202.1999511719</ele>
        <time>2012-02-23T14:09:53.000Z</time>
      </trkpt>
      <trkpt lat="45.6362" lon="6.62993">
        <ele>2202.8000488281</ele>
        <time>2012-02-23T14:10:02.000Z</time>
      </trkpt>
      <trkpt lat="45.63612" lon="6.62987">
        <ele>2204.1999511719</ele>
        <time>2012-02-23T14:10:12.000Z</time>
      </trkpt>
      <trkpt lat="45.63605" lon="6.62984">
        <ele>2205</ele>
        <time>2012-02-23T14:10:20.000Z</time>
      </trkpt>
      <trkpt lat="45.63605" lon="6.62984">
        <ele>2205.1999511719</ele>
        <time>2012-02-23T14:10:21.000Z</time>
      </trkpt>
      <trkpt lat="45.63599" lon="6.62983">
        <ele>2204.1999511719</ele>
        <time>2012-02-23T14:10:29.000Z</time>
      </trkpt>
      <trkpt lat="45.63593" lon="6.62982">
        <ele>2206.6000976562</ele>
        <time>2012-02-23T14:10:35.000Z</time>
      </trkpt>
      <trkpt lat="45.63587" lon="6.62979">
        <ele>2206.8000488281</ele>
        <time>2012-02-23T14:10:43.000Z</time>
      </trkpt>
      <trkpt lat="45.63585" lon="6.62978">
        <ele>2207.8000488281</ele>
        <time>2012-02-23T14:10:45.000Z</time>
      </trkpt>
      <trkpt lat="45.6358" lon="6.62975">
        <ele>2207.3999023438</ele>
        <time>2012-02-23T14:10:53.000Z</time>
      </trkpt>
      <trkpt lat="45.63574" lon="6.62972">
        <ele>2208</ele>
        <time>2012-02-23T14:11:01.000Z</time>
      </trkpt>
      <trkpt lat="45.63568" lon="6.62968">
        <ele>2210.3999023438</ele>
        <time>2012-02-23T14:11:10.000Z</time>
      </trkpt>
      <trkpt lat="45.63562" lon="6.62963">
        <ele>2210.1999511719</ele>
        <time>2012-02-23T14:11:20.000Z</time>
      </trkpt>
      <trkpt lat="45.63554" lon="6.62958">
        <ele>2212.6000976562</ele>
        <time>2012-02-23T14:11:30.000Z</time>
      </trkpt>
      <trkpt lat="45.63549" lon="6.62953">
        <ele>2212.3999023438</ele>
        <time>2012-02-23T14:11:38.000Z</time>
      </trkpt>
      <trkpt lat="45.63546" lon="6.62951">
        <ele>2214</ele>
        <time>2012-02-23T14:11:42.000Z</time>
      </trkpt>
      <trkpt lat="45.63539" lon="6.62945">
        <ele>2215.8000488281</ele>
        <time>2012-02-23T14:11:52.000Z</time>
      </trkpt>
      <trkpt lat="45.63532" lon="6.62941">
        <ele>2215.1999511719</ele>
        <time>2012-02-23T14:12:02.000Z</time>
      </trkpt>
      <trkpt lat="45.63528" lon="6.62937">
        <ele>2216.1999511719</ele>
        <time>2012-02-23T14:12:09.000Z</time>
      </trkpt>
      <trkpt lat="45.63522" lon="6.62932">
        <ele>2217.3999023438</ele>
        <time>2012-02-23T14:12:18.000Z</time>
      </trkpt>
      <trkpt lat="45.63516" lon="6.62927">
        <ele>2220.8000488281</ele>
        <time>2012-02-23T14:12:29.000Z</time>
      </trkpt>
      <trkpt lat="45.63508" lon="6.6292">
        <ele>2222</ele>
        <time>2012-02-23T14:12:41.000Z</time>
      </trkpt>
      <trkpt lat="45.63502" lon="6.62916">
        <ele>2220.6000976562</ele>
        <time>2012-02-23T14:12:49.000Z</time>
      </trkpt>
      <trkpt lat="45.63498" lon="6.62912">
        <ele>2223.6000976562</ele>
        <time>2012-02-23T14:12:56.000Z</time>
      </trkpt>
      <trkpt lat="45.63493" lon="6.6291">
        <ele>2224.8000488281</ele>
        <time>2012-02-23T14:13:04.000Z</time>
      </trkpt>
      <trkpt lat="45.63488" lon="6.62906">
        <ele>2225.8000488281</ele>
        <time>2012-02-23T14:13:13.000Z</time>
      </trkpt>
      <trkpt lat="45.63483" lon="6.62903">
        <ele>2226</ele>
        <time>2012-02-23T14:13:20.000Z</time>
      </trkpt>
      <trkpt lat="45.63476" lon="6.62899">
        <ele>2225.8000488281</ele>
        <time>2012-02-23T14:13:31.000Z</time>
      </trkpt>
      <trkpt lat="45.6347" lon="6.62896">
        <ele>2227.1999511719</ele>
        <time>2012-02-23T14:13:40.000Z</time>
      </trkpt>
      <trkpt lat="45.63464" lon="6.62892">
        <ele>2227.8000488281</ele>
        <time>2012-02-23T14:13:49.000Z</time>
      </trkpt>
      <trkpt lat="45.63459" lon="6.62886">
        <ele>2229.8000488281</ele>
        <time>2012-02-23T14:13:59.000Z</time>
      </trkpt>
      <trkpt lat="45.63455" lon="6.62878">
        <ele>2231.3999023438</ele>
        <time>2012-02-23T14:14:09.000Z</time>
      </trkpt>
      <trkpt lat="45.63454" lon="6.62877">
        <ele>2232.3999023438</ele>
        <time>2012-02-23T14:14:11.000Z</time>
      </trkpt>
      <trkpt lat="45.6345" lon="6.62868">
        <ele>2233</ele>
        <time>2012-02-23T14:14:21.000Z</time>
      </trkpt>
      <trkpt lat="45.63445" lon="6.62862">
        <ele>2233.8000488281</ele>
        <time>2012-02-23T14:14:31.000Z</time>
      </trkpt>
      <trkpt lat="45.63441" lon="6.62855">
        <ele>2235.3999023438</ele>
        <time>2012-02-23T14:14:40.000Z</time>
      </trkpt>
      <trkpt lat="45.63435" lon="6.62847">
        <ele>2237.6000976562</ele>
        <time>2012-02-23T14:14:51.000Z</time>
      </trkpt>
      <trkpt lat="45.63431" lon="6.62841">
        <ele>2236.8000488281</ele>
        <time>2012-02-23T14:15:00.000Z</time>
      </trkpt>
      <trkpt lat="45.63429" lon="6.62837">
        <ele>2238.8000488281</ele>
        <time>2012-02-23T14:15:09.000Z</time>
      </trkpt>
      <trkpt lat="45.63426" lon="6.62832">
        <ele>2240.3999023438</ele>
        <time>2012-02-23T14:15:17.000Z</time>
      </trkpt>
      <trkpt lat="45.63421" lon="6.62825">
        <ele>2241.6000976562</ele>
        <time>2012-02-23T14:15:27.000Z</time>
      </trkpt>
      <trkpt lat="45.63417" lon="6.62819">
        <ele>2244.1999511719</ele>
        <time>2012-02-23T14:15:37.000Z</time>
      </trkpt>
      <trkpt lat="45.63416" lon="6.62819">
        <ele>2244.6000976562</ele>
        <time>2012-02-23T14:15:38.000Z</time>
      </trkpt>
      <trkpt lat="45.63413" lon="6.62815">
        <ele>2244.8000488281</ele>
        <time>2012-02-23T14:15:44.000Z</time>
      </trkpt>
      <trkpt lat="45.63408" lon="6.62809">
        <ele>2246.6000976562</ele>
        <time>2012-02-23T14:15:54.000Z</time>
      </trkpt>
      <trkpt lat="45.63407" lon="6.62809">
        <ele>2246.8000488281</ele>
        <time>2012-02-23T14:15:55.000Z</time>
      </trkpt>
      <trkpt lat="45.63403" lon="6.62804">
        <ele>2247</ele>
        <time>2012-02-23T14:16:03.000Z</time>
      </trkpt>
      <trkpt lat="45.63398" lon="6.62799">
        <ele>2246.8000488281</ele>
        <time>2012-02-23T14:16:11.000Z</time>
      </trkpt>
      <trkpt lat="45.63394" lon="6.62794">
        <ele>2249.1999511719</ele>
        <time>2012-02-23T14:16:20.000Z</time>
      </trkpt>
      <trkpt lat="45.6339" lon="6.62789">
        <ele>2251.6000976562</ele>
        <time>2012-02-23T14:16:28.000Z</time>
      </trkpt>
      <trkpt lat="45.63385" lon="6.62783">
        <ele>2251.8000488281</ele>
        <time>2012-02-23T14:16:38.000Z</time>
      </trkpt>
      <trkpt lat="45.63378" lon="6.62775">
        <ele>2253.3999023438</ele>
        <time>2012-02-23T14:16:50.000Z</time>
      </trkpt>
      <trkpt lat="45.63373" lon="6.62769">
        <ele>2253.6000976562</ele>
        <time>2012-02-23T14:17:01.000Z</time>
      </trkpt>
      <trkpt lat="45.63368" lon="6.62764">
        <ele>2256.3999023438</ele>
        <time>2012-02-23T14:17:11.000Z</time>
      </trkpt>
      <trkpt lat="45.63362" lon="6.6276">
        <ele>2255.3999023438</ele>
        <time>2012-02-23T14:17:20.000Z</time>
      </trkpt>
      <trkpt lat="45.63358" lon="6.62758">
        <ele>2257.3999023438</ele>
        <time>2012-02-23T14:17:25.000Z</time>
      </trkpt>
      <trkpt lat="45.63353" lon="6.62753">
        <ele>2257.8000488281</ele>
        <time>2012-02-23T14:17:34.000Z</time>
      </trkpt>
      <trkpt lat="45.63351" lon="6.62751">
        <ele>2259.1999511719</ele>
        <time>2012-02-23T14:17:43.000Z</time>
      </trkpt>
      <trkpt lat="45.63349" lon="6.62741">
        <ele>2259.8000488281</ele>
        <time>2012-02-23T14:20:14.000Z</time>
      </trkpt>
      <trkpt lat="45.63346" lon="6.62739">
        <ele>2260</ele>
        <time>2012-02-23T14:20:22.000Z</time>
      </trkpt>
      <trkpt lat="45.63343" lon="6.62737">
        <ele>2261</ele>
        <time>2012-02-23T14:20:29.000Z</time>
      </trkpt>
      <trkpt lat="45.6334" lon="6.62734">
        <ele>2261.3999023438</ele>
        <time>2012-02-23T14:20:35.000Z</time>
      </trkpt>
      <trkpt lat="45.63337" lon="6.62731">
        <ele>2262</ele>
        <time>2012-02-23T14:20:41.000Z</time>
      </trkpt>
      <trkpt lat="45.63336" lon="6.6273">
        <ele>2262.8000488281</ele>
        <time>2012-02-23T14:20:50.000Z</time>
      </trkpt>
      <trkpt lat="45.63335" lon="6.62732">
        <ele>2262.6000976562</ele>
        <time>2012-02-23T14:21:45.000Z</time>
      </trkpt>
      <trkpt lat="45.63331" lon="6.6273">
        <ele>2262</ele>
        <time>2012-02-23T14:23:32.000Z</time>
      </trkpt>
      <trkpt lat="45.6333" lon="6.62729">
        <ele>2262.3999023438</ele>
        <time>2012-02-23T14:23:39.000Z</time>
      </trkpt>
      <trkpt lat="45.63326" lon="6.62725">
        <ele>2263</ele>
        <time>2012-02-23T14:23:51.000Z</time>
      </trkpt>
      <trkpt lat="45.63322" lon="6.6272">
        <ele>2264.1999511719</ele>
        <time>2012-02-23T14:23:58.000Z</time>
      </trkpt>
      <trkpt lat="45.63317" lon="6.62716">
        <ele>2264.1999511719</ele>
        <time>2012-02-23T14:24:07.000Z</time>
      </trkpt>
      <trkpt lat="45.63312" lon="6.62714">
        <ele>2264.8000488281</ele>
        <time>2012-02-23T14:24:16.000Z</time>
      </trkpt>
      <trkpt lat="45.63307" lon="6.62711">
        <ele>2268</ele>
        <time>2012-02-23T14:24:27.000Z</time>
      </trkpt>
      <trkpt lat="45.63303" lon="6.62706">
        <ele>2267.1999511719</ele>
        <time>2012-02-23T14:24:36.000Z</time>
      </trkpt>
      <trkpt lat="45.63301" lon="6.62704">
        <ele>2268.3999023438</ele>
        <time>2012-02-23T14:24:40.000Z</time>
      </trkpt>
      <trkpt lat="45.63295" lon="6.627">
        <ele>2270.6000976562</ele>
        <time>2012-02-23T14:24:49.000Z</time>
      </trkpt>
      <trkpt lat="45.6329" lon="6.62699">
        <ele>2271.1999511719</ele>
        <time>2012-02-23T14:24:57.000Z</time>
      </trkpt>
      <trkpt lat="45.63285" lon="6.62695">
        <ele>2270.8000488281</ele>
        <time>2012-02-23T14:25:06.000Z</time>
      </trkpt>
      <trkpt lat="45.63284" lon="6.62694">
        <ele>2272</ele>
        <time>2012-02-23T14:25:09.000Z</time>
      </trkpt>
      <trkpt lat="45.63283" lon="6.62693">
        <ele>2273.1999511719</ele>
        <time>2012-02-23T14:25:11.000Z</time>
      </trkpt>
      <trkpt lat="45.63278" lon="6.62688">
        <ele>2273.6000976562</ele>
        <time>2012-02-23T14:25:20.000Z</time>
      </trkpt>
      <trkpt lat="45.63274" lon="6.62689">
        <ele>2274.1999511719</ele>
        <time>2012-02-23T14:25:28.000Z</time>
      </trkpt>
      <trkpt lat="45.63272" lon="6.62689">
        <ele>2275</ele>
        <time>2012-02-23T14:25:34.000Z</time>
      </trkpt>
      <trkpt lat="45.63269" lon="6.62687">
        <ele>2277</ele>
        <time>2012-02-23T14:25:39.000Z</time>
      </trkpt>
      <trkpt lat="45.63265" lon="6.62683">
        <ele>2278</ele>
        <time>2012-02-23T14:25:48.000Z</time>
      </trkpt>
      <trkpt lat="45.63258" lon="6.62678">
        <ele>2278.1999511719</ele>
        <time>2012-02-23T14:25:59.000Z</time>
      </trkpt>
      <trkpt lat="45.63254" lon="6.62678">
        <ele>2280</ele>
        <time>2012-02-23T14:26:07.000Z</time>
      </trkpt>
      <trkpt lat="45.6325" lon="6.62676">
        <ele>2279.8000488281</ele>
        <time>2012-02-23T14:26:14.000Z</time>
      </trkpt>
      <trkpt lat="45.63249" lon="6.62675">
        <ele>2281.1999511719</ele>
        <time>2012-02-23T14:26:17.000Z</time>
      </trkpt>
      <trkpt lat="45.63243" lon="6.62673">
        <ele>2283.1999511719</ele>
        <time>2012-02-23T14:26:28.000Z</time>
      </trkpt>
      <trkpt lat="45.6324" lon="6.62671">
        <ele>2283.1999511719</ele>
        <time>2012-02-23T14:26:35.000Z</time>
      </trkpt>
      <trkpt lat="45.63236" lon="6.62669">
        <ele>2284</ele>
        <time>2012-02-23T14:26:43.000Z</time>
      </trkpt>
      <trkpt lat="45.63231" lon="6.62666">
        <ele>2287.1999511719</ele>
        <time>2012-02-23T14:26:52.000Z</time>
      </trkpt>
      <trkpt lat="45.63226" lon="6.62665">
        <ele>2287.3999023438</ele>
        <time>2012-02-23T14:27:00.000Z</time>
      </trkpt>
      <trkpt lat="45.63221" lon="6.62663">
        <ele>2287</ele>
        <time>2012-02-23T14:27:08.000Z</time>
      </trkpt>
      <trkpt lat="45.63215" lon="6.62661">
        <ele>2288.3999023438</ele>
        <time>2012-02-23T14:27:18.000Z</time>
      </trkpt>
      <trkpt lat="45.63212" lon="6.6266">
        <ele>2290.8000488281</ele>
        <time>2012-02-23T14:27:23.000Z</time>
      </trkpt>
      <trkpt lat="45.63207" lon="6.62658">
        <ele>2290.8000488281</ele>
        <time>2012-02-23T14:27:32.000Z</time>
      </trkpt>
      <trkpt lat="45.63203" lon="6.62655">
        <ele>2292.8000488281</ele>
        <time>2012-02-23T14:27:39.000Z</time>
      </trkpt>
      <trkpt lat="45.632" lon="6.62654">
        <ele>2292</ele>
        <time>2012-02-23T14:27:44.000Z</time>
      </trkpt>
      <trkpt lat="45.63194" lon="6.62648">
        <ele>2293.3999023438</ele>
        <time>2012-02-23T14:27:55.000Z</time>
      </trkpt>
      <trkpt lat="45.63192" lon="6.62646">
        <ele>2295</ele>
        <time>2012-02-23T14:27:59.000Z</time>
      </trkpt>
      <trkpt lat="45.63189" lon="6.62642">
        <ele>2295.3999023438</ele>
        <time>2012-02-23T14:28:07.000Z</time>
      </trkpt>
      <trkpt lat="45.63188" lon="6.62641">
        <ele>2296.1999511719</ele>
        <time>2012-02-23T14:28:09.000Z</time>
      </trkpt>
      <trkpt lat="45.63183" lon="6.62636">
        <ele>2297.6000976562</ele>
        <time>2012-02-23T14:28:19.000Z</time>
      </trkpt>
      <trkpt lat="45.63179" lon="6.6263">
        <ele>2298.8000488281</ele>
        <time>2012-02-23T14:28:29.000Z</time>
      </trkpt>
      <trkpt lat="45.63178" lon="6.62629">
        <ele>2299.6000976562</ele>
        <time>2012-02-23T14:28:31.000Z</time>
      </trkpt>
      <trkpt lat="45.63174" lon="6.62626">
        <ele>2300.3999023438</ele>
        <time>2012-02-23T14:28:38.000Z</time>
      </trkpt>
      <trkpt lat="45.63174" lon="6.62626">
        <ele>2300.6000976562</ele>
        <time>2012-02-23T14:28:39.000Z</time>
      </trkpt>
      <trkpt lat="45.6317" lon="6.62621">
        <ele>2301</ele>
        <time>2012-02-23T14:28:47.000Z</time>
      </trkpt>
      <trkpt lat="45.63164" lon="6.62616">
        <ele>2304</ele>
        <time>2012-02-23T14:28:58.000Z</time>
      </trkpt>
      <trkpt lat="45.63158" lon="6.62616">
        <ele>2305.1999511719</ele>
        <time>2012-02-23T14:29:09.000Z</time>
      </trkpt>
      <trkpt lat="45.63152" lon="6.62612">
        <ele>2305.6000976562</ele>
        <time>2012-02-23T14:29:18.000Z</time>
      </trkpt>
      <trkpt lat="45.63149" lon="6.6261">
        <ele>2307.6000976562</ele>
        <time>2012-02-23T14:29:24.000Z</time>
      </trkpt>
      <trkpt lat="45.63145" lon="6.62605">
        <ele>2308.6000976562</ele>
        <time>2012-02-23T14:29:33.000Z</time>
      </trkpt>
      <trkpt lat="45.63144" lon="6.62606">
        <ele>2309.3999023438</ele>
        <time>2012-02-23T14:29:38.000Z</time>
      </trkpt>
      <trkpt lat="45.63142" lon="6.6261">
        <ele>2310.3999023438</ele>
        <time>2012-02-23T14:29:43.000Z</time>
      </trkpt>
      <trkpt lat="45.63138" lon="6.62617">
        <ele>2310.3999023438</ele>
        <time>2012-02-23T14:29:52.000Z</time>
      </trkpt>
      <trkpt lat="45.63136" lon="6.62619">
        <ele>2312.3999023438</ele>
        <time>2012-02-23T14:29:59.000Z</time>
      </trkpt>
      <trkpt lat="45.63135" lon="6.6262">
        <ele>2313</ele>
        <time>2012-02-23T14:30:01.000Z</time>
      </trkpt>
      <trkpt lat="45.63134" lon="6.6262">
        <ele>2314.1999511719</ele>
        <time>2012-02-23T14:30:03.000Z</time>
      </trkpt>
      <trkpt lat="45.63131" lon="6.62623">
        <ele>2313.3999023438</ele>
        <time>2012-02-23T14:30:09.000Z</time>
      </trkpt>
      <trkpt lat="45.63128" lon="6.62627">
        <ele>2315.6000976562</ele>
        <time>2012-02-23T14:30:17.000Z</time>
      </trkpt>
      <trkpt lat="45.63125" lon="6.6263">
        <ele>2317.6000976562</ele>
        <time>2012-02-23T14:30:23.000Z</time>
      </trkpt>
      <trkpt lat="45.63121" lon="6.62639">
        <ele>2318.3999023438</ele>
        <time>2012-02-23T14:30:33.000Z</time>
      </trkpt>
      <trkpt lat="45.63118" lon="6.62646">
        <ele>2319.6000976562</ele>
        <time>2012-02-23T14:30:43.000Z</time>
      </trkpt>
      <trkpt lat="45.63116" lon="6.62649">
        <ele>2321</ele>
        <time>2012-02-23T14:30:49.000Z</time>
      </trkpt>
      <trkpt lat="45.63111" lon="6.62648">
        <ele>2321.1999511719</ele>
        <time>2012-02-23T14:30:56.000Z</time>
      </trkpt>
      <trkpt lat="45.6311" lon="6.62646">
        <ele>2322.1999511719</ele>
        <time>2012-02-23T14:30:59.000Z</time>
      </trkpt>
      <trkpt lat="45.63106" lon="6.62644">
        <ele>2325</ele>
        <time>2012-02-23T14:31:05.000Z</time>
      </trkpt>
      <trkpt lat="45.63103" lon="6.62637">
        <ele>2326.3999023438</ele>
        <time>2012-02-23T14:31:16.000Z</time>
      </trkpt>
      <trkpt lat="45.63098" lon="6.62629">
        <ele>2328</ele>
        <time>2012-02-23T14:31:27.000Z</time>
      </trkpt>
      <trkpt lat="45.63095" lon="6.62623">
        <ele>2328.3999023438</ele>
        <time>2012-02-23T14:31:36.000Z</time>
      </trkpt>
      <trkpt lat="45.6309" lon="6.62616">
        <ele>2330.8000488281</ele>
        <time>2012-02-23T14:31:47.000Z</time>
      </trkpt>
      <trkpt lat="45.63087" lon="6.62609">
        <ele>2333</ele>
        <time>2012-02-23T14:31:58.000Z</time>
      </trkpt>
      <trkpt lat="45.63083" lon="6.62601">
        <ele>2336</ele>
        <time>2012-02-23T14:32:09.000Z</time>
      </trkpt>
      <trkpt lat="45.6308" lon="6.62593">
        <ele>2337</ele>
        <time>2012-02-23T14:32:19.000Z</time>
      </trkpt>
      <trkpt lat="45.6308" lon="6.62591">
        <ele>2338</ele>
        <time>2012-02-23T14:32:27.000Z</time>
      </trkpt>
      <trkpt lat="45.6308" lon="6.62592">
        <ele>2338.6000976562</ele>
        <time>2012-02-23T14:32:28.000Z</time>
      </trkpt>
      <trkpt lat="45.63079" lon="6.62595">
        <ele>2339.8000488281</ele>
        <time>2012-02-23T14:32:31.000Z</time>
      </trkpt>
      <trkpt lat="45.63077" lon="6.626">
        <ele>2339.6000976562</ele>
        <time>2012-02-23T14:32:40.000Z</time>
      </trkpt>
      <trkpt lat="45.63075" lon="6.62603">
        <ele>2341.1999511719</ele>
        <time>2012-02-23T14:32:45.000Z</time>
      </trkpt>
      <trkpt lat="45.63074" lon="6.62605">
        <ele>2342.8000488281</ele>
        <time>2012-02-23T14:32:48.000Z</time>
      </trkpt>
      <trkpt lat="45.63072" lon="6.62609">
        <ele>2343.8000488281</ele>
        <time>2012-02-23T14:32:55.000Z</time>
      </trkpt>
      <trkpt lat="45.6307" lon="6.62613">
        <ele>2344.1999511719</ele>
        <time>2012-02-23T14:33:02.000Z</time>
      </trkpt>
      <trkpt lat="45.63068" lon="6.62619">
        <ele>2345.3999023438</ele>
        <time>2012-02-23T14:33:10.000Z</time>
      </trkpt>
      <trkpt lat="45.63067" lon="6.62623">
        <ele>2346.6000976562</ele>
        <time>2012-02-23T14:33:15.000Z</time>
      </trkpt>
      <trkpt lat="45.63067" lon="6.62624">
        <ele>2347</ele>
        <time>2012-02-23T14:33:16.000Z</time>
      </trkpt>
      <trkpt lat="45.63065" lon="6.6263">
        <ele>2348.3999023438</ele>
        <time>2012-02-23T14:33:23.000Z</time>
      </trkpt>
      <trkpt lat="45.63064" lon="6.62635">
        <ele>2348.6000976562</ele>
        <time>2012-02-23T14:33:29.000Z</time>
      </trkpt>
      <trkpt lat="45.63061" lon="6.62643">
        <ele>2351</ele>
        <time>2012-02-23T14:33:39.000Z</time>
      </trkpt>
      <trkpt lat="45.63058" lon="6.62649">
        <ele>2354</ele>
        <time>2012-02-23T14:33:46.000Z</time>
      </trkpt>
      <trkpt lat="45.63057" lon="6.62656">
        <ele>2355.1999511719</ele>
        <time>2012-02-23T14:33:57.000Z</time>
      </trkpt>
      <trkpt lat="45.63055" lon="6.62662">
        <ele>2355.8000488281</ele>
        <time>2012-02-23T14:34:05.000Z</time>
      </trkpt>
      <trkpt lat="45.63054" lon="6.62665">
        <ele>2357.8000488281</ele>
        <time>2012-02-23T14:34:09.000Z</time>
      </trkpt>
      <trkpt lat="45.63053" lon="6.62671">
        <ele>2357.8000488281</ele>
        <time>2012-02-23T14:34:16.000Z</time>
      </trkpt>
      <trkpt lat="45.63052" lon="6.62675">
        <ele>2360.3999023438</ele>
        <time>2012-02-23T14:34:22.000Z</time>
      </trkpt>
      <trkpt lat="45.63049" lon="6.62676">
        <ele>2359.6000976562</ele>
        <time>2012-02-23T14:34:29.000Z</time>
      </trkpt>
      <trkpt lat="45.63044" lon="6.62671">
        <ele>2362.3999023438</ele>
        <time>2012-02-23T14:34:37.000Z</time>
      </trkpt>
      <trkpt lat="45.6304" lon="6.62665">
        <ele>2362.8000488281</ele>
        <time>2012-02-23T14:34:46.000Z</time>
      </trkpt>
      <trkpt lat="45.63036" lon="6.62657">
        <ele>2363.8000488281</ele>
        <time>2012-02-23T14:34:56.000Z</time>
      </trkpt>
      <trkpt lat="45.63033" lon="6.6265">
        <ele>2367.1999511719</ele>
        <time>2012-02-23T14:35:05.000Z</time>
      </trkpt>
      <trkpt lat="45.6303" lon="6.62643">
        <ele>2366.6000976562</ele>
        <time>2012-02-23T14:35:14.000Z</time>
      </trkpt>
      <trkpt lat="45.63027" lon="6.62635">
        <ele>2368.6000976562</ele>
        <time>2012-02-23T14:35:23.000Z</time>
      </trkpt>
      <trkpt lat="45.63026" lon="6.62627">
        <ele>2370.6000976562</ele>
        <time>2012-02-23T14:35:33.000Z</time>
      </trkpt>
      <trkpt lat="45.63026" lon="6.62624">
        <ele>2372.6000976562</ele>
        <time>2012-02-23T14:35:39.000Z</time>
      </trkpt>
      <trkpt lat="45.63023" lon="6.62616">
        <ele>2374.3999023438</ele>
        <time>2012-02-23T14:35:49.000Z</time>
      </trkpt>
      <trkpt lat="45.63022" lon="6.62609">
        <ele>2374.3999023438</ele>
        <time>2012-02-23T14:35:57.000Z</time>
      </trkpt>
      <trkpt lat="45.63021" lon="6.62601">
        <ele>2377.3999023438</ele>
        <time>2012-02-23T14:36:06.000Z</time>
      </trkpt>
      <trkpt lat="45.63019" lon="6.6259">
        <ele>2378.1999511719</ele>
        <time>2012-02-23T14:36:18.000Z</time>
      </trkpt>
      <trkpt lat="45.63018" lon="6.62583">
        <ele>2380</ele>
        <time>2012-02-23T14:36:27.000Z</time>
      </trkpt>
      <trkpt lat="45.63018" lon="6.62578">
        <ele>2382.6000976562</ele>
        <time>2012-02-23T14:36:34.000Z</time>
      </trkpt>
      <trkpt lat="45.63017" lon="6.62573">
        <ele>2382.6000976562</ele>
        <time>2012-02-23T14:36:41.000Z</time>
      </trkpt>
      <trkpt lat="45.63016" lon="6.62566">
        <ele>2384.1999511719</ele>
        <time>2012-02-23T14:36:49.000Z</time>
      </trkpt>
      <trkpt lat="45.63016" lon="6.62563">
        <ele>2386</ele>
        <time>2012-02-23T14:36:54.000Z</time>
      </trkpt>
      <trkpt lat="45.63015" lon="6.62555">
        <ele>2387.1999511719</ele>
        <time>2012-02-23T14:37:03.000Z</time>
      </trkpt>
      <trkpt lat="45.63014" lon="6.62548">
        <ele>2389</ele>
        <time>2012-02-23T14:37:13.000Z</time>
      </trkpt>
      <trkpt lat="45.63013" lon="6.62544">
        <ele>2390.1999511719</ele>
        <time>2012-02-23T14:37:19.000Z</time>
      </trkpt>
      <trkpt lat="45.63012" lon="6.6254">
        <ele>2391</ele>
        <time>2012-02-23T14:37:24.000Z</time>
      </trkpt>
      <trkpt lat="45.63011" lon="6.62537">
        <ele>2392.6000976562</ele>
        <time>2012-02-23T14:37:29.000Z</time>
      </trkpt>
      <trkpt lat="45.63012" lon="6.62533">
        <ele>2393.6000976562</ele>
        <time>2012-02-23T14:37:37.000Z</time>
      </trkpt>
      <trkpt lat="45.63011" lon="6.62535">
        <ele>2394</ele>
        <time>2012-02-23T14:37:43.000Z</time>
      </trkpt>
      <trkpt lat="45.63011" lon="6.62538">
        <ele>2396</ele>
        <time>2012-02-23T14:37:47.000Z</time>
      </trkpt>
      <trkpt lat="45.6301" lon="6.62541">
        <ele>2395.3999023438</ele>
        <time>2012-02-23T14:37:54.000Z</time>
      </trkpt>
      <trkpt lat="45.63008" lon="6.62539">
        <ele>2396</ele>
        <time>2012-02-23T14:38:00.000Z</time>
      </trkpt>
      <trkpt lat="45.63008" lon="6.62534">
        <ele>2398.1999511719</ele>
        <time>2012-02-23T14:38:05.000Z</time>
      </trkpt>
      <trkpt lat="45.63008" lon="6.62529">
        <ele>2398.8000488281</ele>
        <time>2012-02-23T14:38:13.000Z</time>
      </trkpt>
      <trkpt lat="45.63006" lon="6.62531">
        <ele>2400.3999023438</ele>
        <time>2012-02-23T14:38:20.000Z</time>
      </trkpt>
      <trkpt lat="45.63004" lon="6.62531">
        <ele>2401</ele>
        <time>2012-02-23T14:38:27.000Z</time>
      </trkpt>
      <trkpt lat="45.63004" lon="6.62526">
        <ele>2403.3999023438</ele>
        <time>2012-02-23T14:38:33.000Z</time>
      </trkpt>
      <trkpt lat="45.63002" lon="6.62522">
        <ele>2404.3999023438</ele>
        <time>2012-02-23T14:38:42.000Z</time>
      </trkpt>
      <trkpt lat="45.62999" lon="6.62522">
        <ele>2407.6000976562</ele>
        <time>2012-02-23T14:38:48.000Z</time>
      </trkpt>
      <trkpt lat="45.62997" lon="6.62521">
        <ele>2407.1999511719</ele>
        <time>2012-02-23T14:38:54.000Z</time>
      </trkpt>
      <trkpt lat="45.62997" lon="6.62516">
        <ele>2406.3999023438</ele>
        <time>2012-02-23T14:39:29.000Z</time>
      </trkpt>
      <trkpt lat="45.62999" lon="6.62512">
        <ele>2406.8000488281</ele>
        <time>2012-02-23T14:39:47.000Z</time>
      </trkpt>
      <trkpt lat="45.63" lon="6.62518">
        <ele>2407</ele>
        <time>2012-02-23T14:40:12.000Z</time>
      </trkpt>
      <trkpt lat="45.63" lon="6.62515">
        <ele>2408</ele>
        <time>2012-02-23T14:41:22.000Z</time>
      </trkpt>
      <trkpt lat="45.63002" lon="6.62516">
        <ele>2408</ele>
        <time>2012-02-23T14:41:54.000Z</time>
      </trkpt>
      <trkpt lat="45.63004" lon="6.62515">
        <ele>2408.1999511719</ele>
        <time>2012-02-23T14:42:02.000Z</time>
      </trkpt>
      <trkpt lat="45.63004" lon="6.62514">
        <ele>2411.1999511719</ele>
        <time>2012-02-23T14:43:51.000Z</time>
      </trkpt>
      <trkpt lat="45.63004" lon="6.62515">
        <ele>2408.1999511719</ele>
        <time>2012-02-23T14:43:55.000Z</time>
      </trkpt>
      <trkpt lat="45.63002" lon="6.62515">
        <ele>2407</ele>
        <time>2012-02-23T14:44:03.000Z</time>
      </trkpt>
      <trkpt lat="45.63003" lon="6.62515">
        <ele>2407</ele>
        <time>2012-02-23T14:46:52.000Z</time>
      </trkpt>
      <trkpt lat="45.62998" lon="6.62515">
        <ele>2406.8000488281</ele>
        <time>2012-02-23T14:48:05.000Z</time>
      </trkpt>
      <trkpt lat="45.63005" lon="6.62517">
        <ele>2407.3999023438</ele>
        <time>2012-02-23T14:49:26.000Z</time>
      </trkpt>
      <trkpt lat="45.63004" lon="6.62515">
        <ele>2408.8000488281</ele>
        <time>2012-02-23T14:50:45.000Z</time>
      </trkpt>
      <trkpt lat="45.63005" lon="6.62515">
        <ele>2409</ele>
        <time>2012-02-23T14:50:55.000Z</time>
      </trkpt>
      <trkpt lat="45.63004" lon="6.62513">
        <ele>2408.6000976562</ele>
        <time>2012-02-23T14:53:02.000Z</time>
      </trkpt>
      <trkpt lat="45.63005" lon="6.62511">
        <ele>2409</ele>
        <time>2012-02-23T14:53:06.000Z</time>
      </trkpt>
      <trkpt lat="45.63005" lon="6.62508">
        <ele>2408.6000976562</ele>
        <time>2012-02-23T14:53:12.000Z</time>
      </trkpt>
      <trkpt lat="45.63006" lon="6.62507">
        <ele>2405.8000488281</ele>
        <time>2012-02-23T14:53:15.000Z</time>
      </trkpt>
      <trkpt lat="45.63007" lon="6.62505">
        <ele>2407.1999511719</ele>
        <time>2012-02-23T14:53:30.000Z</time>
      </trkpt>
      <trkpt lat="45.6301" lon="6.62502">
        <ele>2405.6000976562</ele>
        <time>2012-02-23T14:53:37.000Z</time>
      </trkpt>
      <trkpt lat="45.63012" lon="6.62498">
        <ele>2405.3999023438</ele>
        <time>2012-02-23T14:53:43.000Z</time>
      </trkpt>
      <trkpt lat="45.63013" lon="6.62495">
        <ele>2406.8000488281</ele>
        <time>2012-02-23T14:53:48.000Z</time>
      </trkpt>
      <trkpt lat="45.63014" lon="6.62491">
        <ele>2407.6000976562</ele>
        <time>2012-02-23T14:53:54.000Z</time>
      </trkpt>
      <trkpt lat="45.63014" lon="6.62489">
        <ele>2406.1999511719</ele>
        <time>2012-02-23T14:53:57.000Z</time>
      </trkpt>
      <trkpt lat="45.63015" lon="6.62485">
        <ele>2406.6000976562</ele>
        <time>2012-02-23T14:54:07.000Z</time>
      </trkpt>
      <trkpt lat="45.63016" lon="6.62482">
        <ele>2405</ele>
        <time>2012-02-23T14:54:17.000Z</time>
      </trkpt>
      <trkpt lat="45.63015" lon="6.62479">
        <ele>2404.1999511719</ele>
        <time>2012-02-23T14:54:26.000Z</time>
      </trkpt>
      <trkpt lat="45.63015" lon="6.62476">
        <ele>2403.6000976562</ele>
        <time>2012-02-23T14:54:34.000Z</time>
      </trkpt>
      <trkpt lat="45.63014" lon="6.62474">
        <ele>2402.6000976562</ele>
        <time>2012-02-23T14:54:44.000Z</time>
      </trkpt>
      <trkpt lat="45.63012" lon="6.62473">
        <ele>2401.1999511719</ele>
        <time>2012-02-23T14:54:50.000Z</time>
      </trkpt>
      <trkpt lat="45.63012" lon="6.62471">
        <ele>2400.8000488281</ele>
        <time>2012-02-23T14:54:57.000Z</time>
      </trkpt>
      <trkpt lat="45.63014" lon="6.62467">
        <ele>2401</ele>
        <time>2012-02-23T14:55:02.000Z</time>
      </trkpt>
      <trkpt lat="45.63015" lon="6.62465">
        <ele>2401.3999023438</ele>
        <time>2012-02-23T14:55:07.000Z</time>
      </trkpt>
      <trkpt lat="45.63017" lon="6.62457">
        <ele>2401.6000976562</ele>
        <time>2012-02-23T14:55:15.000Z</time>
      </trkpt>
      <trkpt lat="45.63017" lon="6.62456">
        <ele>2401.6000976562</ele>
        <time>2012-02-23T14:55:16.000Z</time>
      </trkpt>
      <trkpt lat="45.63017" lon="6.62452">
        <ele>2400.8000488281</ele>
        <time>2012-02-23T14:55:24.000Z</time>
      </trkpt>
      <trkpt lat="45.63021" lon="6.62446">
        <ele>2400</ele>
        <time>2012-02-23T14:56:27.000Z</time>
      </trkpt>
      <trkpt lat="45.6302" lon="6.6244">
        <ele>2400</ele>
        <time>2012-02-23T14:56:31.000Z</time>
      </trkpt>
      <trkpt lat="45.6302" lon="6.62431">
        <ele>2398.6000976562</ele>
        <time>2012-02-23T14:56:38.000Z</time>
      </trkpt>
      <trkpt lat="45.63018" lon="6.62419">
        <ele>2397.8000488281</ele>
        <time>2012-02-23T14:56:47.000Z</time>
      </trkpt>
      <trkpt lat="45.63018" lon="6.62416">
        <ele>2397.6000976562</ele>
        <time>2012-02-23T14:56:52.000Z</time>
      </trkpt>
      <trkpt lat="45.63017" lon="6.62409">
        <ele>2396.3999023438</ele>
        <time>2012-02-23T14:57:01.000Z</time>
      </trkpt>
      <trkpt lat="45.63014" lon="6.624">
        <ele>2396</ele>
        <time>2012-02-23T14:57:08.000Z</time>
      </trkpt>
      <trkpt lat="45.63012" lon="6.62392">
        <ele>2395.3999023438</ele>
        <time>2012-02-23T14:57:15.000Z</time>
      </trkpt>
      <trkpt lat="45.63008" lon="6.62383">
        <ele>2395.6000976562</ele>
        <time>2012-02-23T14:57:23.000Z</time>
      </trkpt>
      <trkpt lat="45.63004" lon="6.62373">
        <ele>2395.1999511719</ele>
        <time>2012-02-23T14:57:33.000Z</time>
      </trkpt>
      <trkpt lat="45.63004" lon="6.62369">
        <ele>2394.1999511719</ele>
        <time>2012-02-23T14:57:40.000Z</time>
      </trkpt>
      <trkpt lat="45.63001" lon="6.62365">
        <ele>2394.3999023438</ele>
        <time>2012-02-23T14:57:57.000Z</time>
      </trkpt>
      <trkpt lat="45.63" lon="6.6236">
        <ele>2393</ele>
        <time>2012-02-23T14:58:03.000Z</time>
      </trkpt>
      <trkpt lat="45.62998" lon="6.62352">
        <ele>2392.6000976562</ele>
        <time>2012-02-23T14:58:11.000Z</time>
      </trkpt>
      <trkpt lat="45.62996" lon="6.62345">
        <ele>2391.3999023438</ele>
        <time>2012-02-23T14:58:19.000Z</time>
      </trkpt>
      <trkpt lat="45.62996" lon="6.62341">
        <ele>2390.6000976562</ele>
        <time>2012-02-23T14:58:28.000Z</time>
      </trkpt>
      <trkpt lat="45.62994" lon="6.6234">
        <ele>2389.6000976562</ele>
        <time>2012-02-23T14:58:42.000Z</time>
      </trkpt>
      <trkpt lat="45.62995" lon="6.6234">
        <ele>2390.8000488281</ele>
        <time>2012-02-23T14:58:46.000Z</time>
      </trkpt>
      <trkpt lat="45.62996" lon="6.6234">
        <ele>2388.8000488281</ele>
        <time>2012-02-23T14:58:51.000Z</time>
      </trkpt>
      <trkpt lat="45.62996" lon="6.62341">
        <ele>2391.8000488281</ele>
        <time>2012-02-23T14:58:55.000Z</time>
      </trkpt>
      <trkpt lat="45.62996" lon="6.62342">
        <ele>2389.8000488281</ele>
        <time>2012-02-23T14:58:58.000Z</time>
      </trkpt>
      <trkpt lat="45.62998" lon="6.62343">
        <ele>2388</ele>
        <time>2012-02-23T14:59:13.000Z</time>
      </trkpt>
      <trkpt lat="45.62994" lon="6.62336">
        <ele>2391</ele>
        <time>2012-02-23T14:59:41.000Z</time>
      </trkpt>
      <trkpt lat="45.62994" lon="6.62335">
        <ele>2392.3999023438</ele>
        <time>2012-02-23T14:59:43.000Z</time>
      </trkpt>
      <trkpt lat="45.62993" lon="6.62333">
        <ele>2390</ele>
        <time>2012-02-23T14:59:48.000Z</time>
      </trkpt>
      <trkpt lat="45.62997" lon="6.62336">
        <ele>2386.3999023438</ele>
        <time>2012-02-23T14:59:59.000Z</time>
      </trkpt>
      <trkpt lat="45.62997" lon="6.62339">
        <ele>2389.6000976562</ele>
        <time>2012-02-23T15:00:03.000Z</time>
      </trkpt>
      <trkpt lat="45.62996" lon="6.62345">
        <ele>2389.6000976562</ele>
        <time>2012-02-23T15:00:11.000Z</time>
      </trkpt>
      <trkpt lat="45.62997" lon="6.6234">
        <ele>2387</ele>
        <time>2012-02-23T15:00:18.000Z</time>
      </trkpt>
      <trkpt lat="45.62995" lon="6.62338">
        <ele>2388.8000488281</ele>
        <time>2012-02-23T15:00:31.000Z</time>
      </trkpt>
      <trkpt lat="45.62995" lon="6.62337">
        <ele>2389.8000488281</ele>
        <time>2012-02-23T15:00:43.000Z</time>
      </trkpt>
      <trkpt lat="45.62997" lon="6.62339">
        <ele>2389.6000976562</ele>
        <time>2012-02-23T15:01:11.000Z</time>
      </trkpt>
      <trkpt lat="45.62997" lon="6.62328">
        <ele>2387.3999023438</ele>
        <time>2012-02-23T15:04:56.000Z</time>
      </trkpt>
      <trkpt lat="45.62995" lon="6.62327">
        <ele>2387</ele>
        <time>2012-02-23T15:05:02.000Z</time>
      </trkpt>
      <trkpt lat="45.62993" lon="6.62328">
        <ele>2385.6000976562</ele>
        <time>2012-02-23T15:05:22.000Z</time>
      </trkpt>
      <trkpt lat="45.6299" lon="6.62331">
        <ele>2385.3999023438</ele>
        <time>2012-02-23T15:05:50.000Z</time>
      </trkpt>
      <trkpt lat="45.62986" lon="6.62332">
        <ele>2383.6000976562</ele>
        <time>2012-02-23T15:05:55.000Z</time>
      </trkpt>
      <trkpt lat="45.62982" lon="6.62333">
        <ele>2380.6000976562</ele>
        <time>2012-02-23T15:05:58.000Z</time>
      </trkpt>
      <trkpt lat="45.62979" lon="6.62338">
        <ele>2377.8000488281</ele>
        <time>2012-02-23T15:06:01.000Z</time>
      </trkpt>
      <trkpt lat="45.62974" lon="6.62346">
        <ele>2375.3999023438</ele>
        <time>2012-02-23T15:06:04.000Z</time>
      </trkpt>
      <trkpt lat="45.62969" lon="6.62342">
        <ele>2373.8000488281</ele>
        <time>2012-02-23T15:06:06.000Z</time>
      </trkpt>
      <trkpt lat="45.62966" lon="6.62348">
        <ele>2371.1999511719</ele>
        <time>2012-02-23T15:06:08.000Z</time>
      </trkpt>
      <trkpt lat="45.62961" lon="6.62347">
        <ele>2367.3999023438</ele>
        <time>2012-02-23T15:06:10.000Z</time>
      </trkpt>
      <trkpt lat="45.62955" lon="6.62343">
        <ele>2365</ele>
        <time>2012-02-23T15:06:13.000Z</time>
      </trkpt>
      <trkpt lat="45.62951" lon="6.62349">
        <ele>2361.6000976562</ele>
        <time>2012-02-23T15:06:15.000Z</time>
      </trkpt>
      <trkpt lat="45.62947" lon="6.62345">
        <ele>2358.3999023438</ele>
        <time>2012-02-23T15:06:17.000Z</time>
      </trkpt>
      <trkpt lat="45.62946" lon="6.62352">
        <ele>2356.1999511719</ele>
        <time>2012-02-23T15:06:19.000Z</time>
      </trkpt>
      <trkpt lat="45.62945" lon="6.62358">
        <ele>2353.3999023438</ele>
        <time>2012-02-23T15:06:21.000Z</time>
      </trkpt>
      <trkpt lat="45.62937" lon="6.62357">
        <ele>2351.1999511719</ele>
        <time>2012-02-23T15:06:24.000Z</time>
      </trkpt>
      <trkpt lat="45.62937" lon="6.62354">
        <ele>2349</ele>
        <time>2012-02-23T15:06:27.000Z</time>
      </trkpt>
      <trkpt lat="45.62938" lon="6.62353">
        <ele>2348.6000976562</ele>
        <time>2012-02-23T15:06:47.000Z</time>
      </trkpt>
      <trkpt lat="45.62935" lon="6.62352">
        <ele>2348.1999511719</ele>
        <time>2012-02-23T15:06:52.000Z</time>
      </trkpt>
      <trkpt lat="45.62934" lon="6.62353">
        <ele>2348</ele>
        <time>2012-02-23T15:07:05.000Z</time>
      </trkpt>
      <trkpt lat="45.62929" lon="6.62341">
        <ele>2346.3999023438</ele>
        <time>2012-02-23T15:07:10.000Z</time>
      </trkpt>
      <trkpt lat="45.62925" lon="6.62333">
        <ele>2345.6000976562</ele>
        <time>2012-02-23T15:07:15.000Z</time>
      </trkpt>
      <trkpt lat="45.62925" lon="6.62326">
        <ele>2345.1999511719</ele>
        <time>2012-02-23T15:07:44.000Z</time>
      </trkpt>
      <trkpt lat="45.62921" lon="6.62314">
        <ele>2345.1999511719</ele>
        <time>2012-02-23T15:07:49.000Z</time>
      </trkpt>
      <trkpt lat="45.62917" lon="6.62298">
        <ele>2343.6000976562</ele>
        <time>2012-02-23T15:07:54.000Z</time>
      </trkpt>
      <trkpt lat="45.62913" lon="6.62287">
        <ele>2343</ele>
        <time>2012-02-23T15:08:00.000Z</time>
      </trkpt>
      <trkpt lat="45.62912" lon="6.62282">
        <ele>2343.1999511719</ele>
        <time>2012-02-23T15:08:06.000Z</time>
      </trkpt>
      <trkpt lat="45.62913" lon="6.62279">
        <ele>2344.3999023438</ele>
        <time>2012-02-23T15:08:13.000Z</time>
      </trkpt>
      <trkpt lat="45.62912" lon="6.62267">
        <ele>2347</ele>
        <time>2012-02-23T15:08:45.000Z</time>
      </trkpt>
      <trkpt lat="45.62911" lon="6.62263">
        <ele>2347.3999023438</ele>
        <time>2012-02-23T15:08:52.000Z</time>
      </trkpt>
      <trkpt lat="45.62909" lon="6.62259">
        <ele>2347.6000976562</ele>
        <time>2012-02-23T15:09:00.000Z</time>
      </trkpt>
      <trkpt lat="45.62907" lon="6.62252">
        <ele>2348.1999511719</ele>
        <time>2012-02-23T15:09:07.000Z</time>
      </trkpt>
      <trkpt lat="45.62903" lon="6.62237">
        <ele>2347.3999023438</ele>
        <time>2012-02-23T15:09:14.000Z</time>
      </trkpt>
      <trkpt lat="45.62902" lon="6.62231">
        <ele>2347</ele>
        <time>2012-02-23T15:09:15.000Z</time>
      </trkpt>
      <trkpt lat="45.62889" lon="6.62208">
        <ele>2344</ele>
        <time>2012-02-23T15:09:19.000Z</time>
      </trkpt>
      <trkpt lat="45.62883" lon="6.62202">
        <ele>2343.6000976562</ele>
        <time>2012-02-23T15:09:21.000Z</time>
      </trkpt>
      <trkpt lat="45.62868" lon="6.62189">
        <ele>2341.6000976562</ele>
        <time>2012-02-23T15:09:29.000Z</time>
      </trkpt>
      <trkpt lat="45.62851" lon="6.6217">
        <ele>2339.8000488281</ele>
        <time>2012-02-23T15:09:36.000Z</time>
      </trkpt>
      <trkpt lat="45.62847" lon="6.62164">
        <ele>2339.6000976562</ele>
        <time>2012-02-23T15:09:40.000Z</time>
      </trkpt>
      <trkpt lat="45.62841" lon="6.62157">
        <ele>2339.3999023438</ele>
        <time>2012-02-23T15:09:46.000Z</time>
      </trkpt>
      <trkpt lat="45.62829" lon="6.62143">
        <ele>2338.1999511719</ele>
        <time>2012-02-23T15:09:55.000Z</time>
      </trkpt>
      <trkpt lat="45.62822" lon="6.62138">
        <ele>2338.1999511719</ele>
        <time>2012-02-23T15:10:05.000Z</time>
      </trkpt>
      <trkpt lat="45.62818" lon="6.62134">
        <ele>2338.1999511719</ele>
        <time>2012-02-23T15:10:13.000Z</time>
      </trkpt>
      <trkpt lat="45.62814" lon="6.62131">
        <ele>2338.6000976562</ele>
        <time>2012-02-23T15:10:20.000Z</time>
      </trkpt>
      <trkpt lat="45.6281" lon="6.62126">
        <ele>2339.1999511719</ele>
        <time>2012-02-23T15:10:27.000Z</time>
      </trkpt>
      <trkpt lat="45.62803" lon="6.62119">
        <ele>2339.3999023438</ele>
        <time>2012-02-23T15:10:47.000Z</time>
      </trkpt>
      <trkpt lat="45.62803" lon="6.62118">
        <ele>2339</ele>
        <time>2012-02-23T15:10:53.000Z</time>
      </trkpt>
      <trkpt lat="45.62806" lon="6.62118">
        <ele>2339.3999023438</ele>
        <time>2012-02-23T15:10:59.000Z</time>
      </trkpt>
      <trkpt lat="45.62805" lon="6.62116">
        <ele>2339.3999023438</ele>
        <time>2012-02-23T15:11:04.000Z</time>
      </trkpt>
      <trkpt lat="45.62803" lon="6.62114">
        <ele>2339.6000976562</ele>
        <time>2012-02-23T15:11:13.000Z</time>
      </trkpt>
      <trkpt lat="45.62801" lon="6.62111">
        <ele>2339</ele>
        <time>2012-02-23T15:11:22.000Z</time>
      </trkpt>
      <trkpt lat="45.62797" lon="6.62106">
        <ele>2338.8000488281</ele>
        <time>2012-02-23T15:11:30.000Z</time>
      </trkpt>
      <trkpt lat="45.62793" lon="6.621">
        <ele>2337.8000488281</ele>
        <time>2012-02-23T15:11:36.000Z</time>
      </trkpt>
      <trkpt lat="45.6279" lon="6.62096">
        <ele>2338</ele>
        <time>2012-02-23T15:11:46.000Z</time>
      </trkpt>
      <trkpt lat="45.6279" lon="6.62096">
        <ele>2338.1999511719</ele>
        <time>2012-02-23T15:11:58.000Z</time>
      </trkpt>
      <trkpt lat="45.62789" lon="6.62091">
        <ele>2337.8000488281</ele>
        <time>2012-02-23T15:12:08.000Z</time>
      </trkpt>
      <trkpt lat="45.62788" lon="6.62089">
        <ele>2337.6000976562</ele>
        <time>2012-02-23T15:12:09.000Z</time>
      </trkpt>
      <trkpt lat="45.62789" lon="6.62086">
        <ele>2337.8000488281</ele>
        <time>2012-02-23T15:12:16.000Z</time>
      </trkpt>
      <trkpt lat="45.62795" lon="6.62084">
        <ele>2336.8000488281</ele>
        <time>2012-02-23T15:12:49.000Z</time>
      </trkpt>
      <trkpt lat="45.62793" lon="6.62072">
        <ele>2336.1999511719</ele>
        <time>2012-02-23T15:12:54.000Z</time>
      </trkpt>
      <trkpt lat="45.62793" lon="6.62057">
        <ele>2334.8000488281</ele>
        <time>2012-02-23T15:12:58.000Z</time>
      </trkpt>
      <trkpt lat="45.62791" lon="6.62047">
        <ele>2333.1999511719</ele>
        <time>2012-02-23T15:13:01.000Z</time>
      </trkpt>
      <trkpt lat="45.62785" lon="6.62043">
        <ele>2331.6000976562</ele>
        <time>2012-02-23T15:13:03.000Z</time>
      </trkpt>
      <trkpt lat="45.62772" lon="6.62039">
        <ele>2327.8000488281</ele>
        <time>2012-02-23T15:13:06.000Z</time>
      </trkpt>
      <trkpt lat="45.62757" lon="6.62024">
        <ele>2322.8000488281</ele>
        <time>2012-02-23T15:13:12.000Z</time>
      </trkpt>
      <trkpt lat="45.62752" lon="6.62018">
        <ele>2321.8000488281</ele>
        <time>2012-02-23T15:13:15.000Z</time>
      </trkpt>
      <trkpt lat="45.6275" lon="6.62013">
        <ele>2321.3999023438</ele>
        <time>2012-02-23T15:13:17.000Z</time>
      </trkpt>
      <trkpt lat="45.62744" lon="6.62017">
        <ele>2318.8000488281</ele>
        <time>2012-02-23T15:13:21.000Z</time>
      </trkpt>
      <trkpt lat="45.62736" lon="6.62015">
        <ele>2316.1999511719</ele>
        <time>2012-02-23T15:13:25.000Z</time>
      </trkpt>
      <trkpt lat="45.62729" lon="6.62008">
        <ele>2313.6000976562</ele>
        <time>2012-02-23T15:13:29.000Z</time>
      </trkpt>
      <trkpt lat="45.62729" lon="6.62007">
        <ele>2312.6000976562</ele>
        <time>2012-02-23T15:13:36.000Z</time>
      </trkpt>
      <trkpt lat="45.62722" lon="6.62003">
        <ele>2312</ele>
        <time>2012-02-23T15:13:40.000Z</time>
      </trkpt>
      <trkpt lat="45.62713" lon="6.61997">
        <ele>2310.1999511719</ele>
        <time>2012-02-23T15:13:44.000Z</time>
      </trkpt>
      <trkpt lat="45.62701" lon="6.61986">
        <ele>2308.3999023438</ele>
        <time>2012-02-23T15:13:49.000Z</time>
      </trkpt>
      <trkpt lat="45.627" lon="6.61984">
        <ele>2308</ele>
        <time>2012-02-23T15:13:50.000Z</time>
      </trkpt>
      <trkpt lat="45.62692" lon="6.61978">
        <ele>2306.3999023438</ele>
        <time>2012-02-23T15:13:55.000Z</time>
      </trkpt>
      <trkpt lat="45.62691" lon="6.61978">
        <ele>2305.6000976562</ele>
        <time>2012-02-23T15:13:57.000Z</time>
      </trkpt>
      <trkpt lat="45.62685" lon="6.61985">
        <ele>2303.8000488281</ele>
        <time>2012-02-23T15:14:00.000Z</time>
      </trkpt>
      <trkpt lat="45.62682" lon="6.61998">
        <ele>2299.3999023438</ele>
        <time>2012-02-23T15:14:03.000Z</time>
      </trkpt>
      <trkpt lat="45.62679" lon="6.61995">
        <ele>2298</ele>
        <time>2012-02-23T15:14:04.000Z</time>
      </trkpt>
      <trkpt lat="45.6266" lon="6.61973">
        <ele>2292.6000976562</ele>
        <time>2012-02-23T15:14:10.000Z</time>
      </trkpt>
      <trkpt lat="45.62652" lon="6.61958">
        <ele>2289.8000488281</ele>
        <time>2012-02-23T15:14:15.000Z</time>
      </trkpt>
      <trkpt lat="45.62645" lon="6.61943">
        <ele>2287.6000976562</ele>
        <time>2012-02-23T15:14:19.000Z</time>
      </trkpt>
      <trkpt lat="45.62643" lon="6.6194">
        <ele>2286.6000976562</ele>
        <time>2012-02-23T15:14:23.000Z</time>
      </trkpt>
      <trkpt lat="45.62642" lon="6.61939">
        <ele>2286.6000976562</ele>
        <time>2012-02-23T15:15:35.000Z</time>
      </trkpt>
      <trkpt lat="45.62632" lon="6.61928">
        <ele>2285.6000976562</ele>
        <time>2012-02-23T15:15:41.000Z</time>
      </trkpt>
      <trkpt lat="45.6262" lon="6.61912">
        <ele>2283.1999511719</ele>
        <time>2012-02-23T15:15:47.000Z</time>
      </trkpt>
      <trkpt lat="45.62613" lon="6.61906">
        <ele>2282.1999511719</ele>
        <time>2012-02-23T15:15:52.000Z</time>
      </trkpt>
      <trkpt lat="45.62611" lon="6.61916">
        <ele>2281</ele>
        <time>2012-02-23T15:15:55.000Z</time>
      </trkpt>
      <trkpt lat="45.62611" lon="6.61925">
        <ele>2278.6000976562</ele>
        <time>2012-02-23T15:15:58.000Z</time>
      </trkpt>
      <trkpt lat="45.62602" lon="6.61922">
        <ele>2277.1999511719</ele>
        <time>2012-02-23T15:16:01.000Z</time>
      </trkpt>
      <trkpt lat="45.6259" lon="6.61912">
        <ele>2275</ele>
        <time>2012-02-23T15:16:05.000Z</time>
      </trkpt>
      <trkpt lat="45.62576" lon="6.61889">
        <ele>2272.1999511719</ele>
        <time>2012-02-23T15:16:10.000Z</time>
      </trkpt>
      <trkpt lat="45.6257" lon="6.61879">
        <ele>2270.8000488281</ele>
        <time>2012-02-23T15:16:13.000Z</time>
      </trkpt>
      <trkpt lat="45.62565" lon="6.61872">
        <ele>2270.3999023438</ele>
        <time>2012-02-23T15:16:15.000Z</time>
      </trkpt>
      <trkpt lat="45.62552" lon="6.61851">
        <ele>2267</ele>
        <time>2012-02-23T15:16:20.000Z</time>
      </trkpt>
      <trkpt lat="45.62551" lon="6.61849">
        <ele>2266.8000488281</ele>
        <time>2012-02-23T15:16:21.000Z</time>
      </trkpt>
      <trkpt lat="45.62546" lon="6.61853">
        <ele>2265.6000976562</ele>
        <time>2012-02-23T15:16:24.000Z</time>
      </trkpt>
      <trkpt lat="45.62536" lon="6.61858">
        <ele>2262.6000976562</ele>
        <time>2012-02-23T15:16:27.000Z</time>
      </trkpt>
      <trkpt lat="45.62521" lon="6.61838">
        <ele>2258.1999511719</ele>
        <time>2012-02-23T15:16:33.000Z</time>
      </trkpt>
      <trkpt lat="45.62511" lon="6.61826">
        <ele>2256.8000488281</ele>
        <time>2012-02-23T15:16:38.000Z</time>
      </trkpt>
      <trkpt lat="45.62506" lon="6.61817">
        <ele>2255.8000488281</ele>
        <time>2012-02-23T15:16:42.000Z</time>
      </trkpt>
      <trkpt lat="45.62495" lon="6.61799">
        <ele>2253.8000488281</ele>
        <time>2012-02-23T15:16:47.000Z</time>
      </trkpt>
      <trkpt lat="45.62493" lon="6.61796">
        <ele>2253.1999511719</ele>
        <time>2012-02-23T15:16:50.000Z</time>
      </trkpt>
      <trkpt lat="45.62492" lon="6.61793">
        <ele>2253.6000976562</ele>
        <time>2012-02-23T15:17:16.000Z</time>
      </trkpt>
      <trkpt lat="45.62483" lon="6.6179">
        <ele>2252.3999023438</ele>
        <time>2012-02-23T15:17:21.000Z</time>
      </trkpt>
      <trkpt lat="45.62468" lon="6.61781">
        <ele>2251</ele>
        <time>2012-02-23T15:17:26.000Z</time>
      </trkpt>
      <trkpt lat="45.62464" lon="6.6178">
        <ele>2249.3999023438</ele>
        <time>2012-02-23T15:17:29.000Z</time>
      </trkpt>
      <trkpt lat="45.62465" lon="6.61785">
        <ele>2244.3999023438</ele>
        <time>2012-02-23T15:17:54.000Z</time>
      </trkpt>
      <trkpt lat="45.62465" lon="6.61784">
        <ele>2248.1999511719</ele>
        <time>2012-02-23T15:17:59.000Z</time>
      </trkpt>
      <trkpt lat="45.62464" lon="6.61793">
        <ele>2246.6000976562</ele>
        <time>2012-02-23T15:18:03.000Z</time>
      </trkpt>
      <trkpt lat="45.62465" lon="6.61795">
        <ele>2246.3999023438</ele>
        <time>2012-02-23T15:18:04.000Z</time>
      </trkpt>
      <trkpt lat="45.62469" lon="6.61806">
        <ele>2245</ele>
        <time>2012-02-23T15:18:09.000Z</time>
      </trkpt>
      <trkpt lat="45.62473" lon="6.61812">
        <ele>2243.3999023438</ele>
        <time>2012-02-23T15:18:12.000Z</time>
      </trkpt>
      <trkpt lat="45.62468" lon="6.6182">
        <ele>2241.1999511719</ele>
        <time>2012-02-23T15:18:15.000Z</time>
      </trkpt>
      <trkpt lat="45.6246" lon="6.61821">
        <ele>2237.6000976562</ele>
        <time>2012-02-23T15:18:18.000Z</time>
      </trkpt>
      <trkpt lat="45.62449" lon="6.61825">
        <ele>2234.1999511719</ele>
        <time>2012-02-23T15:18:21.000Z</time>
      </trkpt>
      <trkpt lat="45.62442" lon="6.61819">
        <ele>2230.8000488281</ele>
        <time>2012-02-23T15:18:23.000Z</time>
      </trkpt>
      <trkpt lat="45.62432" lon="6.61806">
        <ele>2227.3999023438</ele>
        <time>2012-02-23T15:18:28.000Z</time>
      </trkpt>
      <trkpt lat="45.62431" lon="6.61805">
        <ele>2227</ele>
        <time>2012-02-23T15:18:33.000Z</time>
      </trkpt>
      <trkpt lat="45.62431" lon="6.61805">
        <ele>2226.8000488281</ele>
        <time>2012-02-23T15:18:36.000Z</time>
      </trkpt>
      <trkpt lat="45.62425" lon="6.61811">
        <ele>2225.6000976562</ele>
        <time>2012-02-23T15:18:39.000Z</time>
      </trkpt>
      <trkpt lat="45.62416" lon="6.61817">
        <ele>2223.1999511719</ele>
        <time>2012-02-23T15:18:41.000Z</time>
      </trkpt>
      <trkpt lat="45.62409" lon="6.61804">
        <ele>2221</ele>
        <time>2012-02-23T15:18:43.000Z</time>
      </trkpt>
      <trkpt lat="45.62407" lon="6.6179">
        <ele>2219</ele>
        <time>2012-02-23T15:18:45.000Z</time>
      </trkpt>
      <trkpt lat="45.62407" lon="6.61764">
        <ele>2216.6000976562</ele>
        <time>2012-02-23T15:18:50.000Z</time>
      </trkpt>
      <trkpt lat="45.6241" lon="6.61753">
        <ele>2215.6000976562</ele>
        <time>2012-02-23T15:18:55.000Z</time>
      </trkpt>
      <trkpt lat="45.62411" lon="6.61751">
        <ele>2215.6000976562</ele>
        <time>2012-02-23T15:19:00.000Z</time>
      </trkpt>
      <trkpt lat="45.62415" lon="6.6173">
        <ele>2215</ele>
        <time>2012-02-23T15:19:09.000Z</time>
      </trkpt>
      <trkpt lat="45.62419" lon="6.61709">
        <ele>2213.3999023438</ele>
        <time>2012-02-23T15:19:15.000Z</time>
      </trkpt>
      <trkpt lat="45.6243" lon="6.61683">
        <ele>2211</ele>
        <time>2012-02-23T15:19:22.000Z</time>
      </trkpt>
      <trkpt lat="45.62435" lon="6.61676">
        <ele>2210.3999023438</ele>
        <time>2012-02-23T15:19:24.000Z</time>
      </trkpt>
      <trkpt lat="45.62436" lon="6.61653">
        <ele>2206.3999023438</ele>
        <time>2012-02-23T15:19:28.000Z</time>
      </trkpt>
      <trkpt lat="45.6243" lon="6.61637">
        <ele>2205.3999023438</ele>
        <time>2012-02-23T15:19:33.000Z</time>
      </trkpt>
      <trkpt lat="45.62429" lon="6.61624">
        <ele>2204.6000976562</ele>
        <time>2012-02-23T15:19:35.000Z</time>
      </trkpt>
      <trkpt lat="45.62429" lon="6.61576">
        <ele>2199.8000488281</ele>
        <time>2012-02-23T15:19:41.000Z</time>
      </trkpt>
      <trkpt lat="45.62423" lon="6.61536">
        <ele>2195.8000488281</ele>
        <time>2012-02-23T15:19:46.000Z</time>
      </trkpt>
      <trkpt lat="45.62423" lon="6.61523">
        <ele>2194.1999511719</ele>
        <time>2012-02-23T15:19:49.000Z</time>
      </trkpt>
      <trkpt lat="45.62424" lon="6.61521">
        <ele>2194</ele>
        <time>2012-02-23T15:19:55.000Z</time>
      </trkpt>
      <trkpt lat="45.62424" lon="6.61519">
        <ele>2194</ele>
        <time>2012-02-23T15:20:16.000Z</time>
      </trkpt>
      <trkpt lat="45.62421" lon="6.61507">
        <ele>2193.3999023438</ele>
        <time>2012-02-23T15:20:20.000Z</time>
      </trkpt>
      <trkpt lat="45.62416" lon="6.61485">
        <ele>2191</ele>
        <time>2012-02-23T15:20:25.000Z</time>
      </trkpt>
      <trkpt lat="45.62414" lon="6.61463">
        <ele>2187</ele>
        <time>2012-02-23T15:20:30.000Z</time>
      </trkpt>
      <trkpt lat="45.62414" lon="6.61462">
        <ele>2186.6000976562</ele>
        <time>2012-02-23T15:20:31.000Z</time>
      </trkpt>
      <trkpt lat="45.62415" lon="6.61455">
        <ele>2184.8000488281</ele>
        <time>2012-02-23T15:20:36.000Z</time>
      </trkpt>
      <trkpt lat="45.62416" lon="6.6145">
        <ele>2183.6000976562</ele>
        <time>2012-02-23T15:20:44.000Z</time>
      </trkpt>
      <trkpt lat="45.62424" lon="6.61424">
        <ele>2180.1999511719</ele>
        <time>2012-02-23T15:20:49.000Z</time>
      </trkpt>
      <trkpt lat="45.62423" lon="6.61414">
        <ele>2179</ele>
        <time>2012-02-23T15:20:51.000Z</time>
      </trkpt>
      <trkpt lat="45.62423" lon="6.61394">
        <ele>2177.3999023438</ele>
        <time>2012-02-23T15:20:54.000Z</time>
      </trkpt>
      <trkpt lat="45.62423" lon="6.61387">
        <ele>2176.6000976562</ele>
        <time>2012-02-23T15:20:55.000Z</time>
      </trkpt>
      <trkpt lat="45.62422" lon="6.61367">
        <ele>2173.8000488281</ele>
        <time>2012-02-23T15:20:58.000Z</time>
      </trkpt>
      <trkpt lat="45.62415" lon="6.6135">
        <ele>2171.8000488281</ele>
        <time>2012-02-23T15:21:00.000Z</time>
      </trkpt>
      <trkpt lat="45.62395" lon="6.61325">
        <ele>2167.3999023438</ele>
        <time>2012-02-23T15:21:04.000Z</time>
      </trkpt>
      <trkpt lat="45.62372" lon="6.61307">
        <ele>2165.1999511719</ele>
        <time>2012-02-23T15:21:10.000Z</time>
      </trkpt>
      <trkpt lat="45.62361" lon="6.61298">
        <ele>2164</ele>
        <time>2012-02-23T15:21:15.000Z</time>
      </trkpt>
      <trkpt lat="45.62349" lon="6.61292">
        <ele>2163</ele>
        <time>2012-02-23T15:21:23.000Z</time>
      </trkpt>
      <trkpt lat="45.62325" lon="6.61285">
        <ele>2160.8000488281</ele>
        <time>2012-02-23T15:21:34.000Z</time>
      </trkpt>
      <trkpt lat="45.62302" lon="6.61277">
        <ele>2158.8000488281</ele>
        <time>2012-02-23T15:21:42.000Z</time>
      </trkpt>
      <trkpt lat="45.62297" lon="6.61268">
        <ele>2157.8000488281</ele>
        <time>2012-02-23T15:21:46.000Z</time>
      </trkpt>
      <trkpt lat="45.62287" lon="6.61254">
        <ele>2156.3999023438</ele>
        <time>2012-02-23T15:21:51.000Z</time>
      </trkpt>
      <trkpt lat="45.62278" lon="6.61233">
        <ele>2154.1999511719</ele>
        <time>2012-02-23T15:21:56.000Z</time>
      </trkpt>
      <trkpt lat="45.62277" lon="6.61231">
        <ele>2153.8000488281</ele>
        <time>2012-02-23T15:21:57.000Z</time>
      </trkpt>
      <trkpt lat="45.62275" lon="6.61237">
        <ele>2152.6000976562</ele>
        <time>2012-02-23T15:22:01.000Z</time>
      </trkpt>
      <trkpt lat="45.62275" lon="6.61247">
        <ele>2150.6000976562</ele>
        <time>2012-02-23T15:22:04.000Z</time>
      </trkpt>
      <trkpt lat="45.62267" lon="6.61249">
        <ele>2148.8000488281</ele>
        <time>2012-02-23T15:22:07.000Z</time>
      </trkpt>
      <trkpt lat="45.62263" lon="6.61239">
        <ele>2147</ele>
        <time>2012-02-23T15:22:10.000Z</time>
      </trkpt>
      <trkpt lat="45.62246" lon="6.61219">
        <ele>2143.8000488281</ele>
        <time>2012-02-23T15:22:18.000Z</time>
      </trkpt>
      <trkpt lat="45.62244" lon="6.61217">
        <ele>2143.1999511719</ele>
        <time>2012-02-23T15:22:23.000Z</time>
      </trkpt>
      <trkpt lat="45.62244" lon="6.61218">
        <ele>2143.1999511719</ele>
        <time>2012-02-23T15:22:31.000Z</time>
      </trkpt>
      <trkpt lat="45.62239" lon="6.6121">
        <ele>2142.8000488281</ele>
        <time>2012-02-23T15:22:49.000Z</time>
      </trkpt>
      <trkpt lat="45.6223" lon="6.61196">
        <ele>2141.3999023438</ele>
        <time>2012-02-23T15:22:54.000Z</time>
      </trkpt>
      <trkpt lat="45.62213" lon="6.6117">
        <ele>2138.3999023438</ele>
        <time>2012-02-23T15:23:00.000Z</time>
      </trkpt>
      <trkpt lat="45.62207" lon="6.61161">
        <ele>2137</ele>
        <time>2012-02-23T15:23:03.000Z</time>
      </trkpt>
      <trkpt lat="45.62196" lon="6.61148">
        <ele>2136.3999023438</ele>
        <time>2012-02-23T15:23:11.000Z</time>
      </trkpt>
      <trkpt lat="45.62187" lon="6.61137">
        <ele>2134.6000976562</ele>
        <time>2012-02-23T15:23:17.000Z</time>
      </trkpt>
      <trkpt lat="45.62179" lon="6.61124">
        <ele>2134</ele>
        <time>2012-02-23T15:23:22.000Z</time>
      </trkpt>
      <trkpt lat="45.62168" lon="6.61105">
        <ele>2132</ele>
        <time>2012-02-23T15:23:28.000Z</time>
      </trkpt>
      <trkpt lat="45.62163" lon="6.61099">
        <ele>2130.6000976562</ele>
        <time>2012-02-23T15:23:32.000Z</time>
      </trkpt>
      <trkpt lat="45.62158" lon="6.61096">
        <ele>2130.1999511719</ele>
        <time>2012-02-23T15:23:38.000Z</time>
      </trkpt>
      <trkpt lat="45.62155" lon="6.61092">
        <ele>2129</ele>
        <time>2012-02-23T15:23:43.000Z</time>
      </trkpt>
      <trkpt lat="45.62154" lon="6.61092">
        <ele>2129</ele>
        <time>2012-02-23T15:23:50.000Z</time>
      </trkpt>
      <trkpt lat="45.62154" lon="6.61099">
        <ele>2127.6000976562</ele>
        <time>2012-02-23T15:23:54.000Z</time>
      </trkpt>
      <trkpt lat="45.62149" lon="6.61104">
        <ele>2124.1999511719</ele>
        <time>2012-02-23T15:23:58.000Z</time>
      </trkpt>
      <trkpt lat="45.62149" lon="6.61104">
        <ele>2122.3999023438</ele>
        <time>2012-02-23T15:24:28.000Z</time>
      </trkpt>
      <trkpt lat="45.62141" lon="6.61098">
        <ele>2121.8000488281</ele>
        <time>2012-02-23T15:24:32.000Z</time>
      </trkpt>
      <trkpt lat="45.62137" lon="6.61096">
        <ele>2121.1999511719</ele>
        <time>2012-02-23T15:24:37.000Z</time>
      </trkpt>
      <trkpt lat="45.62131" lon="6.61094">
        <ele>2120.1999511719</ele>
        <time>2012-02-23T15:24:45.000Z</time>
      </trkpt>
      <trkpt lat="45.62128" lon="6.61093">
        <ele>2120.1999511719</ele>
        <time>2012-02-23T15:24:46.000Z</time>
      </trkpt>
      <trkpt lat="45.62122" lon="6.61087">
        <ele>2118.8000488281</ele>
        <time>2012-02-23T15:24:49.000Z</time>
      </trkpt>
      <trkpt lat="45.62115" lon="6.61081">
        <ele>2116.8000488281</ele>
        <time>2012-02-23T15:24:57.000Z</time>
      </trkpt>
      <trkpt lat="45.62103" lon="6.6107">
        <ele>2114.1999511719</ele>
        <time>2012-02-23T15:25:01.000Z</time>
      </trkpt>
      <trkpt lat="45.621" lon="6.61068">
        <ele>2113.3999023438</ele>
        <time>2012-02-23T15:25:03.000Z</time>
      </trkpt>
      <trkpt lat="45.62094" lon="6.61061">
        <ele>2113</ele>
        <time>2012-02-23T15:25:07.000Z</time>
      </trkpt>
      <trkpt lat="45.62083" lon="6.61048">
        <ele>2109.8000488281</ele>
        <time>2012-02-23T15:25:12.000Z</time>
      </trkpt>
      <trkpt lat="45.62083" lon="6.6105">
        <ele>2106.6000976562</ele>
        <time>2012-02-23T15:25:21.000Z</time>
      </trkpt>
      <trkpt lat="45.62083" lon="6.61051">
        <ele>2108.8000488281</ele>
        <time>2012-02-23T15:25:25.000Z</time>
      </trkpt>
      <trkpt lat="45.62076" lon="6.61048">
        <ele>2108.1999511719</ele>
        <time>2012-02-23T15:25:36.000Z</time>
      </trkpt>
      <trkpt lat="45.62068" lon="6.6104">
        <ele>2107.1999511719</ele>
        <time>2012-02-23T15:25:41.000Z</time>
      </trkpt>
      <trkpt lat="45.6206" lon="6.61029">
        <ele>2106.6000976562</ele>
        <time>2012-02-23T15:25:46.000Z</time>
      </trkpt>
      <trkpt lat="45.62053" lon="6.6102">
        <ele>2105.1999511719</ele>
        <time>2012-02-23T15:25:49.000Z</time>
      </trkpt>
      <trkpt lat="45.62048" lon="6.61015">
        <ele>2104</ele>
        <time>2012-02-23T15:25:52.000Z</time>
      </trkpt>
      <trkpt lat="45.62038" lon="6.60999">
        <ele>2102.1999511719</ele>
        <time>2012-02-23T15:25:57.000Z</time>
      </trkpt>
      <trkpt lat="45.62022" lon="6.60982">
        <ele>2099.3999023438</ele>
        <time>2012-02-23T15:26:02.000Z</time>
      </trkpt>
      <trkpt lat="45.6202" lon="6.60981">
        <ele>2099</ele>
        <time>2012-02-23T15:26:03.000Z</time>
      </trkpt>
      <trkpt lat="45.62008" lon="6.60974">
        <ele>2098</ele>
        <time>2012-02-23T15:26:08.000Z</time>
      </trkpt>
      <trkpt lat="45.61989" lon="6.60958">
        <ele>2096.1999511719</ele>
        <time>2012-02-23T15:26:15.000Z</time>
      </trkpt>
      <trkpt lat="45.61981" lon="6.60949">
        <ele>2095.1999511719</ele>
        <time>2012-02-23T15:26:18.000Z</time>
      </trkpt>
      <trkpt lat="45.61966" lon="6.60928">
        <ele>2092.1999511719</ele>
        <time>2012-02-23T15:26:23.000Z</time>
      </trkpt>
      <trkpt lat="45.61959" lon="6.60922">
        <ele>2091.3999023438</ele>
        <time>2012-02-23T15:26:27.000Z</time>
      </trkpt>
      <trkpt lat="45.61949" lon="6.60905">
        <ele>2089.3999023438</ele>
        <time>2012-02-23T15:26:31.000Z</time>
      </trkpt>
      <trkpt lat="45.61945" lon="6.60895">
        <ele>2088.1999511719</ele>
        <time>2012-02-23T15:26:33.000Z</time>
      </trkpt>
      <trkpt lat="45.6194" lon="6.60882">
        <ele>2086.6000976562</ele>
        <time>2012-02-23T15:26:37.000Z</time>
      </trkpt>
      <trkpt lat="45.61941" lon="6.60885">
        <ele>2084.8000488281</ele>
        <time>2012-02-23T15:26:42.000Z</time>
      </trkpt>
      <trkpt lat="45.6194" lon="6.60884">
        <ele>2086</ele>
        <time>2012-02-23T15:26:57.000Z</time>
      </trkpt>
      <trkpt lat="45.6193" lon="6.60868">
        <ele>2084.3999023438</ele>
        <time>2012-02-23T15:27:03.000Z</time>
      </trkpt>
      <trkpt lat="45.61925" lon="6.60859">
        <ele>2082.8000488281</ele>
        <time>2012-02-23T15:27:05.000Z</time>
      </trkpt>
      <trkpt lat="45.61917" lon="6.60843">
        <ele>2081.3999023438</ele>
        <time>2012-02-23T15:27:08.000Z</time>
      </trkpt>
      <trkpt lat="45.61915" lon="6.60837">
        <ele>2080.8000488281</ele>
        <time>2012-02-23T15:27:09.000Z</time>
      </trkpt>
      <trkpt lat="45.6191" lon="6.60817">
        <ele>2079</ele>
        <time>2012-02-23T15:27:13.000Z</time>
      </trkpt>
      <trkpt lat="45.61907" lon="6.6081">
        <ele>2077.8000488281</ele>
        <time>2012-02-23T15:27:17.000Z</time>
      </trkpt>
      <trkpt lat="45.619" lon="6.60799">
        <ele>2076.8000488281</ele>
        <time>2012-02-23T15:27:23.000Z</time>
      </trkpt>
      <trkpt lat="45.61888" lon="6.60783">
        <ele>2073.1999511719</ele>
        <time>2012-02-23T15:27:27.000Z</time>
      </trkpt>
      <trkpt lat="45.61885" lon="6.6079">
        <ele>2072.8000488281</ele>
        <time>2012-02-23T15:27:30.000Z</time>
      </trkpt>
      <trkpt lat="45.61887" lon="6.60802">
        <ele>2070</ele>
        <time>2012-02-23T15:27:33.000Z</time>
      </trkpt>
      <trkpt lat="45.61878" lon="6.60803">
        <ele>2068</ele>
        <time>2012-02-23T15:27:35.000Z</time>
      </trkpt>
      <trkpt lat="45.61865" lon="6.60811">
        <ele>2064.3999023438</ele>
        <time>2012-02-23T15:27:38.000Z</time>
      </trkpt>
      <trkpt lat="45.61851" lon="6.6083">
        <ele>2060.8000488281</ele>
        <time>2012-02-23T15:27:41.000Z</time>
      </trkpt>
      <trkpt lat="45.61843" lon="6.6084">
        <ele>2059.3999023438</ele>
        <time>2012-02-23T15:27:43.000Z</time>
      </trkpt>
      <trkpt lat="45.6184" lon="6.60849">
        <ele>2058.6000976562</ele>
        <time>2012-02-23T15:27:45.000Z</time>
      </trkpt>
      <trkpt lat="45.61837" lon="6.60863">
        <ele>2058.1999511719</ele>
        <time>2012-02-23T15:27:49.000Z</time>
      </trkpt>
      <trkpt lat="45.61835" lon="6.60864">
        <ele>2058.8000488281</ele>
        <time>2012-02-23T15:27:59.000Z</time>
      </trkpt>
      <trkpt lat="45.61837" lon="6.60868">
        <ele>2061.1999511719</ele>
        <time>2012-02-23T15:28:27.000Z</time>
      </trkpt>
      <trkpt lat="45.61837" lon="6.60866">
        <ele>2059.1999511719</ele>
        <time>2012-02-23T15:28:31.000Z</time>
      </trkpt>
      <trkpt lat="45.61837" lon="6.60858">
        <ele>2059.3999023438</ele>
        <time>2012-02-23T15:28:43.000Z</time>
      </trkpt>
      <trkpt lat="45.61835" lon="6.60859">
        <ele>2058</ele>
        <time>2012-02-23T15:28:51.000Z</time>
      </trkpt>
      <trkpt lat="45.61833" lon="6.60861">
        <ele>2057.8000488281</ele>
        <time>2012-02-23T15:28:53.000Z</time>
      </trkpt>
      <trkpt lat="45.61816" lon="6.60877">
        <ele>2057.8000488281</ele>
        <time>2012-02-23T15:29:00.000Z</time>
      </trkpt>
      <trkpt lat="45.61822" lon="6.6086">
        <ele>2057.6000976562</ele>
        <time>2012-02-23T15:29:03.000Z</time>
      </trkpt>
      <trkpt lat="45.61837" lon="6.60866">
        <ele>2057.6000976562</ele>
        <time>2012-02-23T15:29:20.000Z</time>
      </trkpt>
      <trkpt lat="45.61839" lon="6.60867">
        <ele>2057.6000976562</ele>
        <time>2012-02-23T15:29:25.000Z</time>
      </trkpt>
      <trkpt lat="45.61843" lon="6.60868">
        <ele>2057.6000976562</ele>
        <time>2012-02-23T15:29:38.000Z</time>
      </trkpt>
      <trkpt lat="45.61849" lon="6.60869">
        <ele>2057.6000976562</ele>
        <time>2012-02-23T15:29:46.000Z</time>
      </trkpt>
      <trkpt lat="45.61847" lon="6.60874">
        <ele>2057.8000488281</ele>
        <time>2012-02-23T15:29:53.000Z</time>
      </trkpt>
      <trkpt lat="45.6185" lon="6.60873">
        <ele>2058</ele>
        <time>2012-02-23T15:29:59.000Z</time>
      </trkpt>
      <trkpt lat="45.61851" lon="6.60866">
        <ele>2058.1999511719</ele>
        <time>2012-02-23T15:30:04.000Z</time>
      </trkpt>
    </trkseg>
  </trk>
</gpx>